[[{"header":{"parameterUnit":"m.s-1","parameterCategory":1,"la1":30.6,"la2":29.2853,"lo1":-89.7004,"lo2":-87.6739,"dy":0.0162,"dx":0.0183,"nx":112,"ny":82,"refTime":"2023-05-23T12:00:00:Z","depth":0,"parameterNumber":2,"parameterNumberName":"U-component_of_WINDS"},"data":[0.0,0.0,0.0,0.0,0.0,0.0,0.0,0.0,0.0,0.0,0.0,0.0,0.0,0.0,0.0,0.0,0.0,0.0,0.0,0.0,0.0,0.0,0.0,0.0,0.0,0.0,0.0,0.0,0.0,0.0,0.0,0.0,0.0,0.0,0.0,0.0,0.0,0.0,0.0,0.0,0.0,0.0,0.0,0.0,0.0,0.0,0.0,0.0,0.0,0.0,0.0,0.0,0.0,0.0,0.0,0.0,0.0,0.0,0.0,0.0,0.0,0.0,0.0,0.0,0.0,0.0,0.0,0.0,0.0,0.0,0.0,0.0,0.0,0.0,0.0,0.0,0.0,0.0,0.0,0.0,0.0,0.0,0.0,0.0,0.0,0.0,0.0,0.0,0.0,0.0,1.6372,1.6183,1.5705,1.5396,1.5396,1.4386,1.4737,1.7006,0.0,0.0,0.0,0.0,0.0,0.0,0.0,0.0,0.0,0.0,0.0,0.0,0.0,0.0,0.0,0.0,0.0,0.0,0.0,0.0,0.0,0.0,0.0,0.0,0.0,0.0,0.0,0.0,0.0,0.0,0.0,0.0,0.0,0.0,0.0,0.0,0.0,0.0,0.0,0.0,0.0,0.0,0.0,0.0,0.0,0.0,0.0,0.0,0.0,0.0,0.0,0.0,0.0,0.0,0.0,0.0,0.0,0.0,0.0,0.0,0.0,0.0,0.0,0.0,0.0,0.0,0.0,0.0,0.0,0.0,0.0,0.0,0.0,0.0,0.0,0.0,0.0,0.0,0.0,0.0,0.0,0.0,0.0,0.0,0.0,0.0,0.0,0.0,0.0,0.0,0.0,0.0,0.0,0.0,0.0,0.0,0.0,0.0,0.0,0.0,0.0,0.0,0.0,0.0,1.6669,1.5657,1.5454,1.5396,1.5396,1.5123,1.5493,1.6779,0.0,0.0,0.0,0.0,0.0,0.0,0.0,0.0,0.0,0.0,0.0,0.0,0.0,0.0,0.0,0.0,0.0,0.0,0.0,0.0,0.0,0.0,0.0,0.0,0.0,0.0,0.0,0.0,0.0,0.0,0.0,0.0,0.0,0.0,0.0,0.0,0.0,0.0,0.0,0.0,0.0,0.0,0.0,0.0,0.0,0.0,0.0,0.0,0.0,0.0,0.0,0.0,0.0,0.0,0.0,0.0,0.0,0.0,0.0,0.0,0.0,0.0,0.0,0.0,0.0,0.0,0.0,0.0,0.0,0.0,0.0,0.0,0.0,0.0,0.0,0.0,0.0,0.0,0.0,0.0,0.0,0.0,0.0,0.0,0.0,0.0,0.0,0.0,0.0,0.0,0.0,0.0,0.0,0.0,0.0,0.0,0.0,0.0,0.0,0.0,0.0,0.0,0.0,1.6602,1.6005,1.5454,1.5118,1.5045,1.5366,1.4706,1.4996,1.6694,1.5414,0.0,0.0,0.0,0.0,0.0,0.0,0.0,0.0,0.0,0.0,0.0,0.0,0.0,0.0,0.0,0.0,0.0,0.0,0.0,0.0,0.0,0.0,0.0,0.0,0.0,0.0,0.0,0.0,0.0,0.0,0.0,0.0,0.0,0.0,0.0,0.0,0.0,0.0,0.0,0.0,0.0,0.0,0.0,0.0,0.0,0.0,0.0,0.0,0.0,0.0,0.0,0.0,0.0,0.0,0.0,0.0,0.0,0.0,0.0,0.0,0.0,0.0,0.0,0.0,0.0,0.0,0.0,0.0,0.0,0.0,0.0,0.0,0.0,0.0,0.0,0.0,0.0,0.0,0.0,0.0,0.0,0.0,0.0,0.0,0.0,0.0,0.0,0.0,0.0,0.0,0.0,0.0,0.0,0.0,0.0,0.0,0.0,0.0,0.0,0.0,0.0,0.0,1.5721,1.521,1.5084,1.4743,1.4698,1.5129,1.4229,1.4453,1.6354,1.5252,0.0,0.0,0.0,0.0,0.0,0.0,0.0,0.0,0.0,0.0,0.0,0.0,0.0,0.0,0.0,0.0,0.0,0.0,0.0,0.0,0.0,0.0,0.0,0.0,0.0,0.0,0.0,0.0,0.0,0.0,0.0,0.0,0.0,0.0,0.0,0.0,0.0,0.0,0.0,0.0,0.0,0.0,0.0,0.0,0.0,0.0,0.0,0.0,0.0,0.0,0.0,0.0,0.0,0.0,0.0,0.0,0.0,0.0,0.0,0.0,0.0,0.0,0.0,0.0,0.0,0.0,0.0,0.0,0.0,0.0,0.0,0.0,0.0,0.0,0.0,0.0,0.0,0.0,0.0,0.0,0.0,0.0,0.0,0.0,0.0,0.0,0.0,0.0,0.0,0.0,0.0,0.0,0.0,0.0,0.0,0.0,0.0,0.0,0.0,0.0,0.0,0.0,1.5567,1.465,1.4142,1.4396,1.4553,1.4473,1.4223,1.4473,1.5439,1.5157,0.0,0.0,0.0,0.0,0.0,0.0,0.0,0.0,0.0,0.0,0.0,0.0,0.0,0.0,0.0,0.0,0.0,0.0,0.0,0.0,0.0,0.0,0.0,0.0,0.0,0.0,0.0,0.0,0.0,0.0,0.0,0.0,0.0,0.0,0.0,0.0,0.0,0.0,0.0,0.0,0.0,0.0,0.0,0.0,0.0,0.0,0.0,0.0,0.0,0.0,0.0,0.0,0.0,0.0,0.0,0.0,0.0,0.0,0.0,0.0,0.0,0.0,0.0,0.0,0.0,0.0,0.0,0.0,0.0,0.0,0.0,0.0,0.0,0.0,0.0,0.0,0.0,0.0,0.0,0.0,0.0,0.0,0.0,0.0,0.0,0.0,0.0,0.0,0.0,0.0,0.0,0.0,0.0,0.0,0.0,0.0,0.0,0.0,0.0,0.0,0.0,0.0,1.5317,1.4331,1.3755,1.3755,1.3918,1.4249,1.3756,1.3986,1.5313,0.0,0.0,0.0,0.0,0.0,0.0,0.0,0.0,0.0,0.0,0.0,0.0,0.0,0.0,0.0,0.0,0.0,0.0,0.0,0.0,0.0,0.0,0.0,0.0,0.0,0.0,0.0,0.0,0.0,0.0,0.0,0.0,0.0,0.0,0.0,0.0,0.0,0.0,0.0,0.0,0.0,0.0,0.0,0.0,0.0,0.0,0.0,0.0,0.0,0.0,0.0,0.0,0.0,0.0,0.0,0.0,0.0,0.0,0.0,0.0,0.0,0.0,0.0,0.0,0.0,0.0,0.0,0.0,0.0,0.0,0.0,0.0,0.0,0.0,0.0,0.0,0.0,0.0,0.0,0.0,0.0,0.0,0.0,0.0,0.0,0.0,0.0,0.0,0.0,0.0,0.0,0.0,0.0,0.0,0.0,0.0,0.0,0.0,0.0,0.0,0.0,0.0,1.6474,1.5304,1.4281,1.3629,1.3602,1.3747,1.4077,1.3412,1.3583,1.5015,0.0,0.0,0.0,0.0,0.0,0.0,0.0,0.0,0.0,0.0,0.0,0.0,0.0,0.0,0.0,0.0,0.0,0.0,0.0,0.0,0.0,0.0,0.0,0.0,0.0,0.0,0.0,0.0,0.0,0.0,0.0,0.0,0.0,0.0,0.0,0.0,0.0,0.0,0.0,0.0,0.0,0.0,0.0,0.0,0.0,0.0,0.0,0.0,0.0,0.0,0.0,0.0,0.0,0.0,0.0,0.0,0.0,0.0,0.0,0.0,0.0,0.0,0.0,0.0,0.0,0.0,0.0,0.0,0.0,0.0,0.0,0.0,0.0,0.0,0.0,0.0,0.0,0.0,0.0,0.0,0.0,0.0,0.0,0.0,0.0,0.0,0.0,0.0,0.0,0.0,0.0,0.0,0.0,0.0,0.0,0.0,0.0,0.0,0.0,0.0,0.0,0.0,1.6649,1.554,1.4508,1.3762,1.4062,1.419,1.392,1.3281,1.3354,0.0,0.0,0.0,0.0,0.0,0.0,0.0,0.0,0.0,0.0,0.0,0.0,0.0,0.0,0.0,0.0,0.0,0.0,0.0,0.0,0.0,0.0,0.0,0.0,0.0,0.0,0.0,0.0,0.0,0.0,0.0,0.0,0.0,0.0,0.0,0.0,0.0,0.0,0.0,0.0,0.0,0.0,0.0,0.0,0.0,0.0,0.0,0.0,0.0,0.0,0.0,0.0,0.0,0.0,0.0,0.0,0.0,0.0,0.0,0.0,0.0,0.0,0.0,0.0,0.0,0.0,0.0,0.0,0.0,0.0,0.0,0.0,0.0,0.0,0.0,0.0,0.0,0.0,0.0,0.0,0.0,0.0,0.0,0.0,0.0,0.0,0.0,0.0,0.0,0.0,0.0,0.0,0.0,0.0,0.0,0.0,0.0,0.0,0.0,0.0,0.0,0.0,0.0,1.6415,1.5339,1.4293,1.3509,1.382,1.401,1.3832,1.3077,1.3039,1.4027,0.0,0.0,0.0,0.0,0.0,0.0,0.0,0.0,0.0,0.0,0.0,0.0,0.0,0.0,0.0,0.0,0.0,0.0,0.0,0.0,0.0,0.0,0.0,0.0,0.0,0.0,0.0,0.0,0.0,0.0,0.0,0.0,0.0,0.0,0.0,0.0,0.0,0.0,0.0,0.0,0.0,0.0,0.0,0.0,0.0,0.0,0.0,0.0,0.0,0.0,0.0,0.0,0.0,0.0,0.0,0.0,0.0,0.0,0.0,0.0,0.0,0.0,0.0,0.0,0.0,0.0,0.0,0.0,0.0,0.0,0.0,0.0,0.0,0.0,0.0,0.0,0.0,0.0,0.0,0.0,0.0,0.0,0.0,0.0,0.0,0.0,0.0,0.0,0.0,0.0,0.0,0.0,0.0,0.0,0.0,0.0,0.0,0.0,0.0,0.0,0.0,0.0,1.6662,1.5761,1.4903,1.4284,1.461,1.4795,1.4579,1.3556,1.3299,1.4129,0.0,0.0,0.0,0.0,0.0,0.0,0.0,0.0,0.0,0.0,0.0,0.0,0.0,0.0,0.0,0.0,0.0,0.0,0.0,0.0,0.0,0.0,0.0,0.0,0.0,0.0,0.0,0.0,0.0,0.0,0.0,0.0,0.0,0.0,0.0,0.0,0.0,0.0,0.0,0.0,0.0,0.0,0.0,0.0,0.0,0.0,0.0,0.0,0.0,0.0,0.0,0.0,0.0,0.0,0.0,0.0,0.0,0.0,0.0,0.0,0.0,0.0,0.0,0.0,0.0,0.0,0.0,0.0,0.0,0.0,0.0,0.0,0.0,0.0,0.0,0.0,0.0,0.0,0.0,0.0,0.0,0.0,0.0,0.0,0.0,0.0,0.0,0.0,0.0,0.0,0.0,0.0,0.0,0.0,0.0,0.0,0.0,0.0,0.0,0.0,0.0,0.0,1.7333,1.6632,1.6016,1.5679,1.5974,1.6048,1.5737,1.4468,1.3941,1.4511,0.0,0.0,0.0,0.0,0.0,0.0,0.0,0.0,0.0,0.0,0.0,0.0,0.0,0.0,0.0,0.0,0.0,0.0,0.0,0.0,0.0,0.0,0.0,0.0,0.0,0.0,0.0,0.0,0.0,0.0,0.0,0.0,0.0,0.0,0.0,0.0,0.0,0.0,0.0,0.0,0.0,0.0,0.0,0.0,0.0,0.0,0.0,0.0,0.0,0.0,0.0,0.0,0.0,0.0,0.0,0.0,0.0,0.0,0.0,0.0,1.9862,0.0,0.0,0.0,0.0,0.0,0.0,0.0,0.0,0.0,0.0,0.0,0.0,0.0,0.0,0.0,0.0,0.0,0.0,0.0,0.0,0.0,0.0,0.0,0.0,0.0,0.0,0.0,0.0,0.0,0.0,0.0,0.0,0.0,0.0,0.0,0.0,0.0,0.0,0.0,0.0,0.0,1.8419,1.7175,1.6264,1.6091,1.6017,1.5882,1.5721,1.4935,1.4363,1.4137,1.3424,0.0,0.0,0.0,0.0,0.0,0.0,0.0,0.0,0.0,0.0,0.0,0.0,0.0,0.0,0.0,0.0,0.0,0.0,0.0,0.0,0.0,0.0,0.0,0.0,0.0,0.0,0.0,0.0,0.0,0.0,0.0,0.0,0.0,0.0,0.0,0.0,0.0,0.0,0.0,0.0,0.0,0.0,0.0,0.0,0.0,0.0,0.0,0.0,0.0,0.0,0.0,0.0,0.0,0.0,0.0,0.0,0.0,0.0,0.0,0.0,1.9798,0.0,0.0,0.0,0.0,0.0,0.0,0.0,0.0,0.0,0.0,0.0,0.0,0.0,0.0,0.0,0.0,0.0,0.0,0.0,0.0,0.0,0.0,0.0,0.0,0.0,0.0,0.0,0.0,0.0,0.0,0.0,0.0,0.0,0.0,0.0,0.0,0.0,0.0,0.0,0.0,1.8752,1.7556,1.6673,1.6504,1.651,1.645,1.6292,1.562,1.4967,1.4331,1.3633,0.0,0.0,0.0,0.0,0.0,0.0,0.0,0.0,0.0,0.0,0.0,0.0,0.0,0.0,0.0,0.0,0.0,0.0,0.0,0.0,0.0,0.0,0.0,0.0,0.0,0.0,0.0,0.0,0.0,0.0,0.0,0.0,0.0,0.0,0.0,0.0,0.0,0.0,0.0,0.0,0.0,0.0,0.0,0.0,0.0,0.0,0.0,0.0,0.0,0.0,0.0,0.0,0.0,2.1199,2.0809,2.037,2.002,1.9869,1.9852,1.9911,1.9864,1.9796,2.0292,0.0,0.0,0.0,0.0,0.0,0.0,0.0,0.0,0.0,0.0,0.0,0.0,0.0,0.0,0.0,0.0,0.0,0.0,0.0,0.0,0.0,0.0,0.0,0.0,2.4983,2.487,2.3866,0.0,0.0,0.0,0.0,0.0,0.0,0.0,0.0,0.0,0.0,0.0,1.9019,1.7921,1.713,1.6949,1.6954,1.6959,1.6908,1.6097,1.5312,1.4637,1.3908,1.278,0.0,0.0,0.0,0.0,0.0,0.0,0.0,0.0,0.0,0.0,0.0,0.0,0.0,0.0,0.0,0.0,0.0,0.0,0.0,0.0,0.0,0.0,0.0,0.0,0.0,0.0,0.0,0.0,0.0,0.0,0.0,0.0,2.6791,2.6758,0.0,0.0,0.0,0.0,0.0,0.0,0.0,0.0,0.0,0.0,0.0,0.0,0.0,2.3414,2.2893,2.294,2.2643,2.2017,2.196,2.1781,2.1492,2.143,2.1342,2.1202,2.0645,0.0,1.9541,1.9625,0.0,0.0,0.0,0.0,0.0,0.0,0.0,0.0,0.0,0.0,0.0,0.0,0.0,0.0,0.0,0.0,0.0,0.0,0.0,0.0,0.0,0.0,2.4264,2.47,2.4876,2.4883,0.0,2.4408,2.4166,2.3892,2.3712,0.0,0.0,0.0,0.0,0.0,0.0,0.0,2.0028,1.8562,1.7571,1.7419,1.6672,1.6359,1.6856,1.5569,1.4708,1.4601,1.3908,1.278,1.1167,1.0999,0.0,0.0,0.0,0.0,0.0,0.0,0.0,0.0,0.0,0.0,0.0,0.0,0.0,0.0,0.0,0.0,0.0,0.0,0.0,0.0,0.0,0.0,0.0,0.0,0.0,0.0,0.0,0.0,0.0,2.6615,2.6393,2.6461,2.6154,2.5802,0.0,0.0,0.0,0.0,0.0,0.0,0.0,0.0,0.0,2.3831,2.3547,2.3177,2.2664,2.2684,2.2563,2.2264,2.2131,2.1977,2.185,2.1712,2.1574,2.1437,2.1136,2.0787,2.0385,2.0068,2.012,2.0424,0.0,0.0,0.0,0.0,2.1842,2.1933,2.2701,2.296,2.3159,2.4327,0.0,0.0,0.0,0.0,0.0,0.0,0.0,0.0,0.0,0.0,2.568,2.5872,2.5952,2.5965,2.5937,2.5535,2.5147,0.0,2.4757,2.4611,2.4665,0.0,0.0,0.0,0.0,2.1416,2.0757,1.9288,1.8257,1.808,1.7226,1.6568,1.6298,1.5666,1.4895,1.4034,1.3673,1.278,1.1167,1.0676,0.9881,0.0,0.0,0.0,0.0,0.0,0.0,0.0,0.0,0.0,0.0,0.0,0.0,0.0,0.0,0.0,0.0,0.0,0.0,0.0,0.0,0.0,0.0,0.0,0.0,0.0,0.0,0.0,0.0,2.6481,2.6394,2.6579,2.6274,2.6018,0.0,0.0,0.0,0.0,0.0,0.0,2.5596,2.5167,2.4705,2.42,2.3779,2.3325,2.2815,2.2822,2.2817,2.2788,2.258,2.2468,2.2397,2.2207,2.197,2.1706,2.1706,2.1518,2.1184,2.0706,2.0607,2.078,2.1006,2.1313,2.1659,2.199,2.2221,2.2509,2.3501,2.384,2.4045,2.5272,2.588,2.6219,2.6661,0.0,0.0,0.0,0.0,2.6052,2.6052,2.6429,2.6792,2.6792,2.6792,2.6792,2.6792,2.6447,2.6063,0.0,2.5663,2.5591,2.5729,0.0,0.0,2.3815,2.2625,2.1635,2.1155,1.9781,1.8784,1.861,1.7611,1.6742,1.6202,1.5578,1.4806,1.3836,1.3401,1.256,1.1167,1.0327,0.9523,0.8718,0.0,0.0,0.0,0.0,0.0,0.0,0.0,0.0,0.0,0.0,0.0,0.0,0.0,0.0,0.0,0.0,0.0,0.0,0.0,0.0,0.0,0.0,0.0,0.0,0.0,0.0,0.0,0.0,0.0,2.7401,2.7188,0.0,0.0,0.0,0.0,2.5648,2.5937,2.5982,2.5611,2.5564,2.5278,2.4679,2.4752,2.4525,2.3933,2.3977,2.3946,2.3828,2.3809,2.3693,2.3518,2.3499,2.3143,2.2531,2.2531,2.2163,2.1553,2.1211,2.1424,2.1942,2.1333,2.1877,2.2929,2.2313,2.2494,2.3063,2.3138,2.314,2.3365,2.4625,2.5811,2.6753,2.6779,2.6778,0.0,0.0,2.672,2.6749,2.6749,2.6778,2.6792,2.6792,2.6792,2.6792,2.6792,2.6779,2.658,0.0,2.5879,2.5784,2.5481,0.0,2.4895,2.4093,2.2746,2.1635,2.1155,1.9857,1.8944,1.88,1.7309,1.6559,1.7071,1.4976,1.3872,1.4512,1.3164,1.1984,1.113,1.0327,0.9523,0.8718,0.7902,0.0,0.0,0.0,0.0,0.0,0.0,0.0,0.0,0.0,0.0,0.0,0.0,0.0,0.0,0.0,0.0,0.0,0.0,0.0,0.0,0.0,0.0,0.0,0.0,0.0,0.0,0.0,0.0,2.7336,2.7021,0.0,2.662,2.651,2.6393,2.6246,2.6383,2.6405,2.6304,2.5935,2.5468,2.4911,2.4557,2.4272,2.4072,2.4095,2.4068,2.4037,2.4037,2.398,2.3922,2.3922,2.3747,2.3437,2.3437,2.2977,2.2224,2.2101,2.1896,2.1612,2.1234,2.1392,2.1846,2.2036,2.2252,2.2586,2.3442,2.4002,2.4525,2.577,2.646,2.6792,2.6792,2.6792,2.6792,2.6792,2.6792,2.6792,2.6792,2.6792,2.6792,2.6792,2.6792,2.6792,2.6792,2.6792,2.674,2.6514,2.6474,2.6366,2.6041,2.5301,2.4583,2.4079,2.2892,2.2006,2.1819,2.096,2.0123,1.9508,1.8529,1.7507,1.6516,1.518,1.425,1.3908,1.2897,1.2169,1.1873,1.1105,1.0295,0.9485,0.8675,0.7744,0.0,0.0,0.0,0.0,0.0,0.0,0.0,0.0,0.0,0.0,0.0,0.0,0.0,0.0,0.0,0.0,0.0,0.0,0.0,0.0,0.0,0.0,0.0,0.0,0.0,0.0,2.7324,2.7673,2.7379,2.7122,2.7106,2.6873,2.6778,2.6923,2.6929,2.6961,2.6993,2.643,2.5933,2.5577,2.4806,2.439,2.439,2.42,2.4098,2.4098,2.4098,2.4098,2.4098,2.4098,2.3936,2.3643,2.3863,2.3512,2.2786,2.2965,2.272,2.2168,2.1518,2.1412,2.1663,2.2101,2.2421,2.2768,2.3857,2.4595,2.5231,2.6245,2.6673,2.6792,2.6792,2.6792,2.6792,2.6792,2.6792,2.6792,2.6792,2.6792,2.6792,2.6792,2.6792,2.6792,2.6792,2.6792,2.6792,2.6792,2.6792,2.674,2.6511,2.5577,2.4768,2.4454,2.3369,2.2531,2.2448,2.1651,2.0885,2.029,1.9387,1.827,1.6966,1.5886,1.4877,1.3926,1.3135,1.2574,1.2305,1.1521,1.0844,1.0314,0.9244,0.7874,0.6202,0.0,0.0,0.0,0.0,0.0,0.0,0.0,0.0,0.0,0.0,0.0,0.0,0.0,0.0,0.0,0.0,0.0,0.0,0.0,0.0,0.0,0.0,0.0,2.7685,2.7853,2.8128,2.8458,2.8311,2.828,2.8479,2.8085,2.7753,2.7625,2.7612,2.76,2.7575,2.6995,2.6669,2.6669,2.5578,2.4977,2.5005,2.439,2.4098,2.4098,2.4098,2.4098,2.4098,2.4068,2.3706,2.3148,2.3793,2.369,2.3103,2.3658,2.3861,2.37,2.2233,2.2067,2.2634,2.2634,2.304,2.369,2.4292,2.4809,2.5315,2.5919,2.6418,2.6806,2.6806,2.6792,2.6792,2.6792,2.6792,2.6792,2.6792,2.6792,2.6792,2.6792,2.6792,2.6792,2.6819,2.6819,2.6819,2.6819,2.6819,2.6806,2.6792,2.6123,2.5508,2.5245,2.4124,0.0,2.2942,2.1874,2.1123,2.1092,1.9748,1.875,1.8533,1.6966,1.5613,1.4673,1.3908,1.3135,1.2342,1.1558,1.113,1.1093,0.9547,0.7931,0.6279,0.0,0.0,0.0,0.0,0.0,0.0,0.0,0.0,0.0,0.0,0.0,0.0,0.0,0.0,0.0,0.0,0.0,0.0,0.0,0.0,0.0,0.0,2.8776,2.8694,2.8458,2.8318,2.8424,2.8294,2.8207,2.828,2.8076,2.7893,2.7765,2.7753,2.7511,2.6984,2.6376,2.6055,2.6055,2.4949,2.4563,2.5005,2.439,2.4098,2.4098,2.4098,2.4098,2.4083,2.3603,2.328,2.3118,2.3295,2.2982,2.2424,2.3055,2.3025,2.2631,2.2932,2.317,2.3335,2.3335,2.3437,2.369,2.4292,2.4879,2.5439,2.6055,2.6551,2.6951,2.6951,2.6886,2.6792,2.6792,2.6792,2.6792,2.6792,2.6792,2.6792,2.6792,2.6792,2.6871,2.717,2.7235,2.7235,2.7235,2.7235,2.7144,2.6845,2.6123,2.5563,2.5495,2.4239,2.3269,2.3192,2.243,2.1694,2.1167,2.0291,1.9464,1.8784,1.7181,1.5816,1.4877,1.398,1.3135,1.2342,1.2095,1.1706,1.1111,1.0088,0.905,0.0,0.0,0.0,0.0,0.0,0.0,0.0,0.0,0.0,0.0,0.0,0.0,0.0,0.0,0.0,0.0,0.0,0.0,0.0,0.0,0.0,0.0,2.9113,2.8803,2.8803,2.8573,2.8411,2.8411,2.8335,2.8259,2.821,2.814,2.8029,2.7878,2.788,2.7678,2.719,2.6588,2.6229,2.6176,2.5076,2.4649,2.5005,2.439,2.4098,2.4098,2.4098,2.4098,2.4083,2.3704,2.3516,2.3516,2.3516,2.3307,2.295,2.3058,2.304,0.0,0.0,0.0,0.0,0.0,2.3982,2.4261,2.478,2.5315,2.5878,2.6418,2.6738,2.6925,2.6925,2.6859,2.6792,2.6792,2.6792,2.6792,2.6792,2.6792,2.6792,2.6792,2.6792,2.6858,2.7106,2.7157,2.7157,2.7157,2.7157,0.0,2.6832,2.6406,2.6055,2.5919,2.4966,2.4109,2.3642,2.3055,2.2381,2.1636,2.0944,2.0166,1.9294,1.8075,0.0,0.0,0.0,1.3546,1.236,1.2305,0.0,0.0,0.0,1.0013,0.9207,0.8404,0.0,0.0,0.5115,0.4868,0.0,0.0,0.0,0.0,0.0,0.0,0.0,0.0,0.0,0.0,0.0,0.0,0.0,0.0,0.0,0.0,2.8712,2.8411,2.8411,2.8411,2.8411,2.8411,2.8411,2.8348,2.8223,2.8223,2.8177,2.8029,2.8017,2.7967,2.7828,0.0,0.0,0.0,0.0,2.5019,2.5005,2.439,2.4098,2.4098,2.4098,2.4098,2.4098,2.4024,2.3995,2.3995,2.3995,2.3995,2.3938,2.3427,2.3558,2.4039,2.3456,2.3207,2.328,2.3879,2.4433,2.4963,2.537,0.0,0.0,2.6791,2.6897,2.6832,2.6819,2.6806,2.6792,2.6792,2.6792,2.6792,2.6792,2.6832,2.6871,2.6871,2.6897,2.6922,2.6922,2.6922,2.6909,2.6871,2.6871,2.6845,2.6806,2.6792,2.6699,2.6391,2.5933,2.5245,2.4267,2.3655,2.304,2.2355,0.0,0.0,1.9901,1.9112,1.8017,1.6437,1.5357,1.4052,1.25,1.236,1.1966,1.1242,1.1149,1.0694,0.9895,0.9093,0.8294,0.7464,0.5967,0.5234,0.0,0.0,0.0,0.0,0.0,0.0,0.0,0.0,0.0,0.0,0.0,0.0,0.0,0.0,0.0,2.9109,2.8712,2.8411,2.8411,2.8411,2.8411,2.8411,2.8411,2.8399,2.836,2.836,2.8311,2.8162,2.8162,2.81,2.7967,2.738,2.7006,2.6877,2.5755,2.5104,2.5005,2.439,2.4098,2.4098,0.0,0.0,2.4083,2.3531,2.3295,2.3295,2.3295,2.3295,2.3325,2.3749,2.3982,2.4083,2.3953,2.3909,2.3923,2.4054,2.4171,2.4346,2.4921,2.5467,2.5973,2.6444,2.6842,2.7091,2.6989,2.6899,0.0,2.6792,2.6792,2.6792,2.6792,2.7041,2.7286,2.7286,2.7496,2.7678,2.7678,2.7678,2.762,2.7335,2.7286,2.7183,2.6858,2.6792,2.6779,2.6699,2.6069,2.5453,2.5021,2.3993,2.3163,2.2802,2.1282,2.0226,2.0063,1.8734,1.7516,1.6602,1.4897,1.3727,1.3299,1.2647,1.2224,1.2058,1.1428,1.0694,0.9895,0.9093,0.8284,0.7499,0.7173,0.6649,0.0,0.0,0.0,0.0,0.0,0.0,0.0,0.0,0.0,0.0,0.0,3.0248,0.0,0.0,2.902,2.8779,2.8549,2.8411,2.8411,2.8411,2.8411,2.8411,2.8411,2.8411,2.8411,2.8411,2.836,2.8311,2.8299,2.825,2.8115,2.7532,2.7017,2.6615,2.5755,2.5133,2.4792,2.4505,2.4346,2.4346,2.4346,2.4346,2.4345,2.3899,2.3697,2.3695,2.3619,2.3603,2.3632,2.3953,2.3894,2.3632,2.3967,2.4098,2.4098,2.4098,2.4449,2.4978,2.5217,2.5879,2.6629,2.6801,2.7011,2.7168,2.7042,2.6951,2.6938,2.7054,2.7106,2.713,2.7306,2.7494,2.7645,2.7645,2.778,2.7898,2.7898,2.7898,2.7805,2.7463,2.7401,2.7273,2.6871,2.6792,2.6792,2.6792,2.6325,2.5769,2.5259,2.4296,2.3314,2.2433,2.1302,2.0323,1.9606,1.8502,1.7449,1.6507,1.5534,1.4547,1.3535,1.3116,1.2721,1.2305,1.191,1.1496,1.1099,1.0295,0.9698,0.9296,0.8898,0.8042,0.0,0.0,0.0,0.0,0.0,0.0,0.0,0.0,3.2004,3.149,3.0751,3.0051,2.9582,2.9221,2.8838,2.8456,2.8411,2.8411,2.8411,2.8411,2.8411,2.8411,2.8411,2.8411,2.8411,2.8411,2.8411,2.8411,2.8411,2.8348,2.8235,2.7668,2.7029,2.635,2.5742,2.5161,2.462,2.4606,2.4606,2.4606,2.4606,2.4606,2.4578,2.4435,2.435,2.435,2.4245,2.42,2.42,2.42,2.3881,2.3458,2.3997,2.423,2.4317,2.4274,2.4921,2.5796,2.581,2.6457,2.7258,2.7246,2.7246,2.7207,2.708,2.7042,2.7081,2.7312,2.7401,2.7499,2.7768,2.7926,2.8024,2.8024,2.8085,2.811,2.8021,2.8024,2.7901,2.7547,2.7499,2.7374,2.6989,2.6923,2.6884,2.6806,2.6511,2.6028,2.5287,2.4497,2.3479,2.2163,2.1349,2.0339,1.8938,1.832,1.751,1.6376,1.6158,1.5313,1.3571,1.3353,1.2952,1.2316,1.215,1.2058,1.2058,1.1254,1.0863,1.0844,1.0196,0.9197,3.4446,3.4319,3.4134,3.4005,3.3827,3.3441,0.0,0.0,3.1951,3.0844,3.0203,2.9711,2.9241,2.8779,2.8456,2.8411,2.8411,2.8411,2.8411,2.8411,2.8411,2.8411,2.8411,2.8411,2.8411,2.8411,2.8411,2.8411,2.8411,2.8399,2.8372,2.7808,2.7172,2.6497,2.5878,2.5259,2.462,2.4606,2.4606,2.4606,2.4606,2.4606,2.4606,2.4577,2.4577,2.4577,2.4548,2.4534,2.4534,2.4534,2.4505,2.4434,2.4519,2.4765,2.5063,2.4935,2.5272,2.5864,2.6404,2.6669,2.6841,2.7246,2.7389,2.735,2.722,2.7181,2.7181,2.7207,2.7384,2.7587,2.7623,2.803,2.8427,2.8427,2.8705,2.8873,2.8499,2.8427,2.8319,2.7913,2.7839,2.773,2.7386,2.7337,2.7209,2.6845,2.6511,2.6028,2.5287,2.4497,2.3682,2.2854,2.125,1.9639,1.8236,1.8042,1.751,1.6376,1.5702,1.4772,1.3553,1.2813,1.239,1.2305,1.1595,1.1223,1.1223,1.0421,1.0027,1.0027,0.9951,0.9801,3.4626,3.4456,3.4245,0.0,3.3766,3.343,3.2838,3.229,3.1682,3.094,3.0048,2.9325,2.9147,2.8724,2.8411,0.0,2.8411,2.8411,2.8411,2.8411,2.8411,2.8411,2.8411,2.8411,2.8411,2.8411,2.8411,2.8411,2.8411,2.8411,2.8411,2.753,2.6914,2.6627,2.5728,2.5118,2.4835,2.4821,2.4821,2.4821,2.4821,2.4821,2.4821,2.475,2.4677,2.4606,2.4606,2.4606,2.4606,2.4606,2.4606,2.4632,2.495,2.5608,2.6329,2.5438,2.5632,2.635,2.6603,2.6917,2.7255,2.7448,2.7526,2.7537,2.7685,2.772,2.782,2.8243,2.8448,2.8591,2.8814,2.907,2.9269,2.9269,2.9398,2.9465,2.9291,2.9269,2.9093,2.8567,2.8472,2.8247,2.7526,2.7401,2.726,2.6858,2.6511,2.6028,2.5287,2.4497,2.3301,2.1475,2.0182,1.9071,1.8076,1.7991,1.7759,1.7148,1.675,1.5869,1.4376,1.389,1.3219,1.2316,1.1966,1.1799,1.1799,1.1453,1.1304,1.1304,1.1304,1.1304,3.4647,3.4456,0.0,3.3966,3.3712,3.3423,3.3086,3.2383,3.17,3.1282,3.0185,2.9291,2.9291,2.8807,2.8411,2.8411,2.8411,2.8411,2.8411,2.8411,2.8411,2.8411,2.8411,2.8411,2.8411,2.8247,2.8223,2.8399,2.8113,2.7999,2.8134,2.7223,2.6625,2.6481,2.5674,2.5174,2.5005,2.5005,2.5005,2.5005,2.5005,2.51,2.5263,2.531,2.529,2.5203,2.5203,2.5203,2.5203,2.5203,2.5203,2.5258,2.5836,2.6687,2.7509,2.6679,2.6879,2.7551,2.7551,2.7828,2.8154,2.8154,2.8254,2.8415,2.8663,2.8849,2.9066,2.9604,2.9802,2.9929,3.0219,3.0348,3.0404,3.0404,3.0404,3.0404,3.0404,3.0404,3.028,2.9834,2.9698,2.9374,2.8543,2.8229,2.796,2.7582,2.7048,2.6321,2.5328,2.4323,2.2837,2.0602,1.9737,1.9011,1.8337,1.811,1.7828,1.7423,1.7321,1.6551,1.4974,1.4752,1.4135,1.297,1.2732,1.2739,1.2927,1.2739,1.2732,1.2927,1.2927,1.2927,3.4647,3.4456,3.4239,3.3966,3.3753,3.3488,3.3083,3.2685,3.2239,3.1778,3.068,2.9772,2.9772,2.9025,2.8411,2.8411,2.8411,2.8411,2.8411,2.8411,2.8411,2.8411,2.8411,2.8411,0.0,2.787,2.777,2.836,2.7378,2.6977,2.7502,2.7003,2.6455,2.5948,2.5893,2.5591,2.5005,2.5005,2.5005,2.5005,2.5005,2.5317,2.5888,2.6469,2.6738,2.6738,2.6738,2.6738,2.6738,2.6738,2.6738,2.6799,2.7471,2.7996,2.8438,2.905,2.9461,2.9704,2.9704,2.9639,2.9533,2.9533,2.9889,3.0325,3.0338,3.0688,3.1098,3.1123,3.1337,3.153,3.153,3.1741,3.1934,3.1934,3.1934,3.1934,3.1934,3.1934,3.1934,3.191,3.1698,3.1381,3.0954,3.0294,2.9711,2.9368,2.836,2.7066,2.5411,2.3872,2.2457,2.1203,2.0468,1.977,1.9027,1.8361,1.7613,1.6688,1.6636,1.6114,1.4956,1.4885,1.477,1.453,1.3836,1.3818,1.453,1.3818,1.3836,1.453,1.453,1.453,3.4646,3.4483,3.4343,3.3922,3.3753,3.3566,3.3167,3.2716,3.2274,3.1796,3.0931,3.0267,3.0267,2.9506,2.8861,2.8861,2.8609,2.8411,2.8411,2.8411,2.8411,2.8411,2.8481,0.0,0.0,0.0,0.0,2.8372,2.767,2.7477,2.8073,2.721,2.6803,2.7021,2.6636,2.6355,2.6198,2.6198,2.6302,2.6524,2.6524,2.6751,2.7149,2.691,2.6915,2.7127,2.69,2.6793,2.6838,2.7276,2.7455,2.757,2.8597,2.9347,2.9944,3.0558,3.1047,3.1246,3.0161,2.9765,2.9778,3.004,3.0245,3.0525,3.1242,3.1586,3.1801,3.2113,3.2267,3.2325,3.2325,3.2562,3.279,3.279,3.279,3.279,3.279,3.2618,3.238,3.205,3.1925,3.1618,3.0873,3.0268,2.9676,2.9029,2.7808,2.6428,2.4934,2.3816,2.2634,2.125,2.05,1.9802,1.9061,1.8378,1.7872,1.7552,1.7406,1.694,1.6062,1.5895,1.549,1.4806,1.4555,1.4484,1.4601,1.435,1.435,1.4601,1.4601,1.4601,3.4608,3.4448,3.4302,3.3908,3.3773,3.3652,3.3383,3.2868,3.2342,3.203,3.1177,3.0508,3.0508,2.9733,2.9097,2.9097,2.8712,2.8411,2.8411,2.8432,2.8561,2.8808,2.8799,2.8888,0.0,0.0,0.0,2.8769,2.8356,2.8205,2.8458,2.7933,2.759,2.7498,2.7414,2.7298,2.7157,2.7171,2.7276,2.747,2.7693,2.791,2.8101,2.7904,2.791,2.8124,2.8078,2.8018,2.8003,2.8589,2.881,2.8868,2.9871,3.0537,3.0996,3.1601,3.2021,3.2124,3.1021,3.0582,3.0598,3.1034,3.128,3.1578,3.2478,3.288,3.3093,3.3406,3.356,3.3662,3.3662,3.3812,3.4021,3.4134,3.4053,3.3994,3.4134,3.3878,3.3509,3.314,3.2896,3.2485,3.1609,3.0872,3.0092,2.9157,2.8054,2.6742,2.5129,2.3931,2.2725,2.1424,2.0581,1.9835,1.915,1.8428,1.7991,1.7991,1.7879,1.7569,1.7026,1.688,1.6498,1.5842,1.5471,1.5375,1.5525,1.5197,1.5162,1.5428,1.5428,1.5428,3.4556,3.4343,3.4136,3.3862,3.3807,3.3787,3.3698,3.3083,3.2492,3.2384,3.1409,3.0559,0.0,0.0,2.912,2.9097,2.8692,2.8394,2.8421,2.8558,2.8917,0.0,0.0,0.0,0.0,0.0,0.0,2.9528,0.0,2.9093,2.8735,2.9109,2.8763,2.7513,2.8269,2.844,2.7935,2.7921,2.7921,2.792,2.8498,2.878,2.8823,2.9352,2.9618,2.968,3.0116,3.0194,3.0087,3.0555,3.0674,3.0629,3.1291,3.1551,3.1609,3.2203,3.2398,3.2398,3.2288,3.2052,3.1898,3.2451,3.2895,3.3316,3.3942,3.4497,3.4911,3.4923,3.5148,3.5413,3.5424,3.5447,3.5532,3.587,3.5639,3.5469,3.5859,3.5605,3.524,3.5038,3.4488,3.3803,3.3095,3.2047,3.0924,2.9828,2.9035,2.787,2.5977,2.4244,2.2784,2.1741,2.0736,1.9901,1.9332,1.8496,1.8008,1.7991,1.7991,1.7913,1.7723,1.7723,1.7647,1.7505,1.6577,1.6464,1.7201,1.6307,1.6228,1.6926,1.6908,1.6908,3.4396,3.4233,3.4136,3.3862,3.3807,3.3714,3.3408,3.3131,3.2755,3.2092,3.1642,3.1309,0.0,0.0,0.0,2.9032,2.8636,0.0,2.8677,2.91,0.0,3.041,0.0,3.0078,3.033,3.0898,0.0,0.0,3.0154,2.9928,3.0221,2.997,2.9875,2.9983,2.9859,2.9754,2.966,2.9567,2.952,2.952,2.9661,2.9869,3.0096,2.9765,2.9929,3.0478,3.0359,3.0436,3.0704,3.1217,3.1421,3.145,3.1978,3.216,3.2203,3.2342,3.2398,3.2451,3.2815,3.2506,3.2095,3.2911,3.3201,3.3394,3.4378,3.4787,3.4958,3.5195,3.5333,3.5453,3.5716,3.5996,3.6244,3.6339,3.6265,3.6212,3.6311,3.5838,3.5298,3.5045,3.407,3.3121,3.2569,3.1822,3.1087,3.0439,2.896,2.7537,2.644,2.5072,2.3656,2.2204,2.1101,2.009,1.916,1.8546,1.8151,1.8008,1.7991,1.7974,1.793,1.7923,1.7845,1.7647,1.7398,1.7321,1.7409,1.7028,1.6942,1.7115,1.6968,1.6908,3.4262,3.4117,3.3985,3.3847,3.3807,3.3734,3.3515,3.3146,3.2707,3.2204,3.176,0.0,3.1239,3.0727,0.0,0.0,0.0,0.0,2.9656,3.0014,3.0536,0.0,3.1076,0.0,3.1523,3.184,3.2059,0.0,3.1701,3.1402,3.1281,3.1188,3.1126,3.1119,3.084,3.0602,3.0419,3.0357,3.0325,3.0325,3.0325,3.0416,3.0583,3.0417,3.0583,3.1029,0.0,3.1405,3.1592,3.2033,3.216,3.2118,3.2313,3.2398,3.2398,3.2398,3.2547,3.2788,3.3093,3.3013,3.2909,3.3646,3.3771,3.3805,3.4638,3.4899,3.4965,3.531,3.5509,3.5705,3.6082,3.6332,3.6544,3.667,3.6557,3.6464,3.667,3.6237,3.5644,3.5103,3.4137,3.3229,3.2689,3.1991,3.135,3.0955,2.9269,2.7897,2.7433,2.5532,2.3651,2.2218,2.1201,2.0117,1.8888,1.8479,1.8202,1.8008,1.7991,1.7991,1.7991,1.7991,1.7957,1.7828,1.775,1.7664,1.7588,1.7417,1.7296,1.7201,1.7089,1.6986,3.4161,3.3979,3.3807,3.3807,3.3807,3.3807,3.3793,3.3248,3.271,3.2652,0.0,3.1527,3.1408,3.1235,3.1083,3.0941,0.0,3.0801,3.0852,3.1016,3.1415,3.2162,3.195,3.2115,3.3111,3.2848,3.2765,3.3187,3.3253,3.2942,3.2128,3.2477,3.2325,3.1492,3.1407,3.1131,3.0598,3.0598,3.0628,3.0687,3.0642,3.0657,3.0777,3.1131,3.1365,3.1509,3.2272,3.2561,3.2508,3.2786,3.2773,3.2578,3.2453,3.2398,3.2398,3.2398,3.2749,3.3211,3.3274,3.3585,3.4003,3.4407,3.4378,3.4284,3.4787,3.4911,3.4965,3.531,3.5638,3.5983,3.6402,3.6534,3.6647,3.6938,3.67,3.6499,3.6911,3.666,3.6071,3.5219,3.4451,3.3759,3.3195,3.2322,3.1622,3.1394,2.9813,2.862,2.8508,2.5845,2.3449,2.2131,2.1232,2.0134,1.8633,1.8371,1.8228,1.8042,1.8008,1.7991,1.7991,1.7991,1.7991,1.7991,1.7828,1.775,1.775,1.7588,1.7434,1.727,1.7218,1.7107,3.3927,3.3847,3.3807,3.3807,3.3807,3.3793,3.3732,3.3813,0.0,0.0,3.3428,3.3287,3.25,3.2018,3.1493,3.0697,0.0,0.0,0.0,0.0,3.2207,0.0,0.0,0.0,3.2695,3.2656,0.0,0.0,3.3078,3.3227,3.3065,3.3118,3.2753,3.1836,3.1808,3.1407,3.0598,3.0598,3.0792,3.1175,3.0791,3.097,3.1666,3.1408,3.1695,3.2381,3.2518,0.0,3.2976,3.2924,3.2773,3.2578,3.2453,3.2398,3.2398,3.2398,3.2749,3.3261,3.3704,3.4194,3.4625,3.465,3.4452,3.4309,3.4883,3.4982,3.4965,3.531,3.5638,3.5983,3.6402,3.6718,3.6938,3.6987,3.6948,3.6901,3.697,3.671,3.6244,3.5476,3.4743,3.4112,3.3735,3.2565,3.1679,3.1637,3.0465,2.9314,2.8588,2.6612,2.4533,2.2609,2.1853,2.0693,1.8671,1.8371,1.8286,1.8252,1.8093,1.7991,1.7991,1.7991,1.7991,1.7991,1.7974,1.7957,1.7957,1.7759,1.7647,1.7604,1.7339,1.7184,3.3822,3.3807,3.3899,3.4314,3.4417,3.4513,3.4865,0.0,0.0,0.0,3.3887,3.3456,3.2741,0.0,0.0,3.1549,0.0,0.0,0.0,0.0,0.0,0.0,0.0,0.0,0.0,3.2956,3.2956,3.2956,3.3174,3.3309,3.3309,3.3309,3.2985,3.2299,3.2034,3.1595,3.097,3.0955,3.1073,3.1292,3.1277,3.1494,3.1908,3.195,3.2202,3.2615,3.278,3.2947,3.3069,3.2841,3.2689,3.2578,3.2453,3.2398,3.2398,3.2398,3.2924,3.3652,3.3907,3.4529,3.5213,3.5171,3.5031,3.4902,3.5053,3.5069,3.5065,3.5321,3.5638,3.5983,3.6402,3.6758,3.7007,3.7007,3.7007,3.7007,3.7007,3.6861,3.653,3.5804,3.5369,3.4926,3.4284,3.3074,3.2169,3.2031,3.0689,2.9406,2.8588,2.7387,2.5808,2.3802,2.2862,2.1783,2.0296,1.9496,1.9004,1.8838,1.8405,1.811,1.7991,1.7991,1.7991,1.7991,1.7991,1.7991,1.7991,1.7896,1.7903,1.8005,1.7554,1.7668,3.4002,3.4057,3.4241,3.5078,3.5265,3.5384,3.5959,3.5524,0.0,0.0,3.4369,3.3702,3.3172,0.0,3.3129,0.0,3.2796,3.3002,0.0,0.0,0.0,0.0,0.0,0.0,3.3309,3.3309,0.0,3.3309,3.3309,3.3309,3.3309,3.3309,3.3078,3.2614,3.2228,3.1851,3.1437,3.1437,3.1481,3.1581,3.1794,3.2006,3.2216,3.2492,3.2643,3.2726,3.3014,3.3083,3.2976,3.2757,3.2621,3.2551,3.2439,3.2398,3.2396,3.2533,3.3174,3.4023,3.4136,3.4793,3.56,3.56,3.5549,3.5457,3.5222,3.5128,3.5123,3.5269,3.5582,3.5972,3.629,3.669,3.7007,3.7007,3.7007,3.7007,3.7007,3.693,3.6693,3.6026,3.5842,3.5498,3.4566,3.3498,3.2646,3.2308,3.0925,2.9593,2.8682,2.8114,2.7069,2.5203,2.3966,2.2851,2.1788,2.0572,1.9712,1.9326,1.863,1.8151,1.8008,1.7991,1.7991,1.7991,1.8134,1.8202,1.8202,1.8296,1.8471,1.8721,1.8169,1.8463,3.4692,3.4894,3.5096,3.5954,3.6087,3.5996,3.6013,0.0,0.0,3.5618,3.5504,3.5234,3.4705,3.4223,0.0,0.0,0.0,3.2703,0.0,0.0,0.0,0.0,0.0,0.0,3.3309,3.3309,0.0,3.3309,3.3309,3.3309,3.3309,3.3309,3.3078,3.2614,3.2559,3.2312,3.1851,3.1851,3.2062,3.2492,3.209,3.2356,3.316,3.2765,3.2767,3.3069,3.3216,3.304,0.0,3.2816,3.2689,3.2425,3.2398,3.2398,3.2451,3.2949,3.3498,3.4073,3.4565,3.512,3.56,3.56,3.5549,3.5469,3.5343,3.5198,3.5076,3.4982,3.5419,3.5918,3.595,3.6464,3.7007,3.7007,3.7007,3.7007,3.7007,3.6768,3.6423,3.5983,3.5649,3.5166,3.4284,3.3491,3.2772,3.2199,3.1466,3.0432,2.8964,2.8709,2.8081,2.6497,2.5047,2.3514,2.184,2.0701,1.9851,1.933,1.8496,1.8025,1.7991,1.7991,1.7991,1.7991,1.8603,1.8911,1.8911,1.9264,1.9684,2.0109,1.9562,1.9589,3.4912,3.5371,3.5984,3.6806,3.6923,3.6871,3.7049,0.0,3.6427,3.6117,3.5822,3.5436,3.4904,3.4625,3.4235,0.0,0.0,0.0,3.2744,0.0,0.0,0.0,0.0,0.0,0.0,0.0,3.3309,3.3309,3.3309,3.3309,3.3309,3.3309,3.3214,3.3038,3.2751,3.252,3.2312,3.2312,3.2424,3.26,3.2699,3.2931,3.3295,3.3105,3.3054,3.3096,3.315,3.296,0.0,3.2689,3.2578,3.2398,3.2398,3.2398,3.2465,3.3,3.355,3.4086,3.4613,3.5155,3.56,3.56,3.5577,3.5526,3.5349,3.5256,3.5175,3.4958,3.5241,3.5649,3.5853,3.6444,3.7007,3.7007,3.7007,3.7007,3.7007,3.6898,3.6612,3.6015,3.5787,3.5459,3.4699,3.3694,3.292,3.2678,3.1752,3.0538,2.8996,2.8803,2.8222,2.6658,2.5654,2.4618,2.3486,2.1963,2.0708,1.9876,1.8805,1.8127,1.8008,1.7991,1.7991,1.7991,1.8654,1.9162,1.9482,2.0082,2.0616,2.1064,2.0533,2.0709,3.5665,3.6193,3.6835,3.7602,3.7614,3.7499,0.0,0.0,3.6699,3.6374,3.593,3.5481,3.512,3.4916,3.4553,3.3802,0.0,3.3452,3.3073,3.3038,0.0,0.0,0.0,3.3083,0.0,3.3282,3.3309,3.3309,3.3309,3.3309,3.3309,3.3309,3.3309,3.3309,3.2985,3.2821,3.2821,3.2821,3.2821,3.2821,3.3131,3.3309,3.3309,3.3309,3.3229,3.3096,3.3136,3.2947,0.0,3.2662,3.2564,3.2398,3.2398,3.2506,3.2709,3.3237,3.378,3.4321,3.484,3.5282,3.56,3.56,3.56,3.5588,3.5543,3.5549,3.5475,3.5218,3.5298,3.5571,3.6028,3.6519,3.6928,3.6987,3.7046,3.7076,3.6999,3.696,3.6764,3.6192,3.5902,3.5543,3.492,3.3986,3.3214,3.2868,3.202,3.0777,2.9077,2.8821,2.8222,2.6658,2.6118,2.5568,2.482,2.3093,2.1666,2.073,1.9243,1.8331,1.8176,1.8406,1.8526,1.8526,1.9561,2.0289,2.0672,2.1279,2.1766,2.2118,2.164,2.1815,3.7254,3.7474,3.7654,3.8313,3.814,3.7779,0.0,0.0,3.6312,3.6295,3.5933,3.56,3.56,3.5166,3.4809,3.4797,3.4346,0.0,3.3998,3.3643,0.0,0.0,0.0,3.2951,3.3099,3.3216,3.3309,3.3309,3.3309,0.0,3.3309,3.3309,3.3309,3.3309,3.3295,3.3295,3.3295,3.3295,3.3295,3.3295,3.3309,3.3309,3.3309,3.3309,3.3229,3.3112,3.3243,3.3027,0.0,3.2816,3.2689,3.2398,3.2398,3.272,3.3264,3.3793,3.4333,3.4868,3.5413,3.56,3.56,3.56,3.56,3.565,3.5996,3.6086,3.6043,3.577,3.5649,3.5767,3.6499,3.6702,3.6745,3.6948,3.7153,3.7239,3.7046,3.6901,3.6743,3.6527,3.5904,3.5219,3.47,3.4325,3.3716,3.2574,3.223,3.1333,2.9256,2.8887,2.8222,2.6658,2.6487,2.6192,2.5461,2.385,2.2573,2.1833,1.9773,1.8598,1.8598,1.9354,1.9775,1.9775,2.1681,2.265,2.2667,2.3023,2.3252,2.3361,2.3049,2.2931,3.7437,3.7907,3.8354,3.8478,3.8148,3.7701,3.7307,0.0,3.6215,3.589,3.57,3.56,3.56,3.5458,3.5224,3.4868,3.4358,0.0,0.0,0.0,0.0,0.0,3.3346,3.3189,0.0,0.0,3.3309,3.3309,3.3309,3.3309,3.3309,3.3309,3.3309,3.3309,3.3309,3.3309,3.3309,3.3309,3.3309,3.3309,3.3309,3.3309,3.3309,3.3309,3.3229,3.3112,3.3243,3.3027,3.2621,3.2829,3.2689,3.2439,3.2801,3.3053,3.33,3.4219,3.4649,3.488,3.5413,3.56,3.56,3.56,3.56,3.5689,3.612,3.6178,3.6111,3.6218,3.6194,3.6203,3.643,3.6655,3.6856,3.6925,3.7118,3.7278,3.722,3.7058,3.6764,3.6192,3.5902,3.5532,3.4909,3.4407,3.3844,3.3068,3.2586,3.1721,3.0103,2.972,2.9032,2.7484,2.7246,2.668,2.5437,2.4427,2.3253,2.1829,2.0698,2.0034,1.9892,2.014,2.0534,2.109,2.2156,2.2868,2.3248,2.3823,2.4037,2.3941,2.3266,2.2988,0.0,3.8218,3.852,3.8261,3.7849,0.0,0.0,0.0,3.5949,3.5661,3.56,3.56,3.56,3.56,3.5424,3.4892,3.4516,3.4235,0.0,0.0,0.0,0.0,0.0,0.0,0.0,3.3243,3.3282,3.3229,3.3282,3.3309,3.3309,3.3309,3.3282,3.3229,3.3282,3.3309,3.3309,3.3309,3.3309,3.3309,3.3309,3.3309,3.3309,3.3309,3.3256,3.3176,3.3253,3.3083,0.0,3.2856,3.2689,3.2424,3.2776,3.3135,3.354,3.4231,3.4738,3.5113,3.5487,3.56,3.56,3.56,3.5723,3.5915,3.6216,3.6308,3.6367,3.6578,3.6481,3.6287,3.6262,3.6516,3.6808,3.688,3.7215,3.7503,3.7428,3.7212,3.6883,3.6333,3.595,3.5571,3.516,3.4546,3.3908,3.329,3.2734,3.1892,3.048,3.0193,2.9489,2.7871,2.762,2.7069,2.5856,2.5027,2.4097,2.3012,2.2015,2.1417,2.1293,2.1506,2.1877,2.2378,2.3237,2.385,2.4184,2.4483,2.4466,2.4171,2.353,2.315,0.0,3.8442,0.0,0.0,0.0,0.0,0.0,0.0,0.0,0.0,0.0,3.56,3.56,3.56,3.5424,3.4892,3.4773,3.4565,0.0,3.355,0.0,0.0,3.2773,0.0,3.2897,3.3123,3.3229,3.3112,3.3216,3.3295,3.3295,3.3295,3.3229,3.3096,3.3216,3.3295,3.3295,3.3295,3.3295,3.3309,3.3309,3.3309,3.3309,3.3309,3.3309,0.0,3.3295,3.3136,3.2897,3.287,3.2689,3.2398,3.2424,3.3033,3.3911,3.4014,3.4658,3.5514,3.5583,3.56,3.56,3.56,3.5893,3.6259,3.629,3.6508,3.6776,3.688,3.6539,3.6146,3.6034,3.6301,3.6625,3.6801,3.7338,3.7766,3.7567,3.7271,3.6974,3.6766,3.6028,3.5402,3.5333,3.4634,3.3879,3.3237,3.2722,3.1906,3.0569,3.0374,2.9705,2.7986,2.7786,2.7434,2.6572,2.5646,2.5075,2.4987,2.3595,2.2764,2.2729,2.3272,2.3571,2.3636,2.4731,2.5312,2.5312,2.4957,2.461,2.4236,2.3806,2.339,3.8324,0.0,3.836,3.8196,3.7561,3.6958,0.0,0.0,0.0,0.0,0.0,0.0,0.0,0.0,3.5424,3.4892,3.4456,3.4132,3.4023,0.0,0.0,0.0,3.2773,3.2897,3.2897,3.3058,3.3123,3.3096,3.3123,3.315,3.315,3.315,3.3123,3.3096,3.3123,3.315,3.315,3.315,3.3203,3.3309,3.3309,3.3309,3.3309,3.3309,3.3309,3.3295,3.3189,3.3058,3.2883,3.2732,3.2551,3.2424,3.2749,3.3282,3.3962,3.4317,3.4892,3.5514,3.5583,3.56,3.56,3.56,3.5661,3.5827,3.6195,3.6771,3.7247,3.6978,3.6811,3.6631,3.6305,3.6301,3.6367,3.643,3.6676,3.6885,3.6853,3.6645,3.6406,3.6088,3.5778,3.5316,3.4601,3.4267,3.3768,3.2736,3.2479,3.2104,3.1321,3.1117,3.045,2.886,2.8586,2.798,2.6624,2.628,2.5821,2.504,2.4655,2.43,2.4002,2.4109,2.4406,2.4873,2.5163,2.5312,2.5312,2.4957,2.4754,2.4646,2.3934,2.3556,3.7925,3.8121,3.82,3.777,3.7302,3.6841,0.0,0.0,0.0,0.0,0.0,0.0,0.0,0.0,0.0,0.0,3.4144,0.0,0.0,0.0,0.0,3.302,3.3049,3.3025,0.0,3.291,3.2978,3.2881,3.2964,3.3005,3.3005,3.3072,3.3029,3.2881,3.2964,3.3072,3.3189,3.3123,3.3163,3.3309,3.3309,3.3309,3.3309,3.3309,3.3269,3.3203,3.3123,3.2962,3.2746,3.2635,3.2482,3.2328,3.2629,3.3111,3.3726,3.4169,3.4773,3.5434,3.556,3.56,3.56,3.56,3.56,3.5656,3.5904,3.6433,3.69,3.6688,3.6618,3.6516,3.6082,3.6142,3.6301,3.6301,3.6523,3.6739,3.6739,3.6471,3.6135,3.5887,3.5583,3.52,3.4622,3.4065,3.3478,3.2855,3.2313,3.1867,3.1539,3.1438,3.0777,2.9176,2.8937,2.8244,2.6641,2.6499,2.628,2.5716,2.5594,2.5453,2.5229,2.5052,2.507,2.5312,2.5312,2.5312,2.5312,2.5111,2.4957,2.4801,2.4345,2.4043,3.7431,3.7696,3.7819,3.7087,3.6859,3.6616,0.0,0.0,0.0,0.0,0.0,0.0,0.0,0.0,0.0,0.0,0.0,0.0,0.0,0.0,3.363,3.3295,3.3256,0.0,3.2619,3.2746,3.2773,3.2621,3.2759,3.2856,3.2856,3.2962,3.2879,3.2621,3.2773,3.2991,3.3269,3.3152,3.315,3.3309,3.3309,3.3309,3.3309,3.3282,3.3203,3.3096,0.0,0.0,3.2607,3.2566,3.2399,3.2205,3.2288,3.2711,3.3335,3.3783,3.446,3.5205,3.5498,3.56,3.56,3.56,3.56,3.56,3.56,3.5882,3.6195,3.6195,3.6248,3.6195,3.5717,3.5893,3.6195,3.6195,3.6454,3.6701,3.6701,3.6333,3.5989,3.5875,3.547,3.5065,3.4859,3.3923,3.3169,3.3093,3.2188,3.1511,3.1511,3.1511,3.0851,2.9176,2.9002,2.8314,2.6641,2.6499,2.6499,2.6499,2.6339,2.6218,2.6213,2.5811,2.5518,2.5347,2.5312,2.5312,2.5312,2.5312,2.5147,2.4879,2.4825,2.4628,3.7079,3.7029,3.7061,3.6926,3.6651,3.6358,0.0,0.0,0.0,0.0,0.0,0.0,0.0,0.0,0.0,0.0,0.0,0.0,0.0,0.0,3.2629,3.2561,0.0,3.252,3.2439,3.2551,3.2635,3.2607,3.2635,3.2648,3.2648,3.2676,3.2648,3.2607,3.2635,3.2798,3.3123,3.3005,3.3058,3.3309,3.3309,3.3309,3.3295,3.3176,3.311,3.3069,0.0,3.2648,3.2578,3.2373,3.2233,3.2177,3.1968,3.2233,3.2803,3.343,3.4028,3.4642,3.5356,3.56,3.56,3.56,3.56,3.56,3.56,3.5656,3.5711,3.5711,3.5991,3.6195,3.5717,3.5656,3.5711,3.5711,3.575,3.5805,3.5805,3.5739,3.5661,3.565,3.5447,3.51,3.4569,3.378,3.3053,3.2586,3.1938,3.1511,3.1511,3.1511,3.0851,2.9176,2.9002,2.8314,2.6641,2.6499,2.6499,2.6499,2.6465,2.6379,2.6213,2.5811,2.5588,2.5553,2.5382,2.5312,2.5312,2.5312,2.5276,2.5223,2.4921,2.4772,3.6629,3.6397,3.6191,3.6206,3.6245,0.0,0.0,0.0,0.0,0.0,0.0,0.0,0.0,0.0,0.0,0.0,0.0,3.3446,3.2909,3.3082,3.3161,0.0,0.0,3.2722,3.2439,3.2453,3.2496,3.2496,3.2496,3.2496,3.2496,3.2551,3.2564,3.2496,3.2551,3.2716,3.2991,3.2924,3.3032,3.3309,3.3309,3.3309,3.3295,3.3163,3.3072,3.2978,0.0,3.2509,3.2372,3.2247,3.2108,3.1982,3.1941,3.2191,3.2695,3.3462,3.3935,3.4284,3.4939,3.5166,3.5213,3.5521,3.56,3.56,3.56,3.56,3.56,3.56,3.5767,3.5871,3.5656,3.56,3.56,3.56,3.56,3.56,3.56,3.56,3.5588,3.5549,3.5418,3.5182,3.4842,3.3894,3.3119,3.2868,3.2062,3.1511,3.1511,3.1117,3.0374,2.9129,2.8572,2.7819,2.6607,2.6499,2.6499,2.6499,2.6499,2.6413,2.6213,2.6015,2.5811,2.5606,2.5518,2.54,2.5312,2.5312,2.5312,2.5312,2.5147,2.507,3.6163,3.5871,3.56,3.56,0.0,0.0,0.0,0.0,0.0,0.0,0.0,0.0,0.0,0.0,0.0,0.0,0.0,3.3627,3.3079,3.3368,3.3472,3.3053,3.3013,3.2855,3.2437,3.2398,3.2398,3.2398,3.2398,3.2398,3.2398,3.2509,3.2509,3.2398,3.2509,3.2662,3.2897,3.2897,3.3032,3.3309,3.3309,3.3309,3.3295,3.3123,3.3005,3.2883,3.2648,3.2413,3.2191,3.2178,3.2011,3.1814,3.1855,3.2191,3.2682,3.3416,3.3799,3.4032,3.4601,3.4793,3.4892,3.5424,3.56,3.56,3.56,3.56,3.56,3.56,3.56,3.56,3.56,3.56,3.56,3.56,3.56,3.56,3.56,3.56,3.5577,3.5532,3.5395,3.5268,3.5158,3.4061,3.3195,3.3195,3.2228,3.1511,3.1511,3.0807,2.9965,2.9097,2.823,2.7367,2.6572,2.6499,2.6499,2.6499,2.6499,2.643,2.6287,2.6218,2.6032,2.5688,2.5623,2.55,2.5312,2.5312,2.5312,2.5312,2.5312,2.5312,3.5778,3.5633,3.56,3.56,0.0,0.0,0.0,0.0,0.0,0.0,0.0,0.0,0.0,0.0,0.0,0.0,3.3537,3.3066,3.2533,0.0,3.2506,3.2451,3.2451,3.2437,3.2396,3.2398,3.2398,3.2398,3.2398,3.2398,3.2398,3.2411,3.2411,3.2398,3.2411,3.2564,3.2897,3.2897,3.3032,3.3309,3.3309,3.3309,3.3295,3.3032,3.2912,3.287,3.2551,3.2328,3.2191,3.2066,3.1941,3.177,3.1611,3.1965,3.2641,3.2949,3.3378,3.3899,3.456,3.4793,3.4892,3.5424,3.56,3.56,3.56,3.56,3.56,3.56,3.56,3.56,3.56,3.56,3.56,3.56,3.56,3.56,3.56,3.56,3.56,3.5588,3.5435,3.5291,3.528,3.4123,3.3195,3.3195,3.2228,3.1511,3.1511,3.0807,2.9965,2.9097,2.823,2.7367,2.6572,2.6499,2.6499,2.6499,2.6499,2.6499,2.6482,2.6305,2.6097,2.5893,2.5706,2.55,2.5312,2.5312,2.5312,2.5312,2.5312,2.5312,3.5656,3.5367,3.5178,3.5515,0.0,0.0,0.0,0.0,0.0,0.0,0.0,0.0,0.0,0.0,0.0,3.3446,3.3055,3.2627,3.2439,3.2398,3.2398,3.2398,3.2398,3.2398,3.2398,3.2398,3.2398,3.2398,3.2398,3.2398,3.2398,3.2398,3.2398,3.2398,3.2467,3.2648,3.2897,3.2978,3.311,3.3309,3.3216,3.3176,3.3163,3.2839,3.2718,3.2705,3.2399,3.2191,3.2066,3.1926,3.177,3.1611,3.167,3.1855,3.2107,3.2316,3.2506,3.2747,3.3355,3.3611,3.3764,3.4313,3.4752,3.5091,3.5091,3.5091,3.5091,3.5091,3.4868,3.4757,3.5424,3.56,3.56,3.56,3.56,3.56,3.56,3.56,3.56,3.56,3.5131,3.4742,3.4742,3.3617,3.2709,3.2709,3.2021,3.1511,3.1511,3.0688,2.9827,2.9081,2.7769,2.6833,2.6521,2.6499,2.6499,2.6499,2.6499,2.6499,2.6499,2.643,2.6223,2.591,2.584,2.5623,2.5312,2.5312,2.5312,2.5312,2.5312,2.5312,3.5344,3.5078,3.4838,0.0,0.0,0.0,0.0,0.0,0.0,0.0,0.0,0.0,0.0,0.0,0.0,0.0,3.2749,3.2398,3.2398,3.2398,3.2398,3.2398,3.2398,3.2398,3.2398,3.2398,3.2398,3.2398,3.2398,3.2398,3.2398,3.2398,3.2398,3.2398,3.2496,3.2648,3.2897,3.2991,3.3096,3.3243,3.3096,3.3072,3.3083,3.2827,3.2662,3.2594,3.2316,3.2107,3.1982,3.1856,3.1684,3.1525,3.1713,3.1756,3.1727,3.1926,3.1968,3.2025,3.26,3.2855,3.3026,3.3556,3.4078,3.4488,3.4488,3.4512,3.4553,3.4553,3.4284,3.4173,3.4904,3.5224,3.5356,3.5356,3.5481,3.56,3.56,3.56,3.5554,3.539,3.4828,3.4358,3.4181,3.3188,3.2398,3.2398,3.1895,3.1511,3.1511,3.0614,2.9613,2.8636,2.73,2.6499,2.6499,2.6448,2.643,2.6499,2.6448,2.643,2.6499,2.6448,2.6258,2.591,2.5828,2.5641,2.5312,2.5312,2.5312,2.5312,2.5312,2.5312,3.479,3.4796,0.0,0.0,0.0,0.0,0.0,0.0,0.0,0.0,0.0,0.0,0.0,0.0,0.0,3.329,3.2749,3.2398,3.2398,3.2398,3.2398,3.2398,3.2398,3.2398,3.2398,3.2398,3.2398,3.2398,3.2398,3.2398,3.2398,3.2398,3.2398,3.2398,3.2398,3.2551,3.2897,3.2897,3.2964,3.3096,3.2964,3.2964,3.3083,3.2964,3.2786,3.2578,3.2302,3.2122,3.1982,3.1856,3.1684,3.1525,3.1713,3.1684,3.1554,3.1868,3.1897,3.1898,3.2561,3.2788,3.2882,3.3417,3.3671,3.3786,3.3786,3.3878,3.3998,3.3998,3.3998,3.3969,3.3969,3.4382,3.4797,3.4793,3.5201,3.5588,3.56,3.5588,3.5424,3.4892,3.4577,3.4219,3.3671,3.292,3.2398,3.2398,3.1881,3.1511,3.1511,3.0614,2.9364,2.7687,2.6905,2.6516,2.6499,2.6322,2.6287,2.6482,2.6305,2.6287,2.6499,2.6305,2.6114,2.591,2.5706,2.55,2.5312,2.5312,2.5312,2.5312,2.5312,2.5312,3.5288,0.0,0.0,0.0,0.0,0.0,0.0,0.0,0.0,0.0,0.0,0.0,0.0,0.0,0.0,3.3172,3.2749,3.2398,3.2398,3.2398,3.2398,3.2398,3.2398,3.2398,3.2398,3.2398,3.2398,3.2398,3.2398,3.2398,3.2398,3.2398,3.2398,3.2398,3.2635,3.2786,3.2897,3.3099,3.315,3.3096,3.3072,3.2935,3.2744,3.2605,3.2468,3.2302,3.2136,3.1982,3.1841,3.1655,3.1554,3.1511,3.1568,3.1554,3.1511,3.1611,3.1626,3.1626,3.1824,3.198,3.2122,3.2288,3.2682,3.3119,3.3211,3.3264,3.3316,3.342,3.3174,3.2871,3.2871,3.3264,3.3865,3.4625,3.4625,3.4577,3.4951,3.4733,3.439,3.4153,3.3649,3.3185,3.2949,3.2272,3.1768,3.1768,3.1611,3.1438,3.1234,3.0509,2.9535,2.833,2.7604,2.7007,2.6538,2.6322,2.6218,2.6287,2.6097,2.6136,2.6499,2.6305,2.6114,2.591,2.5706,2.55,2.5312,2.5312,2.5312,2.5312,2.5312,2.5312,3.4619,0.0,0.0,0.0,0.0,0.0,0.0,0.0,0.0,0.0,0.0,0.0,0.0,3.2788,0.0,3.2868,3.2614,3.2398,3.2398,3.2398,3.2398,3.2398,3.2398,3.2398,3.2398,3.2398,3.2398,3.2398,3.2398,3.2398,3.2398,3.2398,3.2398,3.2398,3.2607,3.2773,3.2897,3.3072,3.3096,3.3018,3.3018,3.2841,3.2523,3.2496,3.2385,3.2177,3.1996,3.1826,3.167,3.1554,3.1511,3.1511,3.1511,3.1511,3.1511,3.1511,3.1511,3.1511,3.1511,3.1583,3.1684,3.1684,3.201,3.2425,3.2506,3.26,3.2709,3.2774,3.2615,3.2398,3.2398,3.2641,3.3093,3.3953,3.4082,3.4098,3.4419,3.4235,3.3907,3.3624,3.3159,3.2709,3.2396,3.1881,3.1511,3.1511,3.1452,3.1336,3.1117,3.0176,2.9253,2.8572,2.7653,2.6939,2.6521,2.624,2.6114,2.6184,2.5928,2.595,2.6361,2.6102,2.5945,2.591,2.5623,2.5418,2.5312,2.5312,2.5312,2.5312,2.5312,2.5312,0.0,0.0,0.0,0.0,0.0,0.0,0.0,0.0,0.0,0.0,0.0,0.0,3.2492,3.2801,3.2975,3.2479,3.2398,3.2398,3.2398,3.2398,3.2398,3.2398,3.2398,3.2398,3.2398,3.2398,3.2398,3.2398,3.2398,3.2398,3.2398,3.2398,3.2398,3.2398,3.2411,3.2564,3.2897,3.2897,3.2897,3.2897,3.287,3.2718,3.2398,3.2509,3.2413,3.215,3.1898,3.167,3.1511,3.1511,3.1511,3.1511,3.1511,3.1511,3.1511,3.1511,3.1511,3.1511,3.1511,3.1511,3.1511,3.1511,3.1611,3.177,3.1799,3.1968,3.2178,3.2191,3.2288,3.2384,3.2398,3.2398,3.252,3.3013,3.3498,3.3872,3.3923,3.3897,3.3691,3.3185,3.2895,3.2559,3.2038,3.1712,3.1511,3.1511,3.1394,3.1249,3.1117,2.9808,2.8792,2.8524,2.7351,2.6572,2.6516,2.6136,2.598,2.6149,2.5793,2.5741,2.6131,2.5793,2.5688,2.591,2.5488,2.5312,2.5312,2.5312,2.5312,2.5312,2.5312,2.5312,0.0,0.0,0.0,0.0,0.0,0.0,0.0,0.0,0.0,0.0,0.0,0.0,3.2425,3.2492,3.2533,3.2425,3.2398,3.2398,3.2398,3.2398,3.2398,3.2398,3.2398,3.2398,3.2398,3.2398,3.2398,3.2398,3.2398,3.2398,3.2398,3.2398,3.2398,3.2398,3.2509,3.2662,3.2897,3.2897,3.2897,3.2897,3.2746,3.2564,3.2398,3.233,3.2136,3.1869,3.1655,3.1539,3.1511,3.1511,3.1511,3.1511,3.1511,3.1511,3.1511,3.1511,3.1511,3.1511,3.1511,3.1511,3.1511,3.1511,3.1539,3.1583,3.1741,3.1841,3.1941,3.215,3.2219,3.2274,3.237,3.2398,3.2439,3.2532,3.2654,3.2871,3.3277,3.3042,3.2656,3.2315,3.2205,3.2052,3.1668,3.1554,3.1511,3.1511,3.1394,3.1249,3.1117,3.0206,2.9312,2.8572,2.7769,2.7061,2.6538,2.6136,2.5928,2.5963,2.5588,2.5471,2.5723,2.5653,2.5688,2.591,2.5488,2.5312,2.5312,2.5312,2.5312,2.5312,2.5312,2.5312,0.0,0.0,0.0,0.0,0.0,0.0,0.0,0.0,0.0,0.0,0.0,3.2398,3.2398,3.2398,3.2398,3.2398,3.2398,3.2398,3.2398,3.2398,3.2398,3.2398,3.2398,3.2398,3.2398,3.2398,3.2398,3.2398,3.2398,3.2398,3.2398,3.2398,3.2398,3.2398,3.2467,3.2578,3.2746,3.2759,3.2759,3.2759,3.2648,3.2454,3.2205,3.2136,3.1996,3.1799,3.1583,3.1511,3.1511,3.1511,3.1511,3.1511,3.1511,3.1511,3.1511,3.1511,3.1511,3.1511,3.1511,3.1511,3.1511,3.1511,3.1511,3.1525,3.1611,3.1713,3.1827,3.1968,3.2094,3.2219,3.2288,3.2356,3.2398,3.2398,3.2398,3.2451,3.2668,3.2506,3.2247,3.2038,3.194,3.1856,3.1669,3.1554,3.1511,3.1511,3.1336,3.119,3.1117,2.9963,2.9,2.854,2.7604,2.685,2.6379,2.6084,2.5858,2.5758,2.5483,2.5382,2.5588,2.5518,2.5553,2.5758,2.5465,2.5312,2.5312,2.5312,2.5312,2.5312,2.5312,2.5312,0.0,0.0,0.0,0.0,0.0,0.0,0.0,0.0,0.0,0.0,3.2384,3.2398,3.2398,3.2398,3.2398,3.2398,3.2398,3.2398,3.2398,3.2398,3.2398,3.2398,3.2398,3.2398,3.2398,3.2398,3.2398,3.2398,3.2398,3.2398,3.2398,3.2398,3.2398,3.2398,3.2398,3.2453,3.2607,3.2578,3.2578,3.2607,3.2551,3.2345,3.1996,3.1982,3.1898,3.1741,3.1568,3.1511,3.1511,3.1511,3.1511,3.1511,3.1511,3.1511,3.1511,3.1511,3.1511,3.1511,3.1511,3.1511,3.1511,3.1511,3.1511,3.1511,3.1511,3.1611,3.1756,3.1799,3.1982,3.2178,3.2178,3.2288,3.2398,3.237,3.237,3.2328,3.2219,3.2191,3.2149,3.1996,3.1856,3.1741,3.1741,3.1611,3.1496,3.1467,3.1263,3.1043,3.0895,2.9485,2.846,2.833,2.7229,2.6413,2.6218,2.6015,2.5811,2.5606,2.54,2.5365,2.5535,2.5382,2.5382,2.5535,2.5382,2.5312,2.5312,2.5312,2.5312,2.5312,2.5312,2.5312,0.0,0.0,0.0,0.0,0.0,0.0,0.0,0.0,0.0,0.0,3.2331,3.2398,3.2398,3.2398,3.2398,3.2398,3.2398,3.2398,3.2398,3.2398,3.2398,3.2398,3.2398,3.2398,3.2398,3.2398,3.2398,3.2398,3.2398,3.2398,3.2398,3.2398,3.2398,3.2398,3.2398,3.2453,3.2607,3.2467,3.2496,3.2607,3.2358,3.2149,3.1996,3.1884,3.1727,3.1539,3.1511,3.1511,3.1511,3.1511,3.1511,3.1511,3.1511,3.1511,3.1511,3.1511,3.1511,3.1511,3.1511,3.1511,3.1511,3.1511,3.1511,3.1511,3.1511,3.1525,3.1583,3.1741,3.1912,3.2039,3.2039,3.2205,3.237,3.2261,3.2233,3.2219,3.2205,3.2191,3.2136,3.1884,3.1669,3.1539,3.1539,3.1525,3.1452,3.1351,3.1205,3.0821,3.0068,2.9111,2.8266,2.7703,2.6956,2.6413,2.6218,2.6015,2.5811,2.5606,2.54,2.5312,2.5347,2.5312,2.5312,2.5347,2.5312,2.5312,2.5312,2.5312,2.5312,2.5312,2.5312,2.5312,0.0,0.0,0.0,0.0,0.0,0.0,0.0,0.0,0.0,3.2056,3.2179,3.2301,3.2398,3.2398,3.2398,3.2398,3.2398,3.2398,3.2398,3.2398,3.2398,3.2398,3.2398,3.2398,3.2398,3.2398,3.2398,3.2398,3.2398,3.2398,3.2398,3.2398,3.2398,3.2398,3.2398,3.2425,3.2496,3.2425,3.2425,3.2467,3.222,3.2052,3.1996,3.1741,3.1583,3.1511,3.1511,3.1278,3.094,3.094,3.0733,3.0374,3.0374,3.0374,3.0419,3.0807,3.094,3.0999,3.138,3.1511,3.1511,3.1511,3.1511,3.1511,3.1511,3.1511,3.1525,3.1611,3.177,3.1884,3.1884,3.2024,3.2149,3.2094,3.208,3.2066,3.1996,3.1982,3.1912,3.1669,3.1554,3.1511,3.1511,3.1511,3.1452,3.1322,3.119,3.0791,2.9901,2.9032,2.8247,2.7571,2.6888,2.6413,2.6218,2.6114,2.5928,2.5623,2.5518,2.5418,2.5312,2.5312,2.5312,2.5312,2.5312,2.5312,2.5312,2.5312,2.5312,2.5312,2.5312,2.5312,0.0,0.0,0.0,0.0,0.0,0.0,0.0,0.0,3.1771,0.0,3.2055,3.2191,3.2315,3.2384,3.2398,3.2398,3.2398,3.2398,3.2398,3.2398,3.2398,3.2398,3.2398,3.2398,3.2398,3.2398,3.2398,3.2398,3.2398,3.2398,3.2398,3.2398,3.2398,3.2398,3.2398,3.2398,3.2398,3.2398,3.2384,3.2342,3.2108,3.1982,3.194,3.164,3.1409,3.1248,3.1248,3.094,3.0434,3.0299,2.9919,2.9456,2.9489,2.9504,2.9551,3.0057,3.0344,3.0569,3.1073,3.1365,3.1511,3.1511,3.1511,3.1511,3.1511,3.1511,3.1511,3.1511,3.1641,3.1799,3.1741,3.1855,3.1996,3.1954,3.194,3.1912,3.1813,3.1756,3.1684,3.1539,3.1511,3.1511,3.1511,3.1467,3.1394,3.1278,3.1117,3.0717,2.9855,2.9016,2.8247,2.7571,2.6888,2.6396,2.6149,2.6114,2.5945,2.5553,2.5518,2.5465,2.5312,2.5312,2.5312,2.5312,2.5312,2.5312,2.5312,2.5312,2.5312,2.5312,2.5312,2.5312,0.0,0.0,0.0,0.0,0.0,0.0,0.0,0.0,0.0,3.177,3.1927,3.2052,3.2177,3.2301,3.2398,3.2398,3.2398,3.2398,3.2398,3.2398,3.2398,3.2398,3.2398,3.2398,3.2398,3.2398,3.2398,3.2398,3.2398,3.2398,3.2398,3.2398,3.2398,3.2398,3.2398,3.2398,3.2398,3.2398,3.2328,3.2205,3.2066,3.1926,3.1799,3.1597,3.1161,3.0554,3.0554,3.045,3.0269,2.9766,2.947,2.9312,2.9456,2.9504,2.9504,2.9535,2.995,3.0509,3.0539,3.097,3.1511,3.1511,3.1511,3.1511,3.1511,3.1511,3.1511,3.1511,3.1641,3.1756,3.1568,3.1769,3.1968,3.1841,3.1799,3.1814,3.1799,3.1655,3.1511,3.1511,3.1511,3.1511,3.1511,3.1394,3.1263,3.1132,3.094,3.0522,2.9716,2.8953,2.8247,2.7571,2.6888,2.6332,2.5945,2.5928,2.5741,2.5347,2.5312,2.5312,2.5312,2.5312,2.5312,2.5312,2.5312,2.5312,2.5312,2.5312,2.5312,2.5312,2.5312,2.5312,0.0,0.0,0.0,0.0,0.0,0.0,0.0,3.1791,3.1525,3.1583,3.1756,3.1897,3.2053,3.2261,3.2398,3.2398,3.2398,3.2398,3.2398,3.2398,3.2398,3.2398,3.2398,3.2398,3.2398,3.2398,3.2398,3.2398,3.2398,3.2398,3.2398,3.2398,3.2398,3.2398,3.2398,3.2398,3.2398,3.2301,3.2247,3.2191,3.1982,3.1841,3.177,3.1161,3.0733,3.0449,2.9501,2.9062,2.8998,2.8903,2.8532,2.8039,2.816,2.8225,2.8322,2.9176,2.9644,2.9981,3.0837,3.1292,3.1511,3.1511,3.1511,3.1511,3.1511,3.1511,3.1511,3.1511,3.1554,3.1583,3.1525,3.1597,3.1669,3.1611,3.1611,3.1611,3.1611,3.1554,3.1511,3.1511,3.1511,3.1511,3.1511,3.1394,3.1249,3.1117,3.0925,3.0507,2.97,2.9375,2.8776,2.762,2.7284,2.6854,2.6154,2.6097,2.5928,2.5518,2.5488,2.5435,2.5312,2.5312,2.5312,2.5312,2.5312,2.5312,2.5312,2.5312,2.5312,2.5312,2.5312,2.5182,0.0,0.0,0.0,0.0,0.0,0.0,0.0,0.0,3.1739,3.1539,3.167,3.1827,3.1927,3.2149,3.2342,3.2398,3.2398,3.2398,3.2398,3.2398,3.2398,3.2398,3.2398,3.2398,3.2398,3.2398,3.2398,3.2398,3.2398,0.0,3.2398,3.2398,3.2398,3.2398,3.2398,3.2398,3.2398,3.2274,3.2177,3.2136,3.1912,3.1756,3.167,3.0866,3.0374,3.0087,2.8839,2.8254,2.8192,2.8124,2.7739,2.7231,2.7419,2.749,2.7606,2.8503,2.8969,2.9315,3.0449,3.0984,3.1205,3.1423,3.1511,3.1511,3.1511,3.1511,3.1511,3.1511,3.1511,3.1511,3.1511,3.1511,3.1511,3.1511,3.1511,3.1511,3.1511,3.1511,3.1511,3.1511,3.1511,3.1496,3.1438,3.1322,3.1176,3.1014,3.0836,3.0538,3.0007,2.9747,2.9249,2.8309,2.7969,2.7467,2.6508,2.6422,2.6164,2.5535,2.55,2.5447,2.5312,2.5312,2.5312,2.5312,2.5312,2.5312,2.5312,2.5312,2.5312,2.5312,2.5312,2.5111,0.0,0.0,0.0,0.0,0.0,0.0,3.2697,0.0,3.2259,3.1654,3.1669,3.1799,3.1799,3.2011,3.2233,3.237,3.2398,3.2398,3.2398,3.2398,3.2398,3.2398,3.2398,3.2398,3.2398,3.2398,3.2398,3.2398,3.2398,3.2398,3.2398,3.2398,3.2398,3.2398,3.2398,3.2398,3.2398,3.2261,3.2122,3.1996,3.1856,3.1698,3.1467,3.0792,3.0118,2.9442,2.8629,2.8143,2.7937,2.749,2.718,2.7028,2.7369,2.749,2.7506,2.754,2.7957,2.8597,2.93,2.9965,3.0614,3.1263,3.1467,3.1511,3.1511,3.1511,3.1511,3.1511,3.1511,3.1511,3.1511,3.1511,3.1511,3.1511,3.1511,3.1511,3.1511,3.1511,3.1511,3.1511,3.1511,3.1452,3.1322,3.119,3.1028,3.0821,3.0687,3.0598,3.0598,3.0038,2.9623,2.9607,2.8953,2.8087,2.6989,2.6917,2.6458,2.537,2.5329,2.5312,2.5312,2.5312,2.5312,2.5312,2.5312,2.5312,2.5312,2.5312,2.5312,2.5312,2.5276,2.5087,3.4899,0.0,0.0,0.0,0.0,0.0,0.0,0.0,3.2828,3.2273,3.2205,3.215,3.1856,3.1856,3.1954,3.208,3.2259,3.2398,3.2398,3.2398,3.2398,3.2398,3.2398,3.2398,3.2398,3.2398,3.2398,0.0,3.2398,3.2398,3.2398,3.2398,3.2398,3.2398,3.2316,3.2261,3.2261,3.2039,3.1898,3.1856,3.1669,3.1554,3.1452,3.0299,2.9675,2.9426,2.7977,2.7406,2.7477,2.7352,2.7268,2.7248,2.7436,2.749,2.7623,2.8599,2.876,2.8675,2.9812,3.0344,3.0539,3.0733,3.1102,3.1511,3.1511,3.1511,3.1511,3.1511,3.1511,3.1511,3.1511,3.1511,3.1511,3.1511,3.1511,3.1511,3.1511,3.1511,3.1511,3.1511,3.1511,3.1452,3.1322,3.119,3.1028,3.0821,3.0687,3.0598,3.0598,3.0447,3.0145,2.9654,2.9421,2.8698,2.7233,2.7338,2.6917,2.5594,2.5786,2.5751,2.5312,2.5312,2.5312,2.5312,2.5312,2.5312,2.5312,2.5312,2.5312,2.5294,2.4754,2.4298,0.0,0.0,0.0,0.0,0.0,0.0,3.3764,3.341,3.296,0.0,3.1979,3.1952,3.1712,3.1741,3.1827,3.1897,3.2094,3.2261,3.2316,3.233,3.2342,3.2398,3.2398,3.2398,3.2398,3.2398,3.2398,3.2398,3.2398,3.2384,3.2315,3.2259,3.2233,3.2233,3.2149,3.2122,3.2122,3.1912,3.1799,3.1799,3.1597,3.1511,3.1452,3.0343,2.9687,2.9345,2.7944,2.7319,2.7285,2.7214,2.7231,2.7302,2.7453,2.749,2.759,2.8387,2.8419,2.8238,2.9298,2.9672,2.9718,2.9981,3.0539,3.1073,3.1073,3.1073,3.1073,3.1073,3.0881,3.0792,3.1351,3.1278,3.1161,3.1423,3.1511,3.1467,3.1423,3.1423,3.1423,3.1423,3.1423,3.1351,3.1132,3.1028,3.0925,3.0747,3.0657,3.0598,3.0598,3.0598,3.0447,3.0068,3.0022,2.9437,2.7996,2.7835,2.7271,2.5926,2.5821,2.5664,2.5312,2.5312,2.5312,2.5312,2.5312,2.5223,2.5087,2.5223,2.5223,2.5058,2.4316,2.3824,0.0,0.0,0.0,0.0,0.0,0.0,3.3475,3.3303,3.3053,0.0,3.171,3.1768,3.1696,3.1825,3.1954,3.1954,3.2011,3.208,3.2178,3.2177,3.2219,3.2342,3.2356,3.2356,3.2356,3.2356,3.2356,3.2356,3.2356,3.2301,3.2177,3.2066,3.1996,3.1996,3.1911,3.1868,3.1868,3.1726,3.167,3.1655,3.1554,3.1496,3.1452,3.0568,2.9855,2.9202,2.814,2.7523,2.7268,2.7062,2.7113,2.7335,2.7453,2.749,2.7506,2.7573,2.754,2.7573,2.8254,2.853,2.8693,2.93,2.995,3.0509,3.0509,3.045,3.0389,3.0389,2.9965,2.9797,3.1058,3.0955,3.0659,3.1351,3.1496,3.1452,3.1336,3.1292,3.1278,3.1248,3.1263,3.119,3.0851,3.0791,3.0747,3.0627,3.0598,3.0598,3.0598,3.0598,3.0598,3.0598,3.0582,3.0084,2.8931,2.8341,2.7521,2.6289,2.5699,2.5365,2.5312,2.5312,2.5312,2.5312,2.5259,2.5105,2.479,2.504,2.5004,2.4646,2.3934,2.3586,0.0,0.0,0.0,0.0,0.0,0.0,3.459,3.4554,3.4382,0.0,3.3572,3.3439,3.2946,3.2893,3.2935,3.2935,3.2602,3.2261,3.2066,3.2038,3.2053,3.2066,3.208,3.208,3.208,3.208,3.208,3.208,3.208,3.2066,3.2038,3.2011,3.1996,3.1996,3.1364,3.1028,3.1028,3.0851,3.0762,3.0762,3.1263,3.1438,3.1307,3.0069,2.9343,2.8985,2.7534,2.7053,2.7268,2.6914,2.7049,2.7469,2.749,2.749,2.754,2.7973,2.7792,2.7436,2.8121,2.8691,2.9186,2.9425,2.995,3.0509,3.0509,3.0118,2.969,2.969,2.9597,2.9675,3.0494,3.0599,3.0659,3.1351,3.1423,3.1336,3.1307,3.122,3.1087,3.0925,3.1028,3.1073,3.0836,3.0791,3.0747,3.0627,3.0598,3.0598,3.0598,3.0598,3.0598,3.0598,3.0356,2.9882,2.9101,2.8546,2.77,2.6432,2.6151,2.5804,2.5329,2.5312,2.5312,2.5312,2.5034,2.4879,2.479,2.4544,2.4207,2.3824,2.3666,2.3438,0.0,0.0,0.0,3.4899,0.0,0.0,0.0,3.3799,3.3556,3.3174,3.3177,3.323,3.3211,3.3195,3.3195,3.3195,3.2666,3.223,3.2205,3.2039,3.1941,3.1996,3.1996,3.1996,3.1996,3.1996,3.1996,3.1996,3.194,3.1898,3.1898,3.1812,3.1755,3.1755,3.1043,3.0644,3.0644,3.0554,3.0509,3.0509,3.1102,3.138,3.1263,3.0191,2.9406,2.8839,2.7729,2.7154,2.6998,2.6782,2.693,2.7251,2.7251,2.7251,2.7268,2.754,2.7436,2.7251,2.8039,2.8238,2.8238,2.8744,2.9064,2.927,2.9362,2.9219,2.8998,2.8998,2.876,2.881,3.0147,3.0253,3.0238,3.119,3.1351,3.1248,3.1087,3.1014,3.091,3.0732,3.0777,3.0821,3.0717,3.0702,3.0687,3.0598,3.0598,3.0598,3.0598,3.0598,3.0537,3.0371,3.0203,2.9834,2.9162,2.8352,2.755,2.6739,2.6087,2.5629,2.5312,2.5312,2.5312,2.5312,2.4766,2.449,2.449,2.3897,2.3593,2.3593,2.339,2.3187,0.0,0.0,0.0,0.0,0.0,3.4097,0.0,0.0,0.0,3.2516,3.2614,3.2873,3.3293,3.3459,3.3524,3.3524,0.0,0.0,0.0,3.2358,0.0,3.1926,3.1725,3.1639,3.1668,3.1668,3.1725,3.1854,3.1799,3.1741,3.1741,3.1583,3.1511,3.1511,3.0733,3.0314,3.0314,3.0178,3.0178,3.0314,3.0837,3.1161,3.1234,3.0433,2.9593,2.8709,2.8059,2.7377,2.6696,2.6675,2.676,2.6956,2.6977,2.7007,2.7007,2.696,2.6943,2.7045,2.7759,2.7623,2.7268,2.7993,2.816,2.8065,2.8091,2.8189,2.8303,2.8271,2.7973,2.8059,2.9811,2.9949,2.9903,3.0999,3.1234,3.1117,3.0851,3.0777,3.0732,3.0627,3.0598,3.0598,3.0598,3.0598,3.0598,3.0598,3.0598,3.0598,3.0598,3.0552,3.0401,3.0126,2.9973,2.968,2.9147,2.8059,2.7284,2.7023,2.5931,2.5312,2.5312,2.5312,2.5276,2.52,2.455,2.4164,2.408,2.3353,2.3168,2.3482,2.315,2.3001,0.0,0.0,0.0,0.0,3.4497,0.0,0.0,0.0,3.3895,3.3882,0.0,3.3921,3.3984,0.0,0.0,0.0,0.0,0.0,3.3895,3.3413,3.2666,3.1683,3.0763,3.0299,3.048,3.048,3.0733,3.1336,3.1467,3.1539,3.1539,3.1511,3.1511,3.1511,3.0269,2.9613,2.9613,2.903,2.903,2.9613,3.0161,3.0657,3.1102,3.0343,2.9457,2.8505,2.795,2.733,2.6679,2.6572,2.6607,2.6743,2.6926,2.7007,2.6977,2.6794,2.6726,2.676,2.685,2.7209,2.7667,2.795,2.8143,2.8157,2.759,2.7506,2.759,2.7469,2.7809,2.8401,2.9218,2.9731,3.0221,3.0955,3.0999,3.0851,3.0806,3.0717,3.0627,3.0598,3.0598,3.0598,3.0598,3.0598,3.0598,3.0598,3.0598,3.0598,3.0598,3.0341,3.0142,3.0096,2.9571,2.9178,2.9115,2.7845,2.704,2.7007,2.5931,2.5312,2.5312,2.5312,2.5164,2.4861,2.4418,2.4025,2.3677,2.3224,2.302,2.3075,2.302,2.3001,0.0,0.0,0.0,0.0,0.0,0.0,3.391,0.0,3.3298,0.0,0.0,0.0,0.0,0.0,0.0,0.0,3.4093,0.0,0.0,0.0,3.2369,3.246,0.0,0.0,3.0374,3.0299,3.0208,2.9981,3.0494,3.0584,3.0072,3.0162,3.0207,3.0207,2.9686,2.9204,2.8807,2.8778,2.8746,2.8636,2.9577,3.0161,3.0448,3.0055,2.9641,2.9219,2.8599,2.7884,2.7162,2.7095,2.7112,2.7129,2.6829,2.6705,2.6705,2.6619,2.6572,2.6658,2.7112,2.7162,2.7023,2.7095,2.7229,2.7326,2.7036,2.7339,2.7776,2.7723,2.8219,2.8912,2.9591,2.9931,3.0236,3.0791,3.0866,3.0777,3.0702,3.0642,3.0598,3.0598,3.0598,3.0598,3.0598,3.0598,3.0598,3.0598,3.0598,3.0598,3.0598,3.031,3.0034,2.9834,2.9383,2.8908,2.8395,2.7527,2.6871,2.6564,2.5756,2.5312,2.5312,2.5111,2.4939,2.479,2.4182,2.3769,2.3593,2.3205,2.3001,2.3001,2.3001,2.3001,3.3908,0.0,0.0,0.0,0.0,0.0,0.0,0.0,0.0,0.0,0.0,0.0,0.0,0.0,3.4226,0.0,0.0,3.341,0.0,3.295,0.0,0.0,0.0,0.0,0.0,3.0389,3.0011,2.9333,2.9919,2.9919,2.905,2.9141,2.9219,2.9219,2.903,2.8696,2.8225,2.8374,2.8295,2.8002,2.8839,2.95,2.9934,2.984,2.9777,2.9716,2.9279,2.8583,2.7769,2.7769,2.7769,2.7736,2.7246,2.6939,2.6765,2.6765,2.6658,2.6607,2.7384,2.7145,2.6516,2.6538,2.6624,2.6696,2.6696,2.7188,2.7772,2.7891,2.8463,2.918,2.9853,3.0129,3.0312,3.0672,3.0747,3.0717,3.0627,3.0598,3.0598,3.0598,3.0598,3.0598,3.0598,3.0598,3.0598,3.0598,3.0507,3.0462,3.0462,3.0082,2.9741,2.9493,2.9162,2.8651,2.7871,2.731,2.6701,2.5995,2.5541,2.5259,2.5164,2.4921,2.47,2.4483,2.3897,2.3549,2.3427,2.3131,2.3001,2.3001,2.3001,2.3001,0.0,0.0,0.0,3.3368,0.0,0.0,0.0,0.0,3.3886,0.0,0.0,3.3407,3.4009,3.4113,3.4113,0.0,0.0,0.0,0.0,0.0,0.0,0.0,0.0,0.0,0.0,3.0598,3.0208,0.0,3.0178,2.9919,2.905,2.9002,2.9018,2.9018,2.8379,2.8035,2.8002,2.7377,2.739,2.8002,2.7911,2.8546,2.9808,2.9793,2.9731,2.9607,2.9716,2.9267,2.846,2.846,2.846,2.846,2.8443,2.8035,2.7467,2.7467,2.7074,2.6607,2.728,2.7074,2.6521,2.6658,2.6696,2.6696,2.6696,2.6846,2.7146,2.7656,2.8287,2.8949,2.9638,3.019,3.0583,3.0598,3.0598,3.0598,3.0598,3.0598,3.0598,3.0598,3.0598,3.0598,3.0598,3.0598,3.0598,3.0598,3.031,3.0111,3.0111,2.954,2.9131,2.9115,2.8812,2.8392,2.7855,2.731,2.6517,2.54,2.5312,2.5147,2.4825,2.4807,2.4436,2.3648,2.3611,2.3409,2.302,2.3001,2.3001,2.3001,2.3001,2.3001,0.0,0.0,3.4063,3.3841,0.0,0.0,0.0,0.0,0.0,0.0,0.0,0.0,0.0,0.0,0.0,0.0,0.0,0.0,0.0,0.0,0.0,0.0,0.0,0.0,0.0,0.0,0.0,2.8379,2.8492,2.823,2.7384,2.7434,2.7484,2.7484,2.7733,2.763,2.7145,2.7276,2.7226,2.7007,2.7414,2.7898,2.8438,2.928,2.9685,2.9747,3.016,2.9916,2.9219,2.9219,2.9219,2.9172,2.8698,2.8666,2.8823,2.8344,2.7467,2.6521,2.6765,2.6679,2.6516,2.6538,2.6572,2.6572,2.6572,2.7229,2.8032,2.8211,2.9093,3.0038,3.0266,3.0462,3.0598,3.0598,3.0598,3.0598,3.0598,3.0598,3.0598,3.0598,3.0598,3.0598,3.0598,3.0598,3.0507,3.0295,3.0172,3.0019,2.9803,2.9383,2.9099,2.9099,2.8476,2.7842,2.7326,2.6414,2.5704,2.5329,2.5312,2.5147,2.4807,2.4526,2.4152,2.3611,2.3335,2.3131,2.3001,2.3001,2.3001,2.3001,2.3001,2.3001,3.4386,3.4386,0.0,3.4151,3.4101,0.0,3.3828,0.0,3.3948,0.0,0.0,0.0,0.0,0.0,0.0,0.0,0.0,0.0,0.0,3.2196,0.0,0.0,0.0,0.0,0.0,0.0,2.9046,2.767,2.7884,2.7633,0.0,2.6572,2.6624,2.6624,2.7087,2.7121,2.6624,2.6973,2.6922,2.6516,2.6939,2.73,2.7653,2.8487,2.9172,2.9747,3.0099,3.0129,2.9947,2.9947,2.9947,2.9901,2.9439,2.9392,2.9531,2.9077,2.8328,2.753,2.7023,2.7007,2.7129,2.6658,2.6816,2.7162,2.6922,2.762,2.8556,2.8826,2.9532,3.0297,3.0538,3.0598,3.0598,3.0598,3.0598,3.0598,3.0598,3.0598,3.0598,3.0598,3.0598,3.0567,3.0447,3.0416,3.0341,3.0126,3.0004,2.9803,2.9462,2.9131,2.886,2.8654,2.8151,2.751,2.6786,2.5856,2.5312,2.5312,2.52,2.4963,2.461,2.42,2.3806,2.339,2.3131,2.3001,2.3001,2.3001,2.3001,2.3001,2.3001,2.3001]},{"header":{"parameterUnit":"m.s-1","parameterCategory":1,"la1":30.6,"la2":29.2853,"lo1":-89.7004,"lo2":-87.6739,"dy":0.0162,"dx":0.0183,"nx":112,"ny":82,"refTime":"2023-05-23T12:00:00:Z","depth":0,"parameterNumber":3,"parameterNumberName":"V-component_of_WINDS"},"data":[0.0,0.0,0.0,0.0,0.0,0.0,0.0,0.0,0.0,0.0,0.0,0.0,0.0,0.0,0.0,0.0,0.0,0.0,0.0,0.0,0.0,0.0,0.0,0.0,0.0,0.0,0.0,0.0,0.0,0.0,0.0,0.0,0.0,0.0,0.0,0.0,0.0,0.0,0.0,0.0,0.0,0.0,0.0,0.0,0.0,0.0,0.0,0.0,0.0,0.0,0.0,0.0,0.0,0.0,0.0,0.0,0.0,0.0,0.0,0.0,0.0,0.0,0.0,0.0,0.0,0.0,0.0,0.0,0.0,0.0,0.0,0.0,0.0,0.0,0.0,0.0,0.0,0.0,0.0,0.0,0.0,0.0,0.0,0.0,0.0,0.0,0.0,0.0,0.0,0.0,2.6043,2.6184,2.6496,2.67,2.67,2.7235,2.7002,2.5633,0.0,0.0,0.0,0.0,0.0,0.0,0.0,0.0,0.0,0.0,0.0,0.0,0.0,0.0,0.0,0.0,0.0,0.0,0.0,0.0,0.0,0.0,0.0,0.0,0.0,0.0,0.0,0.0,0.0,0.0,0.0,0.0,0.0,0.0,0.0,0.0,0.0,0.0,0.0,0.0,0.0,0.0,0.0,0.0,0.0,0.0,0.0,0.0,0.0,0.0,0.0,0.0,0.0,0.0,0.0,0.0,0.0,0.0,0.0,0.0,0.0,0.0,0.0,0.0,0.0,0.0,0.0,0.0,0.0,0.0,0.0,0.0,0.0,0.0,0.0,0.0,0.0,0.0,0.0,0.0,0.0,0.0,0.0,0.0,0.0,0.0,0.0,0.0,0.0,0.0,0.0,0.0,0.0,0.0,0.0,0.0,0.0,0.0,0.0,0.0,0.0,0.0,0.0,0.0,2.5854,2.6547,2.6666,2.67,2.67,2.69,2.6666,2.5806,0.0,0.0,0.0,0.0,0.0,0.0,0.0,0.0,0.0,0.0,0.0,0.0,0.0,0.0,0.0,0.0,0.0,0.0,0.0,0.0,0.0,0.0,0.0,0.0,0.0,0.0,0.0,0.0,0.0,0.0,0.0,0.0,0.0,0.0,0.0,0.0,0.0,0.0,0.0,0.0,0.0,0.0,0.0,0.0,0.0,0.0,0.0,0.0,0.0,0.0,0.0,0.0,0.0,0.0,0.0,0.0,0.0,0.0,0.0,0.0,0.0,0.0,0.0,0.0,0.0,0.0,0.0,0.0,0.0,0.0,0.0,0.0,0.0,0.0,0.0,0.0,0.0,0.0,0.0,0.0,0.0,0.0,0.0,0.0,0.0,0.0,0.0,0.0,0.0,0.0,0.0,0.0,0.0,0.0,0.0,0.0,0.0,0.0,0.0,0.0,0.0,0.0,0.0,2.5873,2.6247,2.6666,2.6858,2.6899,2.6716,2.7085,2.6881,2.5861,2.6531,0.0,0.0,0.0,0.0,0.0,0.0,0.0,0.0,0.0,0.0,0.0,0.0,0.0,0.0,0.0,0.0,0.0,0.0,0.0,0.0,0.0,0.0,0.0,0.0,0.0,0.0,0.0,0.0,0.0,0.0,0.0,0.0,0.0,0.0,0.0,0.0,0.0,0.0,0.0,0.0,0.0,0.0,0.0,0.0,0.0,0.0,0.0,0.0,0.0,0.0,0.0,0.0,0.0,0.0,0.0,0.0,0.0,0.0,0.0,0.0,0.0,0.0,0.0,0.0,0.0,0.0,0.0,0.0,0.0,0.0,0.0,0.0,0.0,0.0,0.0,0.0,0.0,0.0,0.0,0.0,0.0,0.0,0.0,0.0,0.0,0.0,0.0,0.0,0.0,0.0,0.0,0.0,0.0,0.0,0.0,0.0,0.0,0.0,0.0,0.0,0.0,0.0,2.61,2.6311,2.6225,2.6597,2.6756,2.6537,2.7009,2.6933,2.6077,2.6218,0.0,0.0,0.0,0.0,0.0,0.0,0.0,0.0,0.0,0.0,0.0,0.0,0.0,0.0,0.0,0.0,0.0,0.0,0.0,0.0,0.0,0.0,0.0,0.0,0.0,0.0,0.0,0.0,0.0,0.0,0.0,0.0,0.0,0.0,0.0,0.0,0.0,0.0,0.0,0.0,0.0,0.0,0.0,0.0,0.0,0.0,0.0,0.0,0.0,0.0,0.0,0.0,0.0,0.0,0.0,0.0,0.0,0.0,0.0,0.0,0.0,0.0,0.0,0.0,0.0,0.0,0.0,0.0,0.0,0.0,0.0,0.0,0.0,0.0,0.0,0.0,0.0,0.0,0.0,0.0,0.0,0.0,0.0,0.0,0.0,0.0,0.0,0.0,0.0,0.0,0.0,0.0,0.0,0.0,0.0,0.0,0.0,0.0,0.0,0.0,0.0,0.0,2.5187,2.5439,2.4807,2.5381,2.5853,2.5943,2.6059,2.6278,2.6607,2.5071,0.0,0.0,0.0,0.0,0.0,0.0,0.0,0.0,0.0,0.0,0.0,0.0,0.0,0.0,0.0,0.0,0.0,0.0,0.0,0.0,0.0,0.0,0.0,0.0,0.0,0.0,0.0,0.0,0.0,0.0,0.0,0.0,0.0,0.0,0.0,0.0,0.0,0.0,0.0,0.0,0.0,0.0,0.0,0.0,0.0,0.0,0.0,0.0,0.0,0.0,0.0,0.0,0.0,0.0,0.0,0.0,0.0,0.0,0.0,0.0,0.0,0.0,0.0,0.0,0.0,0.0,0.0,0.0,0.0,0.0,0.0,0.0,0.0,0.0,0.0,0.0,0.0,0.0,0.0,0.0,0.0,0.0,0.0,0.0,0.0,0.0,0.0,0.0,0.0,0.0,0.0,0.0,0.0,0.0,0.0,0.0,0.0,0.0,0.0,0.0,0.0,0.0,2.6067,2.6533,2.6529,2.6815,2.695,2.6799,2.7033,2.7047,2.6724,0.0,0.0,0.0,0.0,0.0,0.0,0.0,0.0,0.0,0.0,0.0,0.0,0.0,0.0,0.0,0.0,0.0,0.0,0.0,0.0,0.0,0.0,0.0,0.0,0.0,0.0,0.0,0.0,0.0,0.0,0.0,0.0,0.0,0.0,0.0,0.0,0.0,0.0,0.0,0.0,0.0,0.0,0.0,0.0,0.0,0.0,0.0,0.0,0.0,0.0,0.0,0.0,0.0,0.0,0.0,0.0,0.0,0.0,0.0,0.0,0.0,0.0,0.0,0.0,0.0,0.0,0.0,0.0,0.0,0.0,0.0,0.0,0.0,0.0,0.0,0.0,0.0,0.0,0.0,0.0,0.0,0.0,0.0,0.0,0.0,0.0,0.0,0.0,0.0,0.0,0.0,0.0,0.0,0.0,0.0,0.0,0.0,0.0,0.0,0.0,0.0,0.0,2.5398,2.6143,2.6649,2.6748,2.7023,2.7126,2.6934,2.7271,2.7317,2.6915,0.0,0.0,0.0,0.0,0.0,0.0,0.0,0.0,0.0,0.0,0.0,0.0,0.0,0.0,0.0,0.0,0.0,0.0,0.0,0.0,0.0,0.0,0.0,0.0,0.0,0.0,0.0,0.0,0.0,0.0,0.0,0.0,0.0,0.0,0.0,0.0,0.0,0.0,0.0,0.0,0.0,0.0,0.0,0.0,0.0,0.0,0.0,0.0,0.0,0.0,0.0,0.0,0.0,0.0,0.0,0.0,0.0,0.0,0.0,0.0,0.0,0.0,0.0,0.0,0.0,0.0,0.0,0.0,0.0,0.0,0.0,0.0,0.0,0.0,0.0,0.0,0.0,0.0,0.0,0.0,0.0,0.0,0.0,0.0,0.0,0.0,0.0,0.0,0.0,0.0,0.0,0.0,0.0,0.0,0.0,0.0,0.0,0.0,0.0,0.0,0.0,0.0,2.4509,2.5112,2.5385,2.4796,2.5434,2.5965,2.6111,2.642,2.682,0.0,0.0,0.0,0.0,0.0,0.0,0.0,0.0,0.0,0.0,0.0,0.0,0.0,0.0,0.0,0.0,0.0,0.0,0.0,0.0,0.0,0.0,0.0,0.0,0.0,0.0,0.0,0.0,0.0,0.0,0.0,0.0,0.0,0.0,0.0,0.0,0.0,0.0,0.0,0.0,0.0,0.0,0.0,0.0,0.0,0.0,0.0,0.0,0.0,0.0,0.0,0.0,0.0,0.0,0.0,0.0,0.0,0.0,0.0,0.0,0.0,0.0,0.0,0.0,0.0,0.0,0.0,0.0,0.0,0.0,0.0,0.0,0.0,0.0,0.0,0.0,0.0,0.0,0.0,0.0,0.0,0.0,0.0,0.0,0.0,0.0,0.0,0.0,0.0,0.0,0.0,0.0,0.0,0.0,0.0,0.0,0.0,0.0,0.0,0.0,0.0,0.0,0.0,2.546,2.6236,2.6775,2.6874,2.6978,2.7057,2.7148,2.7455,2.7883,2.8405,0.0,0.0,0.0,0.0,0.0,0.0,0.0,0.0,0.0,0.0,0.0,0.0,0.0,0.0,0.0,0.0,0.0,0.0,0.0,0.0,0.0,0.0,0.0,0.0,0.0,0.0,0.0,0.0,0.0,0.0,0.0,0.0,0.0,0.0,0.0,0.0,0.0,0.0,0.0,0.0,0.0,0.0,0.0,0.0,0.0,0.0,0.0,0.0,0.0,0.0,0.0,0.0,0.0,0.0,0.0,0.0,0.0,0.0,0.0,0.0,0.0,0.0,0.0,0.0,0.0,0.0,0.0,0.0,0.0,0.0,0.0,0.0,0.0,0.0,0.0,0.0,0.0,0.0,0.0,0.0,0.0,0.0,0.0,0.0,0.0,0.0,0.0,0.0,0.0,0.0,0.0,0.0,0.0,0.0,0.0,0.0,0.0,0.0,0.0,0.0,0.0,0.0,2.5719,2.6758,2.7556,2.7882,2.8066,2.8233,2.8345,2.8784,2.914,2.9333,0.0,0.0,0.0,0.0,0.0,0.0,0.0,0.0,0.0,0.0,0.0,0.0,0.0,0.0,0.0,0.0,0.0,0.0,0.0,0.0,0.0,0.0,0.0,0.0,0.0,0.0,0.0,0.0,0.0,0.0,0.0,0.0,0.0,0.0,0.0,0.0,0.0,0.0,0.0,0.0,0.0,0.0,0.0,0.0,0.0,0.0,0.0,0.0,0.0,0.0,0.0,0.0,0.0,0.0,0.0,0.0,0.0,0.0,0.0,0.0,0.0,0.0,0.0,0.0,0.0,0.0,0.0,0.0,0.0,0.0,0.0,0.0,0.0,0.0,0.0,0.0,0.0,0.0,0.0,0.0,0.0,0.0,0.0,0.0,0.0,0.0,0.0,0.0,0.0,0.0,0.0,0.0,0.0,0.0,0.0,0.0,0.0,0.0,0.0,0.0,0.0,0.0,2.5697,2.7008,2.7987,2.8177,2.8818,2.929,2.9481,3.008,3.0371,3.0168,0.0,0.0,0.0,0.0,0.0,0.0,0.0,0.0,0.0,0.0,0.0,0.0,0.0,0.0,0.0,0.0,0.0,0.0,0.0,0.0,0.0,0.0,0.0,0.0,0.0,0.0,0.0,0.0,0.0,0.0,0.0,0.0,0.0,0.0,0.0,0.0,0.0,0.0,0.0,0.0,0.0,0.0,0.0,0.0,0.0,0.0,0.0,0.0,0.0,0.0,0.0,0.0,0.0,0.0,0.0,0.0,0.0,0.0,0.0,0.0,2.3566,0.0,0.0,0.0,0.0,0.0,0.0,0.0,0.0,0.0,0.0,0.0,0.0,0.0,0.0,0.0,0.0,0.0,0.0,0.0,0.0,0.0,0.0,0.0,0.0,0.0,0.0,0.0,0.0,0.0,0.0,0.0,0.0,0.0,0.0,0.0,0.0,0.0,0.0,0.0,0.0,0.0,2.7179,2.8165,2.8857,2.8954,2.9196,2.9403,2.9489,2.9873,3.0455,3.1291,3.1624,0.0,0.0,0.0,0.0,0.0,0.0,0.0,0.0,0.0,0.0,0.0,0.0,0.0,0.0,0.0,0.0,0.0,0.0,0.0,0.0,0.0,0.0,0.0,0.0,0.0,0.0,0.0,0.0,0.0,0.0,0.0,0.0,0.0,0.0,0.0,0.0,0.0,0.0,0.0,0.0,0.0,0.0,0.0,0.0,0.0,0.0,0.0,0.0,0.0,0.0,0.0,0.0,0.0,0.0,0.0,0.0,0.0,0.0,0.0,0.0,2.3595,0.0,0.0,0.0,0.0,0.0,0.0,0.0,0.0,0.0,0.0,0.0,0.0,0.0,0.0,0.0,0.0,0.0,0.0,0.0,0.0,0.0,0.0,0.0,0.0,0.0,0.0,0.0,0.0,0.0,0.0,0.0,0.0,0.0,0.0,0.0,0.0,0.0,0.0,0.0,0.0,2.7637,2.8825,2.9658,2.9775,3.0173,3.0495,3.0601,3.0906,3.1422,3.2188,3.2511,0.0,0.0,0.0,0.0,0.0,0.0,0.0,0.0,0.0,0.0,0.0,0.0,0.0,0.0,0.0,0.0,0.0,0.0,0.0,0.0,0.0,0.0,0.0,0.0,0.0,0.0,0.0,0.0,0.0,0.0,0.0,0.0,0.0,0.0,0.0,0.0,0.0,0.0,0.0,0.0,0.0,0.0,0.0,0.0,0.0,0.0,0.0,0.0,0.0,0.0,0.0,0.0,0.0,2.383,2.4608,2.5098,2.6268,2.6821,2.6737,2.4891,2.4124,2.4256,2.4809,0.0,0.0,0.0,0.0,0.0,0.0,0.0,0.0,0.0,0.0,0.0,0.0,0.0,0.0,0.0,0.0,0.0,0.0,0.0,0.0,0.0,0.0,0.0,0.0,2.2225,2.1762,2.0655,0.0,0.0,0.0,0.0,0.0,0.0,0.0,0.0,0.0,0.0,0.0,2.7999,2.9425,3.0432,3.0577,3.1266,3.1728,3.18,3.2153,3.2512,3.2779,3.3116,3.3567,0.0,0.0,0.0,0.0,0.0,0.0,0.0,0.0,0.0,0.0,0.0,0.0,0.0,0.0,0.0,0.0,0.0,0.0,0.0,0.0,0.0,0.0,0.0,0.0,0.0,0.0,0.0,0.0,0.0,0.0,0.0,0.0,1.5235,1.5294,0.0,0.0,0.0,0.0,0.0,0.0,0.0,0.0,0.0,0.0,0.0,0.0,0.0,2.1715,2.218,2.3242,2.4097,2.4723,2.4904,2.5112,2.536,2.554,2.569,2.5806,2.5954,0.0,2.665,2.6734,0.0,0.0,0.0,0.0,0.0,0.0,0.0,0.0,0.0,0.0,0.0,0.0,0.0,0.0,0.0,0.0,0.0,0.0,0.0,0.0,0.0,0.0,2.295,2.251,2.2374,2.2307,0.0,2.2366,2.2684,2.2972,2.3353,0.0,0.0,0.0,0.0,0.0,0.0,0.0,2.9415,3.0476,3.1215,3.1344,3.1814,3.202,3.1827,3.2368,3.2747,3.2795,3.3116,3.3567,3.4179,3.4233,0.0,0.0,0.0,0.0,0.0,0.0,0.0,0.0,0.0,0.0,0.0,0.0,0.0,0.0,0.0,0.0,0.0,0.0,0.0,0.0,0.0,0.0,0.0,0.0,0.0,0.0,0.0,0.0,0.0,1.5463,1.5878,1.5801,1.6343,1.6856,0.0,0.0,0.0,0.0,0.0,0.0,0.0,0.0,0.0,2.1694,2.2542,2.3227,2.3701,2.4273,2.4704,2.5,2.5713,2.6075,2.6156,2.6902,2.7336,2.7469,2.7701,2.7964,2.8186,2.7813,2.7534,2.7382,0.0,0.0,0.0,0.0,2.7123,2.7024,2.6434,2.6209,2.6033,2.4918,0.0,0.0,0.0,0.0,0.0,0.0,0.0,0.0,0.0,0.0,2.3608,2.3398,2.3367,2.3353,2.3354,2.3708,2.3864,0.0,2.396,2.4611,2.4611,0.0,0.0,0.0,0.0,2.8713,2.9337,3.0276,3.0955,3.1081,3.1562,3.1912,3.2073,3.2343,3.2684,3.3063,3.3214,3.3567,3.4179,3.4315,3.4532,0.0,0.0,0.0,0.0,0.0,0.0,0.0,0.0,0.0,0.0,0.0,0.0,0.0,0.0,0.0,0.0,0.0,0.0,0.0,0.0,0.0,0.0,0.0,0.0,0.0,0.0,0.0,0.0,1.6109,1.6473,1.6248,1.7062,1.7694,0.0,0.0,0.0,0.0,0.0,0.0,2.1454,2.1926,2.2416,2.299,2.3702,2.4339,2.4844,2.5208,2.5396,2.5448,2.6409,2.6836,2.687,2.7856,2.8439,2.8642,2.8642,2.8783,2.8957,2.8532,2.8266,2.8212,2.8846,2.8935,2.8677,2.84,2.8219,2.8015,2.7214,2.6917,2.6734,2.5577,2.5019,2.4692,2.4243,0.0,0.0,0.0,0.0,2.3431,2.3431,2.3771,2.4098,2.4098,2.4098,2.4098,2.4098,2.4447,2.4544,0.0,2.454,2.5258,2.5118,0.0,0.0,2.6888,2.7846,2.8646,2.9051,2.9957,3.0615,3.0744,3.1326,3.1821,3.21,3.2386,3.2724,3.3146,3.3324,3.365,3.4179,3.4381,3.4632,3.4884,0.0,0.0,0.0,0.0,0.0,0.0,0.0,0.0,0.0,0.0,0.0,0.0,0.0,0.0,0.0,0.0,0.0,0.0,0.0,0.0,0.0,0.0,0.0,0.0,0.0,0.0,0.0,0.0,0.0,1.6627,1.8231,0.0,0.0,0.0,0.0,2.1331,2.0886,2.083,2.1467,2.1522,2.1829,2.2417,2.3514,2.4392,2.4973,2.6137,2.6771,2.6903,2.6971,2.7047,2.7174,2.7242,2.7519,2.7947,2.7947,2.824,2.8732,2.8962,2.8756,2.8338,2.8896,2.8511,2.7723,2.8146,2.8027,2.7638,2.7575,2.7547,2.7357,2.6148,2.5034,2.4141,2.4112,2.4084,0.0,0.0,2.4032,2.4058,2.4058,2.4084,2.4098,2.4098,2.4098,2.4098,2.4098,2.4112,2.4303,0.0,2.4964,2.509,2.5342,0.0,2.5864,2.6612,2.7747,2.8646,2.9051,2.993,3.0539,3.0605,3.1428,3.1895,3.1646,3.2625,3.3131,3.2834,3.3419,3.3901,3.4191,3.4381,3.4632,3.4884,3.5098,0.0,0.0,0.0,0.0,0.0,0.0,0.0,0.0,0.0,0.0,0.0,0.0,0.0,0.0,0.0,0.0,0.0,0.0,0.0,0.0,0.0,0.0,0.0,0.0,0.0,0.0,0.0,0.0,1.8395,1.9296,0.0,2.0105,2.025,2.0783,2.1926,2.1821,2.2132,2.3119,2.3532,2.4036,2.4641,2.543,2.5943,2.6155,2.6584,2.6819,2.6873,2.6873,2.6897,2.695,2.695,2.7078,2.7321,2.7321,2.7658,2.8192,2.8288,2.8472,2.8713,2.8993,2.8877,2.8535,2.8364,2.8195,2.7953,2.7265,2.6774,2.6242,2.5076,2.4433,2.4098,2.4098,2.4098,2.4098,2.4098,2.4098,2.4098,2.4098,2.4098,2.4098,2.4098,2.4098,2.4098,2.4098,2.4098,2.4156,2.4375,2.4419,2.4506,2.4766,2.5467,2.6161,2.6625,2.7678,2.8486,2.8629,2.9216,2.9728,3.0112,3.0724,3.134,3.1939,3.2553,3.297,3.3116,3.3543,3.3835,3.394,3.4179,3.4411,3.4643,3.4875,3.5113,0.0,0.0,0.0,0.0,0.0,0.0,0.0,0.0,0.0,0.0,0.0,0.0,0.0,0.0,0.0,0.0,0.0,0.0,0.0,0.0,0.0,0.0,0.0,0.0,0.0,0.0,1.9943,1.949,2.0329,2.0929,2.0917,2.1185,2.1709,2.2516,2.2571,2.2926,2.3725,2.4351,2.4879,2.5272,2.6084,2.65,2.65,2.67,2.6792,2.6792,2.6792,2.6792,2.6792,2.6792,2.6937,2.7168,2.7002,2.7256,2.7765,2.7643,2.787,2.831,2.8783,2.8838,2.865,2.8288,2.8061,2.7805,2.6877,2.6203,2.5563,2.4608,2.4201,2.4098,2.4098,2.4098,2.4098,2.4098,2.4098,2.4098,2.4098,2.4098,2.4098,2.4098,2.4098,2.4098,2.4098,2.4098,2.4098,2.4098,2.4098,2.4156,2.432,2.5189,2.5958,2.6281,2.7302,2.8073,2.8189,2.8732,2.9246,2.9591,3.0213,3.0901,3.1658,3.2214,3.2692,3.3108,3.3451,3.3687,3.3807,3.4061,3.4262,3.4405,3.4728,3.5064,3.5398,0.0,0.0,0.0,0.0,0.0,0.0,0.0,0.0,0.0,0.0,0.0,0.0,0.0,0.0,0.0,0.0,0.0,0.0,0.0,0.0,0.0,0.0,0.0,1.9028,1.9844,2.0366,1.9834,2.1334,2.2269,2.1951,2.2515,2.2954,2.3078,2.3093,2.3108,2.3138,2.3752,2.4118,2.4118,2.53,2.5921,2.5893,2.65,2.6792,2.6792,2.6792,2.6792,2.6792,2.6819,2.7061,2.7464,2.7011,2.7102,2.7502,2.7155,2.7029,2.7144,2.8234,2.834,2.7889,2.7889,2.758,2.7102,2.651,2.6001,2.5481,2.4894,2.4421,2.4083,2.4083,2.4098,2.4098,2.4098,2.4098,2.4098,2.4098,2.4098,2.4098,2.4098,2.4098,2.4098,2.4068,2.4068,2.4068,2.4068,2.4068,2.4083,2.4098,2.4708,2.5287,2.555,2.6558,0.0,2.7738,2.8538,2.9074,2.9097,2.9978,3.0635,3.0767,3.1658,3.2369,3.2763,3.3116,3.3451,3.3793,3.4049,3.4191,3.4203,3.4646,3.5051,3.5385,0.0,0.0,0.0,0.0,0.0,0.0,0.0,0.0,0.0,0.0,0.0,0.0,0.0,0.0,0.0,0.0,0.0,0.0,0.0,0.0,0.0,0.0,2.0835,2.0515,2.1202,2.168,2.1541,2.2031,2.2362,2.2269,2.2558,2.2815,2.2939,2.2954,2.3213,2.3795,2.4409,2.4752,2.4752,2.592,2.634,2.5893,2.65,2.6792,2.6792,2.6792,2.6792,2.6806,2.7152,2.7378,2.7489,2.7365,2.7603,2.8033,2.7567,2.7593,2.7916,2.7695,2.7522,2.7382,2.7382,2.7321,2.7102,2.651,2.5933,2.5356,2.4752,2.4276,2.3949,2.3949,2.4023,2.4098,2.4098,2.4098,2.4098,2.4098,2.4098,2.4098,2.4098,2.4098,2.401,2.3671,2.3597,2.3597,2.3597,2.3597,2.37,2.4039,2.4708,2.5231,2.5301,2.6453,2.7335,2.7426,2.8104,2.8724,2.9067,2.9661,3.0187,3.0615,3.152,3.2248,3.2692,3.3086,3.3451,3.3793,3.3862,3.3998,3.4197,3.4472,3.4759,0.0,0.0,0.0,0.0,0.0,0.0,0.0,0.0,0.0,0.0,0.0,0.0,0.0,0.0,0.0,0.0,0.0,0.0,0.0,0.0,0.0,0.0,2.1103,2.1557,2.1557,2.1925,2.2197,2.2197,2.2263,2.2328,2.2389,2.2509,2.2647,2.2802,2.283,2.3045,2.3558,2.4178,2.4539,2.4624,2.5797,2.626,2.5893,2.65,2.6792,2.6792,2.6792,2.6792,2.6806,2.7089,2.7201,2.7201,2.7201,2.738,2.7655,2.754,2.758,0.0,0.0,0.0,0.0,0.0,2.687,2.6592,2.6028,2.5481,2.4936,2.4421,2.4128,2.3979,2.3979,2.4052,2.4098,2.4098,2.4098,2.4098,2.4098,2.4098,2.4098,2.4098,2.4098,2.4024,2.3745,2.3686,2.3686,2.3686,2.3686,0.0,2.4054,2.4463,2.478,2.4894,2.5768,2.6571,2.6988,2.7567,2.8168,2.8744,2.9227,2.9722,3.0249,3.0993,0.0,0.0,0.0,3.3266,3.3787,3.3807,0.0,0.0,0.0,3.4494,3.4738,3.4921,0.0,0.0,3.5552,3.5626,0.0,0.0,0.0,0.0,0.0,0.0,0.0,0.0,0.0,0.0,0.0,0.0,0.0,0.0,0.0,0.0,2.171,2.2197,2.2197,2.2197,2.2197,2.2197,2.2197,2.2247,2.2374,2.2374,2.2463,2.2647,2.2662,2.2723,2.2863,0.0,0.0,0.0,0.0,2.588,2.5893,2.65,2.6792,2.6792,2.6792,2.6792,2.6792,2.6858,2.6884,2.6884,2.6884,2.6884,2.6909,2.7278,2.719,2.6845,2.7253,2.7414,2.7378,2.6961,2.646,2.5934,2.5453,0.0,0.0,2.407,2.398,2.4054,2.4068,2.4083,2.4098,2.4098,2.4098,2.4098,2.4098,2.4054,2.401,2.401,2.398,2.3923,2.3923,2.3923,2.3938,2.401,2.401,2.4039,2.4083,2.4098,2.4172,2.4422,2.4879,2.5522,2.6454,2.7003,2.758,2.8262,0.0,0.0,2.9854,3.0365,3.105,3.1914,3.2469,3.3055,3.3714,3.3787,3.3908,3.4154,3.4185,3.4309,3.4508,3.4768,3.4967,3.5114,3.5419,3.5554,0.0,0.0,0.0,0.0,0.0,0.0,0.0,0.0,0.0,0.0,0.0,0.0,0.0,0.0,0.0,2.1076,2.171,2.2197,2.2197,2.2197,2.2197,2.2197,2.2197,2.2213,2.2232,2.2232,2.2294,2.2451,2.2451,2.2528,2.2723,2.3307,2.371,2.3857,2.5035,2.5742,2.5893,2.65,2.6792,2.6792,0.0,0.0,2.6806,2.7188,2.7365,2.7365,2.7365,2.7365,2.734,2.705,2.687,2.6806,2.6896,2.6935,2.6922,2.6832,2.6727,2.654,2.5947,2.5384,2.4837,2.4364,2.3984,2.3732,2.3878,2.4008,0.0,2.4098,2.4098,2.4098,2.4098,2.3819,2.3537,2.3537,2.32,2.2892,2.2892,2.2892,2.3022,2.345,2.3537,2.3656,2.4024,2.4098,2.4112,2.4172,2.4765,2.5342,2.5769,2.6676,2.7452,2.7878,2.8958,2.9705,2.9815,3.0645,3.1357,3.1807,3.264,3.3191,3.3386,3.3659,3.3815,3.3875,3.4093,3.4309,3.4508,3.4768,3.501,3.5186,3.5254,3.5337,0.0,0.0,0.0,0.0,0.0,0.0,0.0,0.0,0.0,0.0,0.0,1.9224,0.0,0.0,2.123,2.1588,2.1956,2.2197,2.2197,2.2197,2.2197,2.2197,2.2197,2.2197,2.2197,2.2197,2.2232,2.2294,2.2309,2.2371,2.254,2.3128,2.3668,2.4149,2.5035,2.5687,2.6097,2.6394,2.654,2.654,2.654,2.654,2.6568,2.6865,2.6992,2.7019,2.7111,2.7152,2.7126,2.6896,2.6948,2.7126,2.6883,2.6792,2.6792,2.6792,2.6419,2.5865,2.5633,2.4964,2.4162,2.4,2.3793,2.3643,2.3846,2.3949,2.3964,2.3804,2.3745,2.3688,2.3424,2.3173,2.2992,2.2992,2.2798,2.2592,2.2592,2.2592,2.2768,2.33,2.3403,2.3552,2.401,2.4098,2.4098,2.4098,2.4522,2.5021,2.5536,2.6427,2.7297,2.8076,2.8919,2.9639,3.0118,3.0831,3.1439,3.1878,3.2341,3.2819,3.3291,3.3458,3.3632,3.3807,3.3927,3.4049,3.416,3.4411,3.4604,3.4694,3.4798,3.5006,0.0,0.0,0.0,0.0,0.0,0.0,0.0,0.0,1.6,1.7031,1.8295,1.9422,2.0095,2.0819,2.151,2.2108,2.2197,2.2197,2.2197,2.2197,2.2197,2.2197,2.2197,2.2197,2.2197,2.2197,2.2197,2.2197,2.2197,2.2247,2.2359,2.2935,2.3625,2.4437,2.5049,2.566,2.6286,2.63,2.63,2.63,2.63,2.63,2.6299,2.6405,2.6457,2.6457,2.6633,2.67,2.67,2.67,2.6933,2.7225,2.6857,2.6646,2.6567,2.6606,2.5947,2.4993,2.4979,2.435,2.3539,2.3554,2.3554,2.3599,2.3774,2.3846,2.3802,2.3507,2.3403,2.3228,2.2814,2.2589,2.2467,2.2467,2.239,2.2359,2.2439,2.2467,2.2619,2.314,2.3228,2.3405,2.3878,2.3951,2.3995,2.4083,2.432,2.478,2.5508,2.6241,2.7129,2.824,2.8884,2.9628,3.0566,3.0985,3.1428,3.1967,3.2056,3.2468,3.3276,3.3364,3.3522,3.3782,3.3842,3.3875,3.3875,3.413,3.4256,3.4262,3.442,3.47,0.9898,1.0329,1.0926,1.1626,1.2249,1.3215,0.0,0.0,1.628,1.8328,1.9404,2.0182,2.0858,2.1588,2.2108,2.2197,2.2197,2.2197,2.2197,2.2197,2.2197,2.2197,2.2197,2.2197,2.2197,2.2197,2.2197,2.2197,2.2197,2.2213,2.2216,2.2796,2.349,2.4307,2.4908,2.5564,2.6286,2.63,2.63,2.63,2.63,2.63,2.63,2.6327,2.6327,2.6327,2.6353,2.6367,2.6367,2.6367,2.6394,2.6433,2.638,2.6096,2.5756,2.5934,2.5577,2.4922,2.4408,2.4118,2.3956,2.3554,2.3418,2.3463,2.3584,2.3628,2.3628,2.3599,2.3363,2.3123,2.305,2.2522,2.1986,2.1986,2.1655,2.1463,2.1893,2.1986,2.2125,2.2604,2.2695,2.2859,2.339,2.3478,2.3626,2.4039,2.432,2.478,2.5508,2.6241,2.7004,2.7785,2.8982,3.0097,3.1035,3.1171,3.1428,3.1967,3.2282,3.2697,3.3284,3.3597,3.3755,3.3807,3.4036,3.4161,3.4161,3.4353,3.447,3.447,3.4491,3.4535,0.9765,1.0349,1.0962,0.0,1.2415,1.3295,1.4599,1.564,1.6713,1.8089,1.9607,2.0773,2.1056,2.1694,2.2197,0.0,2.2197,2.2197,2.2197,2.2197,2.2197,2.2197,2.2197,2.2197,2.2197,2.2197,2.2197,2.2197,2.2197,2.2197,2.2197,2.31,2.3785,2.4106,2.5091,2.5756,2.6056,2.607,2.607,2.607,2.607,2.607,2.607,2.6138,2.6233,2.63,2.63,2.63,2.63,2.63,2.63,2.6328,2.6726,2.6288,2.5453,2.5661,2.5189,2.4437,2.4191,2.384,2.3484,2.3288,2.3225,2.3183,2.2975,2.2902,2.2781,2.219,2.1928,2.1741,2.1443,2.1096,2.0853,2.0853,2.0704,2.0608,2.0821,2.0853,2.1064,2.1772,2.1896,2.2218,2.3225,2.3403,2.3567,2.4024,2.432,2.478,2.5508,2.6241,2.7282,2.8791,2.9711,3.0483,3.1151,3.12,3.131,3.1582,3.1795,3.2222,3.2915,3.3124,3.3397,3.3782,3.3908,3.3966,3.3966,3.4043,3.4093,3.4093,3.4093,3.4093,0.969,1.0349,0.0,1.1799,1.2562,1.3313,1.4129,1.5403,1.6678,1.7451,1.9323,2.0821,2.0821,2.1584,2.2197,2.2197,2.2197,2.2197,2.2197,2.2197,2.2197,2.2197,2.2197,2.2197,2.2197,2.2343,2.2374,2.2213,2.2512,2.2622,2.2454,2.3431,2.4079,2.4266,2.5175,2.5729,2.5893,2.5893,2.5893,2.5893,2.5893,2.5992,2.616,2.644,2.6621,2.6704,2.6704,2.6704,2.6704,2.6704,2.6704,2.6732,2.7018,2.6455,2.5485,2.5428,2.4901,2.4215,2.4215,2.3925,2.3572,2.3572,2.3421,2.3164,2.2825,2.259,2.2278,2.1558,2.1282,2.1103,2.072,2.0566,2.0483,2.0483,2.0483,2.0483,2.0483,2.0483,2.0666,2.1305,2.1527,2.1935,2.3037,2.3451,2.3801,2.4268,2.4514,2.4869,2.5522,2.6428,2.7673,2.9422,3.0032,3.0497,3.0975,3.1131,3.1271,3.1432,3.1532,3.1921,3.2669,3.2749,3.2999,3.3515,3.3606,3.3625,3.3511,3.3625,3.3606,3.3511,3.3511,3.3511,0.969,1.0349,1.0981,1.1799,1.2452,1.3149,1.4086,1.4939,1.579,1.6741,1.864,2.0128,2.0128,2.1257,2.2197,2.2197,2.2197,2.2197,2.2197,2.2197,2.2197,2.2197,2.2197,2.2197,0.0,2.272,2.2841,2.2232,2.328,2.3684,2.3103,2.3655,2.4295,2.4948,2.5005,2.5314,2.5893,2.5893,2.5893,2.5893,2.5893,2.6217,2.6778,2.7439,2.7749,2.7749,2.7749,2.7749,2.7749,2.7749,2.7749,2.7691,2.6996,2.6423,2.5888,2.517,2.4748,2.4486,2.4486,2.4596,2.4754,2.4754,2.423,2.3586,2.357,2.3047,2.2491,2.2457,2.2224,2.195,2.195,2.1713,2.1464,2.1464,2.1464,2.1464,2.1464,2.1464,2.1464,2.1498,2.1811,2.2229,2.2722,2.3562,2.4356,2.4889,2.4981,2.513,2.555,2.6864,2.8107,2.9016,2.9539,3.0011,3.0487,3.0938,3.137,3.1761,3.1789,3.2057,3.2677,3.271,3.2741,3.2827,3.3146,3.3154,3.2827,3.3154,3.3146,3.2827,3.2827,3.2827,0.9547,1.0051,1.052,1.1867,1.2452,1.2948,1.3887,1.4824,1.5763,1.6707,1.822,1.9375,1.9375,2.0516,2.1478,2.1478,2.1878,2.2197,2.2197,2.2197,2.2197,2.2197,2.2077,0.0,0.0,0.0,0.0,2.2216,2.2962,2.3133,2.2531,2.3446,2.4319,2.4978,2.5387,2.6097,2.7158,2.7158,2.703,2.6757,2.6757,2.6751,2.6767,2.7473,2.7659,2.7424,2.7674,2.7805,2.7761,2.7276,2.7068,2.7034,2.6696,2.6193,2.5688,2.5841,2.5622,2.5161,2.467,2.4536,2.452,2.4136,2.3816,2.3423,2.2491,2.204,2.1729,2.123,2.103,2.0942,2.0942,2.057,2.0168,2.0168,2.0168,2.0168,2.0168,2.0481,2.0928,2.1466,2.1686,2.2062,2.3028,2.3755,2.449,2.5402,2.5622,2.5745,2.5961,2.686,2.7889,2.8982,2.9517,2.9989,3.0466,3.0928,3.1269,3.1382,3.1441,3.165,3.2083,3.2188,3.2384,3.2724,3.2836,3.2868,3.2795,3.2905,3.2905,3.2795,3.2795,3.2795,0.9537,1.0102,1.0651,1.1966,1.2397,1.2666,1.3361,1.4484,1.5578,1.6254,1.7796,1.8994,1.8994,2.015,2.1092,2.1092,2.171,2.2197,2.2197,2.2139,2.2164,2.2356,2.2399,2.2443,0.0,0.0,0.0,2.2502,2.3297,2.3693,2.3511,2.4042,2.4788,2.5755,2.5845,2.6362,2.7395,2.7409,2.7276,2.7025,2.7244,2.7218,2.7048,2.7752,2.794,2.7697,2.7743,2.7805,2.782,2.716,2.6925,2.6949,2.6603,2.6197,2.5836,2.5963,2.5786,2.5438,2.5036,2.4987,2.4999,2.4328,2.3948,2.3553,2.24,2.184,2.1516,2.1027,2.0742,2.0577,2.0577,2.0291,1.994,1.9707,1.9884,2.0024,1.9707,2.0181,2.0862,2.1444,2.1851,2.2457,2.3577,2.4502,2.5334,2.6024,2.639,2.6567,2.6451,2.702,2.7815,2.8854,2.9461,2.9968,3.0387,3.0898,3.12,3.12,3.1242,3.1372,3.1604,3.1704,3.1905,3.2257,3.2437,3.2461,3.2368,3.2544,3.2561,3.2436,3.2436,3.2436,0.9725,1.052,1.1298,1.2095,1.2305,1.236,1.2599,1.3936,1.5216,1.549,1.7343,1.8911,0.0,0.0,2.106,2.1092,2.1769,2.2283,2.228,2.2137,2.2214,0.0,0.0,0.0,0.0,0.0,0.0,2.3148,0.0,2.5151,2.5647,2.5221,2.5615,2.7037,2.6246,2.6118,2.6742,2.6757,2.6757,2.6786,2.734,2.7611,2.7622,2.8283,2.8571,2.8506,2.793,2.7789,2.7904,2.7362,2.7258,2.7367,2.6637,2.6329,2.626,2.5558,2.5312,2.5312,2.5483,2.5811,2.6062,2.5211,2.4564,2.3957,2.3165,2.2402,2.1788,2.1769,2.1328,2.0886,2.0867,2.0828,2.0644,2.0011,2.0498,2.0867,2.0031,2.0557,2.1253,2.1471,2.2344,2.3368,2.4294,2.5692,2.6705,2.6739,2.7314,2.7537,2.7018,2.7343,2.7918,2.8689,2.9375,2.9924,3.0272,3.0858,3.119,3.12,3.12,3.1222,3.1286,3.1286,3.1351,3.1498,3.193,3.1966,3.1598,3.2047,3.2109,3.1791,3.18,3.18,1.0413,1.0937,1.1298,1.2095,1.2305,1.25,1.3244,1.3872,1.4691,1.6044,1.6913,1.7601,0.0,0.0,0.0,2.0948,2.2449,0.0,2.3274,2.3591,0.0,2.3124,0.0,2.3712,2.3803,2.4059,0.0,0.0,2.4337,2.4181,2.3878,2.4161,2.4709,2.5523,2.5757,2.6382,2.7417,2.7632,2.7739,2.7739,2.7902,2.7823,2.7548,2.8276,2.8216,2.7564,2.7667,2.7495,2.7135,2.6603,2.6424,2.6389,2.5809,2.5581,2.5558,2.5382,2.5312,2.5211,2.4671,2.5141,2.5788,2.4576,2.4149,2.3847,2.2513,2.1949,2.1712,2.1252,2.1021,2.0779,2.0284,1.9825,1.9449,1.9271,1.941,1.9508,1.9282,2.0147,2.1079,2.1423,2.2872,2.4258,2.4963,2.597,2.6845,2.7228,2.7875,2.8144,2.771,2.7754,2.8287,2.9465,2.9548,2.975,3.0404,3.0828,3.1085,3.119,3.12,3.121,3.1213,3.1239,3.1261,3.1351,3.1468,3.1532,3.1528,3.1691,3.1738,3.1645,3.1746,3.18,1.0844,1.1353,1.1744,1.2194,1.2305,1.2445,1.297,1.3836,1.4798,1.5772,1.6732,0.0,1.7923,1.927,0.0,0.0,0.0,0.0,2.3458,2.3635,2.3697,0.0,2.3765,0.0,2.408,2.4404,2.46,0.0,2.4297,2.4205,2.433,2.4449,2.4842,2.5595,2.6022,2.669,2.76,2.7756,2.7848,2.7848,2.7848,2.7719,2.7506,2.7689,2.7477,2.6973,0.0,2.6381,2.6158,2.5709,2.5581,2.5634,2.5388,2.5312,2.5312,2.5312,2.5087,2.4707,2.4264,2.4373,2.4546,2.3559,2.3346,2.3261,2.2147,2.1807,2.1664,2.1059,2.0683,2.0304,1.9667,1.9242,1.8922,1.8634,1.8854,1.9033,1.8634,1.942,2.045,2.1327,2.2702,2.3977,2.4773,2.5762,2.6598,2.7087,2.8173,2.8857,2.8626,2.8418,2.8723,2.9821,2.962,2.9755,3.0597,3.0868,3.1055,3.119,3.12,3.12,3.12,3.12,3.122,3.1271,3.1293,3.1341,3.1406,3.1502,3.1568,3.1598,3.1681,3.1736,1.1223,1.1762,1.2305,1.2305,1.2305,1.2305,1.2342,1.3793,1.5166,1.5291,0.0,1.8088,1.8294,1.9636,2.0769,2.0944,0.0,2.3448,2.3381,2.3293,2.3379,2.3717,2.4131,2.4366,2.4306,2.4725,2.4802,2.4334,2.4243,2.4599,2.5527,2.5146,2.5341,2.6308,2.65,2.6884,2.749,2.749,2.7456,2.739,2.7469,2.7423,2.7259,2.6884,2.6611,2.641,2.5441,2.507,2.517,2.4903,2.4921,2.5111,2.5241,2.5312,2.5312,2.5312,2.4791,2.4102,2.3981,2.3544,2.2936,2.2505,2.2513,2.2585,2.1949,2.1788,2.1664,2.1059,2.0421,1.9766,1.9152,1.8942,1.8723,1.8141,1.8574,1.8924,1.8152,1.8654,1.9687,2.1136,2.2186,2.3121,2.409,2.5281,2.6213,2.6577,2.8168,2.938,2.9489,2.9212,2.9314,3.0079,2.9766,2.9885,3.0821,3.0955,3.1062,3.1171,3.119,3.12,3.12,3.12,3.12,3.12,3.1271,3.1293,3.1293,3.1406,3.1492,3.156,3.1589,3.1671,1.191,1.2194,1.2305,1.2305,1.2305,1.2342,1.2507,1.3704,0.0,0.0,1.7124,1.8547,1.9819,2.0768,2.1695,2.2741,0.0,0.0,0.0,0.0,2.4825,0.0,0.0,0.0,2.4862,2.4945,0.0,0.0,2.4449,2.4279,2.4467,2.4394,2.485,2.5953,2.6018,2.65,2.749,2.749,2.7272,2.6833,2.7302,2.704,2.6191,2.653,2.6186,2.527,2.5093,0.0,2.4652,2.4754,2.4921,2.5111,2.5241,2.5312,2.5312,2.5312,2.4791,2.4,2.3408,2.2686,2.2059,2.2128,2.24,2.2547,2.1797,2.1674,2.1664,2.1059,2.0421,1.9766,1.9152,1.8583,1.8141,1.804,1.8121,1.8172,1.8031,1.8554,1.9449,2.0741,2.1762,2.2632,2.3294,2.4904,2.6114,2.6195,2.7521,2.8744,2.9411,2.9915,3.0397,3.094,3.0426,3.0285,3.0844,3.0955,3.1005,3.1025,3.1141,3.12,3.12,3.12,3.12,3.12,3.121,3.122,3.122,3.131,3.1351,3.1353,3.1523,3.1607,1.2206,1.2305,1.2338,1.251,1.2569,1.2647,1.2992,0.0,0.0,0.0,1.764,1.9122,2.0285,0.0,0.0,2.3133,0.0,0.0,0.0,0.0,0.0,0.0,0.0,0.0,0.0,2.4581,2.4581,2.4581,2.4352,2.42,2.42,2.42,2.4575,2.5406,2.5739,2.6277,2.707,2.7087,2.6952,2.6696,2.6684,2.6397,2.5896,2.5844,2.5529,2.4998,2.4814,2.4658,2.4526,2.4832,2.4998,2.5111,2.5241,2.5312,2.5312,2.5312,2.4558,2.3482,2.3113,2.2209,2.1184,2.129,2.152,2.173,2.1559,2.157,2.154,2.104,2.0421,1.9766,1.9152,1.8503,1.8,1.8,1.8,1.8,1.8,1.8253,1.8865,2.0128,2.073,2.1429,2.2585,2.4223,2.5445,2.565,2.7241,2.8677,2.9411,3.0085,3.0688,3.1195,3.0339,2.9947,3.0483,3.0492,3.0524,3.0628,3.0935,3.1131,3.12,3.12,3.12,3.12,3.12,3.12,3.12,3.1232,3.1205,3.1147,3.1426,3.163,1.2397,1.2417,1.2484,1.2811,1.2923,1.3054,1.3467,1.5033,0.0,0.0,1.8275,1.9827,2.0628,0.0,2.2451,0.0,2.4074,2.4616,0.0,0.0,0.0,0.0,0.0,0.0,2.42,2.42,0.0,2.42,2.42,2.42,2.42,2.42,2.4449,2.4969,2.5464,2.5965,2.6525,2.6525,2.6474,2.6324,2.6035,2.5774,2.5511,2.5158,2.4963,2.4886,2.4568,2.4508,2.4652,2.4909,2.5087,2.5147,2.5259,2.5312,2.5282,2.5105,2.4186,2.2976,2.2809,2.1794,2.0605,2.0605,2.0731,2.0964,2.132,2.1474,2.1445,2.1166,2.0518,1.9786,1.9321,1.8594,1.8,1.8,1.8,1.8,1.8,1.8112,1.8545,1.9688,2.0021,2.0624,2.226,2.3701,2.4797,2.5299,2.6972,2.8484,2.9347,2.9918,3.0528,3.1262,3.04,2.9881,3.0161,3.0249,3.0282,3.0299,3.0777,3.1085,3.119,3.12,3.12,3.12,3.1095,3.1055,3.1055,3.1022,3.1009,3.1042,3.139,3.1739,1.267,1.2744,1.2817,1.3086,1.3291,1.3481,1.3712,0.0,0.0,1.7372,1.9052,2.0728,2.1528,2.2358,0.0,0.0,0.0,2.4981,0.0,0.0,0.0,0.0,0.0,0.0,2.42,2.42,0.0,2.42,2.42,2.42,2.42,2.42,2.4449,2.4969,2.504,2.5358,2.5965,2.5965,2.5704,2.5158,2.5669,2.5365,2.437,2.4802,2.4832,2.4526,2.4327,2.4532,0.0,2.4897,2.4998,2.5276,2.5312,2.5312,2.5211,2.4492,2.3701,2.2902,2.2153,2.1337,2.0605,2.0605,2.0731,2.0945,2.1157,2.1359,2.1521,2.1674,2.0837,1.9884,1.9825,1.8906,1.8,1.8,1.8,1.8,1.8,1.8482,1.9112,1.9766,2.0401,2.1261,2.2692,2.3779,2.4696,2.5469,2.6461,2.7673,2.9123,2.9375,2.9949,3.1334,3.1312,3.0923,3.0267,3.0799,3.0936,3.0342,3.0858,3.1181,3.12,3.12,3.12,3.12,3.0771,3.0559,3.0559,3.0384,3.0603,3.1188,3.1535,3.2045,1.275,1.2918,1.3119,1.3373,1.3622,1.4038,1.4922,0.0,1.7718,1.8428,1.9653,2.0847,2.1652,2.2059,2.266,0.0,0.0,0.0,2.4927,0.0,0.0,0.0,0.0,0.0,0.0,0.0,2.42,2.42,2.42,2.42,2.42,2.42,2.4298,2.4503,2.482,2.5123,2.5358,2.5358,2.5247,2.4987,2.4921,2.4647,2.4218,2.4413,2.4514,2.449,2.4418,2.464,0.0,2.4998,2.5111,2.5312,2.5312,2.5312,2.5194,2.4391,2.3628,2.2883,2.2077,2.128,2.0605,2.0605,2.0644,2.077,2.1109,2.1263,2.1397,2.1712,2.1175,2.0401,2.0002,1.8946,1.8,1.8,1.8,1.8,1.8,1.8221,1.8705,1.9708,2.0119,2.0731,2.2052,2.3456,2.4498,2.482,2.6087,2.7556,2.9091,2.931,2.987,3.1351,3.1121,3.088,3.092,3.0756,3.07,3.0827,3.099,3.1121,3.119,3.12,3.12,3.12,3.074,3.0702,3.1101,3.074,3.0926,3.1637,3.1961,3.2428,1.3025,1.3173,1.3407,1.3756,1.4227,1.4795,0.0,0.0,1.8272,1.9036,1.9942,2.077,2.1337,2.1633,2.2172,2.3231,0.0,2.3834,2.4389,2.4503,0.0,0.0,0.0,2.4508,0.0,2.4236,2.42,2.42,2.42,2.42,2.42,2.42,2.42,2.42,2.4575,2.476,2.476,2.476,2.476,2.476,2.4376,2.42,2.42,2.42,2.4309,2.449,2.4436,2.4658,0.0,2.5034,2.5129,2.5312,2.5312,2.5141,2.4844,2.4065,2.3298,2.2529,2.1718,2.1069,2.0605,2.0605,2.0605,2.0625,2.0702,2.0731,2.0818,2.1213,2.1079,2.0615,1.9766,1.8884,1.8161,1.804,1.7919,1.7858,1.7971,1.8052,1.8405,1.9421,1.9952,2.0547,2.1662,2.3032,2.4131,2.46,2.5756,2.7229,2.8982,2.9265,2.987,3.1351,3.1091,3.0914,3.1168,3.0995,3.1014,3.132,3.1364,3.1432,3.1522,3.1365,3.1295,3.1295,3.089,3.0909,3.1381,3.0997,3.123,3.2032,3.2309,3.2803,1.3513,1.3593,1.3728,1.4253,1.5192,1.5818,0.0,0.0,1.8903,1.8894,1.9816,2.0605,2.0605,2.1261,2.1804,2.1823,2.2491,0.0,2.3013,2.353,0.0,0.0,0.0,2.4718,2.452,2.4327,2.42,2.42,2.42,0.0,2.42,2.42,2.42,2.42,2.4218,2.4218,2.4218,2.4218,2.4218,2.4218,2.42,2.42,2.42,2.42,2.4309,2.4502,2.4291,2.455,0.0,2.4897,2.4998,2.5312,2.5312,2.4797,2.4029,2.3279,2.251,2.1709,2.0886,2.0605,2.0605,2.0605,2.0605,2.0479,1.9825,1.9619,1.9697,2.0109,2.0401,2.0313,1.9051,1.87,1.8571,1.8121,1.7696,1.7514,1.7919,1.8172,1.8445,1.8913,2.003,2.1136,2.1868,2.2558,2.3526,2.5052,2.5494,2.6437,2.8719,2.9172,2.987,3.1351,3.1496,3.1284,3.0749,3.1795,3.2238,3.173,3.207,3.2293,3.2293,3.1777,3.1494,3.1494,3.1217,3.1103,3.1091,3.0901,3.1315,3.2301,3.25,3.3132,1.358,1.3774,1.4031,1.4315,1.4691,1.5185,1.598,0.0,1.9129,1.9894,2.0352,2.0605,2.0605,2.0809,2.1165,2.1709,2.2472,0.0,0.0,0.0,0.0,0.0,2.4116,2.4363,0.0,0.0,2.42,2.42,2.42,2.42,2.42,2.42,2.42,2.42,2.42,2.42,2.42,2.42,2.42,2.42,2.42,2.42,2.42,2.42,2.4309,2.4502,2.4291,2.455,2.5087,2.4879,2.4998,2.5259,2.4689,2.4319,2.3945,2.2649,2.2021,2.169,2.0886,2.0605,2.0605,2.0605,2.0605,2.045,1.9637,1.949,1.953,1.9207,1.9295,1.9402,1.9015,1.8576,1.8175,1.8034,1.7679,1.7432,1.7554,1.785,1.8405,1.9421,1.9952,2.0566,2.1681,2.2505,2.3342,2.433,2.5004,2.6062,2.7887,2.8295,2.9,3.0524,3.0762,3.1101,3.1801,3.1798,3.2041,3.2747,3.2528,3.2414,3.2501,3.2348,3.2077,3.1713,3.1314,3.1331,3.1779,3.14,3.1826,3.299,3.3422,3.3803,0.0,1.4005,1.4258,1.4282,1.4434,0.0,0.0,0.0,1.9748,2.0459,2.0605,2.0605,2.0605,2.0605,2.0867,2.1671,2.2228,2.266,0.0,0.0,0.0,0.0,0.0,0.0,0.0,2.4291,2.4236,2.4309,2.4236,2.42,2.42,2.42,2.4236,2.4309,2.4236,2.42,2.42,2.42,2.42,2.42,2.42,2.42,2.42,2.42,2.4273,2.4381,2.4243,2.4508,0.0,2.4843,2.4998,2.5247,2.4755,2.424,2.3676,2.263,2.1918,2.1386,2.0799,2.0605,2.0605,2.0605,2.0391,2.001,1.946,1.9204,1.9007,1.8512,1.8789,1.9244,1.9332,1.8807,1.8227,1.8037,1.7428,1.6943,1.7106,1.7526,1.8164,1.9116,1.9825,2.0537,2.1309,2.2327,2.325,2.3993,2.4779,2.5884,2.7504,2.7819,2.8508,3.0118,3.0374,3.0866,3.1965,3.1926,3.2196,3.298,3.2716,3.2551,3.2632,3.2492,3.2244,3.1922,3.1691,3.1795,3.2203,3.2051,3.2431,3.3306,3.3761,3.4,0.0,1.4301,0.0,0.0,0.0,0.0,0.0,0.0,0.0,0.0,0.0,2.0605,2.0605,2.0605,2.0867,2.1671,2.1861,2.2153,0.0,2.3628,0.0,0.0,2.4921,0.0,2.479,2.4454,2.4309,2.4502,2.4327,2.4218,2.4218,2.4218,2.4309,2.449,2.4327,2.4218,2.4218,2.4218,2.4218,2.42,2.42,2.42,2.42,2.42,2.42,0.0,2.4218,2.4436,2.479,2.4825,2.4998,2.5312,2.5247,2.4443,2.3279,2.3024,2.208,2.0867,2.0673,2.0605,2.0605,2.0605,2.005,1.9381,1.9321,1.8778,1.8161,1.8037,1.8718,1.9549,1.9795,1.9301,1.8636,1.8198,1.7164,1.6397,1.6751,1.7355,1.7934,1.8356,1.9766,2.0905,2.1021,2.2117,2.3257,2.4065,2.4826,2.5866,2.7404,2.762,2.8282,3.0011,3.0223,3.0569,3.1423,3.2134,3.2532,3.26,3.2662,3.27,3.2725,3.2365,3.2147,3.2125,3.2303,3.2398,3.2398,3.2746,3.3032,3.3282,3.3568,3.3835,1.4281,0.0,1.4629,1.4566,1.563,1.6819,0.0,0.0,0.0,0.0,0.0,0.0,0.0,0.0,2.0867,2.1671,2.2322,2.2779,2.2976,0.0,0.0,0.0,2.4921,2.479,2.479,2.4574,2.4454,2.449,2.4454,2.4418,2.4418,2.4418,2.4454,2.449,2.4454,2.4418,2.4418,2.4418,2.4345,2.42,2.42,2.42,2.42,2.42,2.42,2.4218,2.4363,2.4574,2.4807,2.4975,2.5147,2.5247,2.4791,2.407,2.3205,2.2499,2.1671,2.0867,2.0673,2.0605,2.0605,2.0605,2.0459,2.0167,1.9499,1.8258,1.722,1.7836,1.8178,1.8539,1.9253,1.9301,1.9134,1.9015,1.8536,1.8115,1.8224,1.8596,1.9103,1.9696,2.0294,2.1011,2.2096,2.2681,2.3453,2.4808,2.5176,2.5652,2.6662,2.6871,2.7537,2.9144,2.944,3.007,3.138,3.1668,3.1993,3.2559,3.2607,3.2727,3.2922,3.2843,3.2647,3.2342,3.2389,3.2398,3.2398,3.2746,3.2924,3.3005,3.3477,3.372,1.6025,1.545,1.541,1.7014,1.7518,1.7894,0.0,0.0,0.0,0.0,0.0,0.0,0.0,0.0,0.0,0.0,2.2761,0.0,0.0,0.0,0.0,2.4461,2.4455,2.4521,0.0,2.4772,2.4682,2.4778,2.47,2.4646,2.4646,2.4556,2.458,2.4778,2.47,2.4556,2.4363,2.4454,2.44,2.42,2.42,2.42,2.42,2.42,2.4255,2.4345,2.4454,2.467,2.4957,2.507,2.5235,2.54,2.4981,2.4306,2.3478,2.2723,2.1861,2.1003,2.0712,2.0605,2.0605,2.0605,2.0605,2.0508,2.003,1.8966,1.7997,1.8467,1.8607,1.8807,1.9667,1.9598,1.9301,1.9301,1.8836,1.8367,1.8367,1.8935,1.9569,2.0021,2.0595,2.1281,2.2136,2.295,2.3797,2.4618,2.5388,2.6008,2.6435,2.6555,2.7229,2.8828,2.9095,2.9795,3.1365,3.1511,3.1668,3.2078,3.2176,3.2287,3.2437,3.2574,3.2561,3.2398,3.2398,3.2398,3.2398,3.2578,3.2746,3.2912,3.3203,3.3398,1.8332,1.7179,1.6616,1.9486,1.929,1.8783,0.0,0.0,0.0,0.0,0.0,0.0,0.0,0.0,0.0,0.0,0.0,0.0,0.0,0.0,2.3548,2.4052,2.4107,0.0,2.5058,2.4957,2.4921,2.5087,2.4939,2.4843,2.4843,2.467,2.4748,2.5087,2.4921,2.4664,2.4255,2.4447,2.4418,2.42,2.42,2.42,2.42,2.4236,2.4345,2.449,0.0,0.0,2.5105,2.5159,2.5342,2.5588,2.5483,2.4874,2.3998,2.3327,2.2352,2.131,2.078,2.0605,2.0605,2.0605,2.0605,2.0605,2.0605,2.0069,1.9499,1.9499,1.94,1.9499,2.0362,2.005,1.9499,1.9499,1.8926,1.8399,1.8399,1.9116,1.9795,1.9962,2.0789,2.154,2.1835,2.3124,2.4126,2.4264,2.5546,2.6499,2.6499,2.6499,2.7145,2.8828,2.9002,2.9675,3.1365,3.1511,3.1511,3.1511,3.167,3.177,3.1799,3.2052,3.2261,3.237,3.2398,3.2398,3.2398,3.2398,3.2551,3.2829,3.287,3.3018,1.9793,1.9302,1.8377,1.8385,1.9308,2.0258,0.0,0.0,0.0,0.0,0.0,0.0,0.0,0.0,0.0,0.0,0.0,0.0,0.0,0.0,2.4981,2.507,0.0,2.5123,2.5259,2.5147,2.507,2.5105,2.507,2.5052,2.5052,2.5016,2.5052,2.5105,2.507,2.4856,2.4454,2.4646,2.4574,2.42,2.42,2.42,2.4218,2.4381,2.4472,2.4526,0.0,2.5052,2.5111,2.5407,2.5553,2.5623,2.5945,2.5553,2.4719,2.3763,2.2898,2.2069,2.0982,2.0605,2.0605,2.0605,2.0605,2.0605,2.0605,2.0508,2.0411,2.0411,1.9873,1.9499,2.0362,2.0508,2.0411,2.0411,2.0304,2.0206,2.0206,2.0323,2.0459,2.0479,2.0906,2.1483,2.2182,2.3298,2.4319,2.5004,2.5921,2.6499,2.6499,2.6499,2.7145,2.8828,2.9002,2.9675,3.1365,3.1511,3.1511,3.1511,3.1539,3.1611,3.1799,3.2052,3.2205,3.2233,3.2342,3.2398,3.2398,3.2398,3.2425,3.2467,3.2773,3.291,1.9682,1.9865,1.9752,1.9479,1.9654,0.0,0.0,0.0,0.0,0.0,0.0,0.0,0.0,0.0,0.0,0.0,0.0,2.3774,2.4546,2.4312,2.4204,0.0,0.0,2.4826,2.5259,2.5241,2.5218,2.5218,2.5218,2.5218,2.5218,2.5147,2.5129,2.5218,2.5147,2.4963,2.4664,2.4754,2.461,2.42,2.42,2.42,2.4218,2.44,2.4556,2.4682,0.0,2.52,2.5377,2.5535,2.5741,2.5928,2.601,2.5606,2.4862,2.3786,2.3106,2.2585,2.1595,2.1261,2.1184,2.0741,2.0605,2.0605,2.0605,2.0605,2.0605,2.0605,2.0313,2.0089,2.0508,2.0605,2.0605,2.0605,2.0605,2.0605,2.0605,2.0605,2.0625,2.0731,2.0993,2.1349,2.1825,2.3132,2.4228,2.46,2.5704,2.6499,2.6499,2.6871,2.762,2.8876,2.9426,3.0193,3.1394,3.1511,3.1511,3.1511,3.1511,3.1583,3.1799,3.1912,3.2052,3.2191,3.2261,3.2328,3.2398,3.2398,3.2398,3.2398,3.2551,3.2635,1.9558,2.0089,2.0605,2.0605,0.0,0.0,0.0,0.0,0.0,0.0,0.0,0.0,0.0,0.0,0.0,0.0,0.0,2.3518,2.4282,2.3884,2.3738,2.4319,2.4373,2.4618,2.5229,2.5312,2.5312,2.5312,2.5312,2.5312,2.5312,2.52,2.52,2.5312,2.52,2.5034,2.479,2.479,2.461,2.42,2.42,2.42,2.4218,2.4454,2.4646,2.4807,2.5052,2.5324,2.5606,2.5653,2.5893,2.6196,2.6084,2.5606,2.488,2.3918,2.3338,2.2928,2.2096,2.1794,2.1671,2.0867,2.0605,2.0605,2.0605,2.0605,2.0605,2.0605,2.0605,2.0605,2.0605,2.0605,2.0605,2.0605,2.0605,2.0605,2.0605,2.0605,2.0644,2.0799,2.1032,2.1244,2.1387,2.292,2.409,2.409,2.5464,2.6499,2.6499,2.7196,2.8035,2.8907,2.9781,3.0629,3.1423,3.1511,3.1511,3.1511,3.1511,3.1568,3.1713,3.177,3.1897,3.215,3.2177,3.2274,3.2398,3.2398,3.2398,3.2398,3.2398,3.2398,2.0294,2.0547,2.0605,2.0605,0.0,0.0,0.0,0.0,0.0,0.0,0.0,0.0,0.0,0.0,0.0,0.0,2.3647,2.4301,2.5105,0.0,2.5141,2.5211,2.5211,2.5229,2.5282,2.5312,2.5312,2.5312,2.5312,2.5312,2.5312,2.5294,2.5294,2.5312,2.5294,2.5129,2.479,2.479,2.461,2.42,2.42,2.42,2.4218,2.461,2.4801,2.4825,2.5147,2.54,2.5606,2.5793,2.601,2.6218,2.6379,2.5856,2.4933,2.4492,2.3836,2.3054,2.2124,2.1794,2.1671,2.0867,2.0605,2.0605,2.0605,2.0605,2.0605,2.0605,2.0605,2.0605,2.0605,2.0605,2.0605,2.0605,2.0605,2.0605,2.0605,2.0605,2.0605,2.0625,2.0925,2.1205,2.1224,2.2827,2.409,2.409,2.5464,2.6499,2.6499,2.7196,2.8035,2.8907,2.9781,3.0629,3.1423,3.1511,3.1511,3.1511,3.1511,3.1511,3.1525,3.1698,3.187,3.2011,3.2136,3.2274,3.2398,3.2398,3.2398,3.2398,3.2398,3.2398,2.0508,2.0963,2.1242,2.0712,0.0,0.0,0.0,0.0,0.0,0.0,0.0,0.0,0.0,0.0,0.0,2.3774,2.4348,2.4951,2.5259,2.5312,2.5312,2.5312,2.5312,2.5312,2.5312,2.5312,2.5312,2.5312,2.5312,2.5312,2.5312,2.5312,2.5312,2.5312,2.5223,2.5052,2.479,2.4682,2.4472,2.42,2.4327,2.4381,2.44,2.4802,2.4992,2.501,2.5342,2.5606,2.5793,2.5997,2.6218,2.6379,2.6339,2.6084,2.5711,2.5447,2.5141,2.4761,2.3902,2.3507,2.3287,2.247,2.1821,2.1346,2.1346,2.1346,2.1346,2.1346,2.1709,2.185,2.0867,2.0605,2.0605,2.0605,2.0605,2.0605,2.0605,2.0605,2.0605,2.0605,2.1318,2.1947,2.1947,2.3566,2.4844,2.4844,2.5786,2.6499,2.6499,2.73,2.8182,2.8923,3.0238,3.1175,3.1467,3.1511,3.1511,3.1511,3.1511,3.1511,3.1511,3.1568,3.1741,3.1996,3.2053,3.2177,3.2398,3.2398,3.2398,3.2398,3.2398,3.2398,2.1002,2.1443,2.1795,0.0,0.0,0.0,0.0,0.0,0.0,0.0,0.0,0.0,0.0,0.0,0.0,0.0,2.4791,2.5312,2.5312,2.5312,2.5312,2.5312,2.5312,2.5312,2.5312,2.5312,2.5312,2.5312,2.5312,2.5312,2.5312,2.5312,2.5312,2.5312,2.5218,2.5052,2.479,2.4664,2.449,2.4291,2.449,2.4556,2.4508,2.4849,2.5034,2.5123,2.5447,2.5711,2.5928,2.6114,2.6322,2.6482,2.6287,2.6236,2.627,2.5997,2.5945,2.5875,2.4987,2.4618,2.4355,2.3551,2.2824,2.2237,2.2237,2.2199,2.2172,2.2172,2.2585,2.2753,2.1652,2.1165,2.0982,2.0982,2.077,2.0605,2.0605,2.0605,2.0683,2.0924,2.1737,2.2472,2.2705,2.4168,2.5312,2.5312,2.5973,2.6499,2.6499,2.7384,2.8379,2.9364,3.0688,3.1511,3.1511,3.1554,3.1568,3.1511,3.1554,3.1568,3.1511,3.1554,3.1712,3.1996,3.2038,3.2163,3.2398,3.2398,3.2398,3.2398,3.2398,3.2398,2.1871,2.2008,0.0,0.0,0.0,0.0,0.0,0.0,0.0,0.0,0.0,0.0,0.0,0.0,0.0,2.3993,2.4791,2.5312,2.5312,2.5312,2.5312,2.5312,2.5312,2.5312,2.5312,2.5312,2.5312,2.5312,2.5312,2.5312,2.5312,2.5312,2.5312,2.5312,2.5312,2.5147,2.479,2.479,2.47,2.449,2.47,2.47,2.4508,2.47,2.4903,2.5111,2.5465,2.5723,2.5928,2.6114,2.6322,2.6482,2.6287,2.6322,2.6448,2.6037,2.6032,2.6062,2.507,2.4707,2.4582,2.3781,2.3386,2.322,2.322,2.3121,2.3013,2.3013,2.3013,2.3021,2.3021,2.2435,2.1823,2.1794,2.1203,2.0625,2.0605,2.0625,2.0867,2.1671,2.2134,2.2649,2.3386,2.4498,2.5312,2.5312,2.599,2.6499,2.6499,2.7384,2.8636,3.0314,3.1087,3.1496,3.1511,3.1684,3.1713,3.1525,3.1698,3.1713,3.1511,3.1698,3.1856,3.1996,3.2136,3.2274,3.2398,3.2398,3.2398,3.2398,3.2398,3.2398,2.24,0.0,0.0,0.0,0.0,0.0,0.0,0.0,0.0,0.0,0.0,0.0,0.0,0.0,0.0,2.4156,2.4791,2.5312,2.5312,2.5312,2.5312,2.5312,2.5312,2.5312,2.5312,2.5312,2.5312,2.5312,2.5312,2.5312,2.5312,2.5312,2.5312,2.5312,2.507,2.4903,2.479,2.452,2.4418,2.449,2.4556,2.4706,2.4927,2.5076,2.5253,2.5465,2.5706,2.5928,2.6131,2.6327,2.6448,2.6499,2.643,2.6448,2.6499,2.6379,2.6361,2.6361,2.606,2.5868,2.5723,2.5483,2.488,2.4228,2.4102,2.4029,2.3957,2.3811,2.4186,2.4629,2.4629,2.4029,2.3139,2.2059,2.2059,2.2134,2.1576,2.1888,2.2387,2.2713,2.3452,2.4138,2.4492,2.5441,2.6129,2.6129,2.6349,2.6585,2.6824,2.753,2.846,2.9659,3.0389,3.0999,3.1452,3.1684,3.177,3.1713,3.187,3.1812,3.1511,3.1698,3.1856,3.1996,3.2136,3.2274,3.2398,3.2398,3.2398,3.2398,3.2398,3.2398,2.1922,0.0,0.0,0.0,0.0,0.0,0.0,0.0,0.0,0.0,0.0,0.0,0.0,2.4707,0.0,2.46,2.4969,2.5312,2.5312,2.5312,2.5312,2.5312,2.5312,2.5312,2.5312,2.5312,2.5312,2.5312,2.5312,2.5312,2.5312,2.5312,2.5312,2.5312,2.5105,2.4921,2.479,2.4556,2.449,2.4628,2.4628,2.4832,2.5182,2.5218,2.5359,2.5623,2.591,2.6119,2.6339,2.6448,2.6499,2.6499,2.6499,2.6499,2.6499,2.6499,2.6499,2.6499,2.6499,2.6413,2.6322,2.6322,2.5863,2.5276,2.5141,2.4987,2.4844,2.4725,2.4998,2.5312,2.5312,2.4933,2.4264,2.301,2.2854,2.2865,2.2379,2.266,2.3113,2.3489,2.4174,2.4844,2.5282,2.599,2.6499,2.6499,2.6538,2.6675,2.696,2.7894,2.8778,2.9426,3.0344,3.1058,3.1467,3.1726,3.1856,3.1799,3.1982,3.1939,3.1626,3.184,3.1968,3.1996,3.2177,3.2315,3.2398,3.2398,3.2398,3.2398,3.2398,3.2398,0.0,0.0,0.0,0.0,0.0,0.0,0.0,0.0,0.0,0.0,0.0,0.0,2.5158,2.4689,2.4456,2.5176,2.5312,2.5312,2.5312,2.5312,2.5312,2.5312,2.5312,2.5312,2.5312,2.5312,2.5312,2.5312,2.5312,2.5312,2.5312,2.5312,2.5312,2.5312,2.5294,2.5129,2.479,2.479,2.479,2.479,2.4825,2.4992,2.5312,2.52,2.5324,2.5688,2.6062,2.6339,2.6499,2.6499,2.6499,2.6499,2.6499,2.6499,2.6499,2.6499,2.6499,2.6499,2.6499,2.6499,2.6499,2.6499,2.6379,2.6218,2.6213,2.5945,2.5653,2.5606,2.5483,2.5329,2.5312,2.5312,2.5123,2.4373,2.3701,2.3198,2.3124,2.3161,2.3427,2.4138,2.4564,2.504,2.5828,2.6258,2.6499,2.6499,2.6607,2.6777,2.696,2.8287,2.9267,2.9473,3.0644,3.1423,3.1496,3.1812,3.194,3.1827,3.2066,3.2108,3.1841,3.2066,3.215,3.1996,3.2259,3.2398,3.2398,3.2398,3.2398,3.2398,3.2398,3.2398,0.0,0.0,0.0,0.0,0.0,0.0,0.0,0.0,0.0,0.0,0.0,0.0,2.5276,2.5158,2.5105,2.5276,2.5312,2.5312,2.5312,2.5312,2.5312,2.5312,2.5312,2.5312,2.5312,2.5312,2.5312,2.5312,2.5312,2.5312,2.5312,2.5312,2.5312,2.5312,2.52,2.5034,2.479,2.479,2.479,2.479,2.4957,2.5129,2.5312,2.543,2.5706,2.6067,2.6327,2.6465,2.6499,2.6499,2.6499,2.6499,2.6499,2.6499,2.6499,2.6499,2.6499,2.6499,2.6499,2.6499,2.6499,2.6499,2.6465,2.6413,2.6253,2.6131,2.601,2.5688,2.5571,2.55,2.5347,2.5312,2.5259,2.5075,2.4915,2.4629,2.4011,2.4366,2.4945,2.5418,2.5588,2.5811,2.628,2.6448,2.6499,2.6499,2.6607,2.6777,2.696,2.7891,2.8773,2.9426,3.0238,3.0925,3.1452,3.1812,3.1982,3.1954,3.2205,3.2273,3.2122,3.2178,3.215,3.1996,3.2259,3.2398,3.2398,3.2398,3.2398,3.2398,3.2398,3.2398,0.0,0.0,0.0,0.0,0.0,0.0,0.0,0.0,0.0,0.0,0.0,2.5312,2.5312,2.5312,2.5312,2.5312,2.5312,2.5312,2.5312,2.5312,2.5312,2.5312,2.5312,2.5312,2.5312,2.5312,2.5312,2.5312,2.5312,2.5312,2.5312,2.5312,2.5312,2.5312,2.5223,2.5111,2.4957,2.4939,2.4939,2.4939,2.5052,2.5271,2.5588,2.5706,2.591,2.6213,2.6413,2.6499,2.6499,2.6499,2.6499,2.6499,2.6499,2.6499,2.6499,2.6499,2.6499,2.6499,2.6499,2.6499,2.6499,2.6499,2.6499,2.6482,2.6379,2.6287,2.6149,2.5945,2.5758,2.5571,2.5483,2.5365,2.5312,2.5312,2.5312,2.5211,2.4898,2.5141,2.5535,2.5828,2.598,2.6114,2.631,2.6448,2.6499,2.6499,2.6705,2.6875,2.699,2.8094,2.9032,2.9457,3.0389,3.1161,3.1611,3.1855,3.2039,3.2094,3.2288,3.2342,3.2205,3.2261,3.2233,3.2094,3.2302,3.2398,3.2398,3.2398,3.2398,3.2398,3.2398,3.2398,0.0,0.0,0.0,0.0,0.0,0.0,0.0,0.0,0.0,0.0,2.5329,2.5312,2.5312,2.5312,2.5312,2.5312,2.5312,2.5312,2.5312,2.5312,2.5312,2.5312,2.5312,2.5312,2.5312,2.5312,2.5312,2.5312,2.5312,2.5312,2.5312,2.5312,2.5312,2.5312,2.5312,2.5241,2.5105,2.5111,2.5111,2.5105,2.5147,2.5442,2.591,2.5928,2.6062,2.6253,2.643,2.6499,2.6499,2.6499,2.6499,2.6499,2.6499,2.6499,2.6499,2.6499,2.6499,2.6499,2.6499,2.6499,2.6499,2.6499,2.6499,2.6499,2.6499,2.6379,2.6236,2.6213,2.5928,2.5653,2.5653,2.5483,2.5312,2.5347,2.5347,2.54,2.5571,2.5606,2.5658,2.591,2.6114,2.6253,2.6253,2.6379,2.6516,2.6521,2.679,2.7045,2.7214,2.8567,2.9535,2.9659,3.0777,3.1583,3.177,3.1912,3.2052,3.2191,3.2328,3.2356,3.2247,3.2342,3.2342,3.2247,3.2342,3.2398,3.2398,3.2398,3.2398,3.2398,3.2398,3.2398,0.0,0.0,0.0,0.0,0.0,0.0,0.0,0.0,0.0,0.0,2.5459,2.5312,2.5312,2.5312,2.5312,2.5312,2.5312,2.5312,2.5312,2.5312,2.5312,2.5312,2.5312,2.5312,2.5312,2.5312,2.5312,2.5312,2.5312,2.5312,2.5312,2.5312,2.5312,2.5312,2.5312,2.5241,2.5105,2.5223,2.5218,2.5105,2.5394,2.5658,2.591,2.6079,2.627,2.6465,2.6499,2.6499,2.6499,2.6499,2.6499,2.6499,2.6499,2.6499,2.6499,2.6499,2.6499,2.6499,2.6499,2.6499,2.6499,2.6499,2.6499,2.6499,2.6499,2.6482,2.6413,2.6253,2.6045,2.5858,2.5858,2.5588,2.5347,2.5518,2.5553,2.5571,2.5588,2.5606,2.5706,2.6079,2.631,2.6465,2.6465,2.6482,2.6538,2.6658,2.6858,2.7268,2.8039,2.8921,2.9721,3.0299,3.1043,3.1583,3.177,3.1912,3.2052,3.2191,3.2328,3.2398,3.237,3.2398,3.2398,3.237,3.2398,3.2398,3.2398,3.2398,3.2398,3.2398,3.2398,3.2398,0.0,0.0,0.0,0.0,0.0,0.0,0.0,0.0,0.0,2.593,2.5683,2.5435,2.5312,2.5312,2.5312,2.5312,2.5312,2.5312,2.5312,2.5312,2.5312,2.5312,2.5312,2.5312,2.5312,2.5312,2.5312,2.5312,2.5312,2.5312,2.5312,2.5312,2.5312,2.5312,2.5312,2.5276,2.5218,2.5276,2.5276,2.5223,2.56,2.5811,2.591,2.6223,2.6413,2.6499,2.6499,2.6714,2.7074,2.7074,2.728,2.762,2.762,2.762,2.7571,2.7196,2.7074,2.7007,2.6624,2.6499,2.6499,2.6499,2.6499,2.6499,2.6499,2.6499,2.6482,2.6379,2.6218,2.6079,2.6079,2.5846,2.5658,2.5758,2.5776,2.5793,2.591,2.5928,2.6015,2.631,2.6448,2.6499,2.6499,2.6499,2.6538,2.6692,2.6875,2.7302,2.8189,2.9,2.9766,3.0419,3.1102,3.1583,3.177,3.1856,3.1982,3.2177,3.2261,3.2315,3.2398,3.2398,3.2398,3.2398,3.2398,3.2398,3.2398,3.2398,3.2398,3.2398,3.2398,3.2398,0.0,0.0,0.0,0.0,0.0,0.0,0.0,0.0,2.6248,0.0,2.59,2.5606,2.5418,2.5329,2.5312,2.5312,2.5312,2.5312,2.5312,2.5312,2.5312,2.5312,2.5312,2.5312,2.5312,2.5312,2.5312,2.5312,2.5312,2.5312,2.5312,2.5312,2.5312,2.5312,2.5312,2.5312,2.5312,2.5312,2.5329,2.5382,2.5741,2.5928,2.598,2.6344,2.6589,2.6748,2.6748,2.7074,2.7554,2.7703,2.8084,2.857,2.8508,2.8492,2.8443,2.7937,2.7653,2.7434,2.6922,2.6641,2.6499,2.6499,2.6499,2.6499,2.6499,2.6499,2.6499,2.6499,2.6374,2.6213,2.6253,2.6084,2.591,2.5963,2.598,2.6015,2.6166,2.6236,2.6322,2.6465,2.6499,2.6499,2.6499,2.6521,2.6607,2.6743,2.696,2.7386,2.8238,2.9016,2.9766,3.0419,3.1102,3.1597,3.1827,3.1856,3.1968,3.2233,3.2261,3.2302,3.2398,3.2398,3.2398,3.2398,3.2398,3.2398,3.2398,3.2398,3.2398,3.2398,3.2398,3.2398,0.0,0.0,0.0,0.0,0.0,0.0,0.0,0.0,0.0,2.6218,2.6027,2.5811,2.5623,2.5435,2.5312,2.5312,2.5312,2.5312,2.5312,2.5312,2.5312,2.5312,2.5312,2.5312,2.5312,2.5312,2.5312,2.5312,2.5312,2.5312,2.5312,2.5312,2.5312,2.5312,2.5312,2.5312,2.5312,2.5312,2.54,2.5588,2.5793,2.5997,2.6184,2.6396,2.685,2.7451,2.7451,2.7537,2.7736,2.8247,2.8583,2.8773,2.857,2.8492,2.8492,2.846,2.8051,2.7501,2.7467,2.704,2.6499,2.6499,2.6499,2.6499,2.6499,2.6499,2.6499,2.6499,2.6374,2.6236,2.643,2.6188,2.5945,2.6131,2.6184,2.6196,2.6213,2.6357,2.6499,2.6499,2.6499,2.6499,2.6499,2.6607,2.676,2.6943,2.7163,2.7573,2.8384,2.9079,2.9766,3.0419,3.1102,3.1625,3.1968,3.1982,3.2108,3.237,3.2398,3.2398,3.2398,3.2398,3.2398,3.2398,3.2398,3.2398,3.2398,3.2398,3.2398,3.2398,3.2398,3.2398,0.0,0.0,0.0,0.0,0.0,0.0,0.0,2.6499,2.6482,2.6413,2.6236,2.6032,2.584,2.5518,2.5312,2.5312,2.5312,2.5312,2.5312,2.5312,2.5312,2.5312,2.5312,2.5312,2.5312,2.5312,2.5312,2.5312,2.5312,2.5312,2.5312,2.5312,2.5312,2.5312,2.5312,2.5312,2.5312,2.5435,2.5535,2.5606,2.5928,2.6131,2.6218,2.685,2.728,2.7567,2.8551,2.8998,2.9062,2.9156,2.9546,3.0068,2.9902,2.984,2.9748,2.8828,2.8347,2.8019,2.7162,2.6696,2.6499,2.6499,2.6499,2.6499,2.6499,2.6499,2.6499,2.6499,2.6448,2.6413,2.6482,2.6396,2.631,2.6379,2.6379,2.6379,2.6379,2.6448,2.6499,2.6499,2.6499,2.6499,2.6499,2.6607,2.6777,2.696,2.718,2.759,2.8401,2.8709,2.9282,3.0374,3.0703,3.1131,3.1798,3.187,3.1982,3.2261,3.2259,3.2301,3.2398,3.2398,3.2398,3.2398,3.2398,3.2398,3.2398,3.2398,3.2398,3.2398,3.2398,3.2523,0.0,0.0,0.0,0.0,0.0,0.0,0.0,0.0,2.6164,2.6435,2.6339,2.6149,2.6027,2.5658,2.5382,2.5312,2.5312,2.5312,2.5312,2.5312,2.5312,2.5312,2.5312,2.5312,2.5312,2.5312,2.5312,2.5312,2.5312,0.0,2.5312,2.5312,2.5312,2.5312,2.5312,2.5312,2.5312,2.55,2.5623,2.5706,2.6045,2.6236,2.6339,2.7129,2.762,2.7904,2.9219,2.9839,2.9871,2.9962,3.0372,3.088,3.0687,3.0598,3.0492,2.9548,2.9064,2.8714,2.7567,2.7023,2.6799,2.6572,2.6499,2.6499,2.6499,2.6499,2.6499,2.6499,2.6499,2.6499,2.6499,2.6499,2.6499,2.6499,2.6499,2.6499,2.6499,2.6499,2.6499,2.6499,2.6499,2.6516,2.6555,2.6692,2.6863,2.7079,2.7251,2.7556,2.8105,2.8352,2.8837,2.9734,3.0026,3.0539,3.1452,3.1524,3.1739,3.2247,3.2274,3.2316,3.2398,3.2398,3.2398,3.2398,3.2398,3.2398,3.2398,3.2398,3.2398,3.2398,3.2398,3.2578,0.0,0.0,0.0,0.0,0.0,0.0,2.4892,0.0,2.5488,2.6297,2.631,2.6184,2.6213,2.5893,2.5553,2.5347,2.5312,2.5312,2.5312,2.5312,2.5312,2.5312,2.5312,2.5312,2.5312,2.5312,2.5312,2.5312,2.5312,2.5312,2.5312,2.5312,2.5312,2.5312,2.5312,2.5312,2.5312,2.5518,2.5723,2.591,2.6114,2.6305,2.6521,2.7213,2.7871,2.8556,2.9453,2.9917,3.0057,3.0598,3.0925,3.1058,3.0732,3.0598,3.0583,3.0553,3.0145,2.9484,2.873,2.8035,2.7384,2.6731,2.6521,2.6499,2.6499,2.6499,2.6499,2.6499,2.6499,2.6499,2.6499,2.6499,2.6499,2.6499,2.6499,2.6499,2.6499,2.6499,2.6499,2.6499,2.6499,2.6538,2.6692,2.6875,2.7062,2.7268,2.7419,2.749,2.749,2.8072,2.8481,2.8498,2.9079,2.989,3.0911,3.0999,3.1392,3.2327,3.2384,3.2398,3.2398,3.2398,3.2398,3.2398,3.2398,3.2398,3.2398,3.2398,3.2398,3.2398,3.2425,3.2621,2.1807,0.0,0.0,0.0,0.0,0.0,0.0,0.0,2.4654,2.5471,2.5588,2.5688,2.6114,2.6114,2.5963,2.5776,2.5488,2.5312,2.5312,2.5312,2.5312,2.5312,2.5312,2.5312,2.5312,2.5312,2.5312,0.0,2.5312,2.5312,2.5312,2.5312,2.5312,2.5312,2.5447,2.5518,2.5518,2.5858,2.6062,2.6114,2.631,2.6448,2.6538,2.7703,2.8314,2.8572,3.01,3.0672,3.0583,3.0747,3.0821,3.0866,3.0672,3.0598,3.0477,2.9454,2.9298,2.9435,2.8198,2.7653,2.7467,2.728,2.6888,2.6499,2.6499,2.6499,2.6499,2.6499,2.6499,2.6499,2.6499,2.6499,2.6499,2.6499,2.6499,2.6499,2.6499,2.6499,2.6499,2.6499,2.6499,2.6538,2.6692,2.6875,2.7062,2.7268,2.7419,2.749,2.749,2.7656,2.7957,2.8449,2.8661,2.9331,3.0748,3.0629,3.0999,3.2176,3.2021,3.2049,3.2398,3.2398,3.2398,3.2398,3.2398,3.2398,3.2398,3.2398,3.2398,3.2411,3.285,3.3214,0.0,0.0,0.0,0.0,0.0,0.0,2.3423,2.3859,2.4445,0.0,2.5838,2.5903,2.6258,2.6253,2.6149,2.6032,2.5758,2.5518,2.5447,2.543,2.5382,2.5312,2.5312,2.5312,2.5312,2.5312,2.5312,2.5312,2.5312,2.5329,2.5418,2.5488,2.5553,2.5553,2.5658,2.5723,2.5723,2.6045,2.6213,2.6213,2.6396,2.6499,2.6538,2.7683,2.8357,2.8712,3.013,3.0777,3.0806,3.0895,3.088,3.0791,3.0657,3.0598,3.0507,2.9686,2.9655,2.9855,2.876,2.8374,2.8325,2.8019,2.7467,2.6922,2.6922,2.6922,2.6922,2.6922,2.7112,2.7213,2.6658,2.6714,2.685,2.6572,2.6499,2.6521,2.6572,2.6572,2.6572,2.6572,2.6572,2.6658,2.6914,2.7062,2.718,2.7352,2.7453,2.749,2.749,2.749,2.7656,2.8039,2.8088,2.8645,3.0055,3.0178,3.0689,3.1909,3.1993,3.212,3.2398,3.2398,3.2398,3.2398,3.2398,3.2467,3.2621,3.2467,3.2467,3.2619,3.32,3.3555,0.0,0.0,0.0,0.0,0.0,0.0,2.3768,2.3975,2.4319,0.0,2.6198,2.6129,2.6216,2.6089,2.5963,2.5963,2.5893,2.5776,2.5653,2.5623,2.5571,2.5382,2.5365,2.5365,2.5365,2.5365,2.5365,2.5365,2.5365,2.5435,2.5623,2.5793,2.591,2.591,2.5985,2.6037,2.6037,2.624,2.6339,2.6357,2.6448,2.6516,2.6538,2.7493,2.8238,2.8885,2.9947,3.0568,3.0821,3.1028,3.0984,3.0762,3.0657,3.0598,3.0583,3.0522,3.0553,3.0522,2.9839,2.9576,2.939,2.873,2.8051,2.7501,2.7501,2.7537,2.7604,2.7604,2.8035,2.8214,2.6939,2.7057,2.7334,2.6658,2.6516,2.6538,2.6675,2.6726,2.6743,2.6748,2.676,2.6846,2.7235,2.7302,2.7352,2.7486,2.749,2.749,2.749,2.749,2.749,2.749,2.7536,2.8023,2.9184,2.9703,3.0465,3.161,3.2092,3.2356,3.2398,3.2398,3.2398,3.2398,3.2439,3.2607,3.2897,3.2633,3.266,3.3005,3.3477,3.3723,0.0,0.0,0.0,0.0,0.0,0.0,2.2222,2.2279,2.2542,0.0,2.3699,2.3852,2.4463,2.4534,2.451,2.451,2.5016,2.5518,2.5793,2.5828,2.584,2.5793,2.5776,2.5776,2.5776,2.5776,2.5776,2.5776,2.5776,2.5793,2.5828,2.5893,2.591,2.591,2.6581,2.6943,2.6943,2.7145,2.7246,2.7246,2.6731,2.6555,2.6709,2.8009,2.8741,2.9048,3.0479,3.0984,3.0821,3.1132,3.1014,3.0642,3.0598,3.0598,3.0553,3.0129,3.0297,3.0672,2.9992,2.942,2.8901,2.8602,2.8051,2.7501,2.7501,2.7871,2.8298,2.8298,2.8395,2.8314,2.7517,2.7401,2.7334,2.6658,2.6572,2.6675,2.6679,2.6841,2.6994,2.715,2.7062,2.7011,2.7251,2.7302,2.7352,2.7486,2.749,2.749,2.749,2.749,2.749,2.749,2.7786,2.8295,2.9069,2.956,3.0328,3.1465,3.1724,3.2007,3.2384,3.2398,3.2398,3.2398,3.2662,3.2829,3.2897,3.3056,3.328,3.3555,3.3642,3.3825,0.0,0.0,0.0,2.1807,0.0,0.0,0.0,2.3338,2.3687,2.4186,2.4215,2.4143,2.4102,2.409,2.409,2.409,2.4868,2.5494,2.5588,2.5858,2.601,2.591,2.591,2.591,2.591,2.591,2.591,2.591,2.598,2.6062,2.6062,2.6136,2.6206,2.6206,2.6956,2.7351,2.7351,2.7451,2.7501,2.7501,2.6888,2.6624,2.6731,2.7878,2.8677,2.9219,3.0328,3.0896,3.1058,3.1219,3.1117,3.0836,3.0836,3.0836,3.0821,3.0553,3.0672,3.0836,3.0068,2.9855,2.9855,2.9314,2.8969,2.8732,2.8666,2.8839,2.9062,2.9062,2.9298,2.9221,2.7868,2.7753,2.7769,2.6816,2.6658,2.6748,2.6964,2.7079,2.7197,2.7369,2.7319,2.7268,2.7386,2.7403,2.7419,2.749,2.749,2.749,2.749,2.749,2.7586,2.7769,2.798,2.8373,2.9035,2.9747,3.0464,3.1204,3.1752,3.2148,3.2398,3.2398,3.2398,3.2398,3.2866,3.3096,3.3096,3.3503,3.3694,3.3694,3.3835,3.3975,0.0,0.0,0.0,0.0,0.0,2.2972,0.0,0.0,0.0,2.5063,2.4969,2.4659,2.4022,2.3756,2.3665,2.3665,0.0,0.0,0.0,2.5394,0.0,2.5997,2.6181,2.6285,2.625,2.625,2.6181,2.6055,2.6184,2.6253,2.6253,2.6413,2.6499,2.6499,2.728,2.7687,2.7687,2.7835,2.7835,2.7687,2.7162,2.685,2.6794,2.7613,2.8484,2.9375,3.0023,3.0673,3.1292,3.1336,3.1263,3.1146,3.1102,3.1102,3.1102,3.1117,3.1132,3.1043,3.0327,3.0477,3.0821,3.0085,2.9902,2.9964,2.9993,2.9901,2.9793,2.9824,3.0129,3.0023,2.8228,2.8081,2.813,2.7007,2.6794,2.6901,2.7235,2.7319,2.7369,2.7486,2.749,2.749,2.749,2.749,2.749,2.749,2.749,2.749,2.749,2.757,2.7736,2.8063,2.8227,2.8506,2.9051,3.0023,3.0703,3.0984,3.1879,3.2398,3.2398,3.2398,3.2425,3.2509,3.3027,3.3335,3.3372,3.386,3.3987,3.3771,3.4,3.4101,0.0,0.0,0.0,0.0,2.2402,0.0,0.0,0.0,2.3268,2.3287,0.0,2.3231,2.3139,0.0,0.0,0.0,0.0,0.0,2.3268,2.3888,2.4868,2.6263,2.7217,2.7703,2.7504,2.7504,2.725,2.6645,2.6521,2.6465,2.6465,2.6499,2.6499,2.6499,2.7736,2.8379,2.8379,2.903,2.903,2.8379,2.7911,2.7423,2.6977,2.7683,2.854,2.9518,3.0071,3.0688,3.1307,3.1423,3.1394,3.1278,3.1146,3.1102,3.1102,3.1234,3.1292,3.1263,3.1161,3.0822,3.0359,3.0071,2.9917,2.9931,3.0507,3.0583,3.0507,3.0642,3.0282,2.97,2.8869,2.8368,2.7875,2.7146,2.7096,2.7235,2.7285,2.7386,2.7486,2.749,2.749,2.749,2.749,2.749,2.749,2.749,2.749,2.749,2.749,2.7802,2.8046,2.8096,2.8619,2.902,2.9083,3.0222,3.097,3.0999,3.1879,3.2398,3.2398,3.2398,3.2537,3.2843,3.315,3.3411,3.3658,3.3949,3.4088,3.405,3.4088,3.4101,0.0,0.0,0.0,0.0,0.0,0.0,2.3143,0.0,2.4082,0.0,0.0,0.0,0.0,0.0,0.0,0.0,2.2942,0.0,0.0,0.0,2.5063,2.5105,0.0,0.0,2.762,2.7703,2.7802,2.8019,2.7517,2.7417,2.792,2.7881,2.7832,2.7832,2.8387,2.8855,2.9251,2.9253,2.9284,2.9364,2.85,2.7911,2.7597,2.7996,2.8406,2.8839,2.9454,3.0132,3.0837,3.0896,3.0881,3.0866,3.1205,3.1336,3.1336,3.1409,3.1423,3.1351,3.0881,3.0837,3.0984,3.0896,3.0777,3.0718,3.0999,3.0732,3.0312,3.0387,2.99,2.923,2.8514,2.8157,2.7858,2.7302,2.7248,2.7319,2.7403,2.7469,2.749,2.749,2.749,2.749,2.749,2.749,2.749,2.749,2.749,2.749,2.749,2.7835,2.8161,2.8373,2.8812,2.9289,2.9759,3.0538,3.1117,3.1379,3.202,3.2398,3.2398,3.2578,3.2759,3.2897,3.3322,3.3594,3.3694,3.3962,3.4101,3.4101,3.4101,3.4101,2.325,0.0,0.0,0.0,0.0,0.0,0.0,0.0,0.0,0.0,0.0,0.0,0.0,0.0,2.2815,0.0,0.0,2.3859,0.0,2.4326,0.0,0.0,0.0,0.0,0.0,2.7633,2.7986,2.8668,2.8084,2.8084,2.8955,2.8919,2.8839,2.8839,2.903,2.9361,2.984,2.9672,2.972,2.9996,2.9219,2.8581,2.8097,2.8225,2.832,2.8384,2.8835,2.947,3.0238,3.0238,3.0238,3.0269,3.0762,3.1058,3.1234,3.1234,3.1351,3.1394,3.0614,3.0851,3.1496,3.1452,3.138,3.1292,3.1292,3.0866,3.0341,3.0206,2.9668,2.899,2.8268,2.7973,2.7776,2.7436,2.7352,2.7386,2.7486,2.749,2.749,2.749,2.749,2.749,2.749,2.749,2.749,2.749,2.759,2.7669,2.7669,2.8082,2.8471,2.87,2.9035,2.954,3.025,3.0732,3.1263,3.1852,3.2217,3.2439,3.2537,3.2773,3.2964,3.3125,3.3503,3.3749,3.3809,3.4013,3.4101,3.4101,3.4101,3.4101,0.0,0.0,0.0,2.3884,0.0,0.0,0.0,0.0,2.283,0.0,0.0,2.3829,2.3102,2.2983,2.2983,0.0,0.0,0.0,0.0,0.0,0.0,0.0,0.0,0.0,0.0,2.743,2.7802,0.0,2.7835,2.8084,2.8955,2.9002,2.8987,2.8987,2.9613,2.9965,2.9996,3.0673,3.0687,2.9996,3.0161,2.956,2.8287,2.8303,2.8368,2.8498,2.8384,2.8792,2.9535,2.9535,2.9535,2.9535,2.9551,2.9965,3.0539,3.0539,3.094,3.1394,3.0733,3.094,3.1467,3.1351,3.1292,3.1292,3.1292,3.119,3.0955,3.0447,2.9808,2.9139,2.8465,2.7908,2.7506,2.749,2.749,2.749,2.749,2.749,2.749,2.749,2.749,2.749,2.749,2.749,2.749,2.749,2.7835,2.8079,2.8079,2.8651,2.9067,2.9083,2.9383,2.9789,3.0266,3.0732,3.1393,3.2328,3.2398,3.2551,3.287,3.2883,3.3136,3.3655,3.3681,3.3822,3.4088,3.4101,3.4101,3.4101,3.4101,3.4101,0.0,0.0,2.3057,2.3313,0.0,0.0,0.0,0.0,0.0,0.0,0.0,0.0,0.0,0.0,0.0,0.0,0.0,0.0,0.0,0.0,0.0,0.0,0.0,0.0,0.0,0.0,0.0,2.9613,2.9504,2.9781,3.0614,3.0569,3.0524,3.0524,3.0298,3.0418,3.0851,3.0762,3.0807,3.0999,3.0613,3.0146,2.961,2.8805,2.8417,2.8352,2.7941,2.8173,2.8839,2.8839,2.8839,2.8887,2.9331,2.9362,2.9235,2.9673,3.0539,3.1467,3.1234,3.1307,3.1496,3.1452,3.1423,3.1423,3.1423,3.0777,2.9995,2.9826,2.8967,2.8072,2.7825,2.764,2.749,2.749,2.749,2.749,2.749,2.749,2.749,2.749,2.749,2.749,2.749,2.749,2.759,2.7852,2.8013,2.8177,2.8406,2.8812,2.9099,2.9099,2.9682,3.0251,3.0718,3.148,3.2062,3.2384,3.2398,3.2551,3.2883,3.3069,3.3319,3.3681,3.3873,3.4013,3.4101,3.4101,3.4101,3.4101,3.4101,3.4101,2.2572,2.2572,0.0,2.2927,2.3001,0.0,2.3331,0.0,2.3087,0.0,0.0,0.0,0.0,0.0,0.0,0.0,0.0,0.0,0.0,2.541,0.0,0.0,0.0,0.0,0.0,0.0,2.9014,3.0329,3.0132,3.0389,0.0,3.1423,3.138,3.138,3.0955,3.0925,3.138,3.1029,3.1073,3.1496,3.1058,3.0688,3.0344,2.9563,2.8887,2.8352,2.8006,2.7973,2.814,2.814,2.814,2.8189,2.8615,2.8664,2.8549,2.8982,2.9689,3.0509,3.0984,3.0999,3.0866,3.1351,3.119,3.0837,3.1073,3.0374,2.9442,2.9205,2.8519,2.7792,2.7556,2.749,2.749,2.749,2.749,2.749,2.749,2.749,2.749,2.749,2.749,2.7553,2.7686,2.7719,2.7802,2.8063,2.8194,2.8406,2.8732,2.9067,2.9336,2.951,2.9991,3.0553,3.119,3.1965,3.2398,3.2398,3.2509,3.2716,3.3032,3.3309,3.3568,3.3835,3.4013,3.4101,3.4101,3.4101,3.4101,3.4101,3.4101,3.4101]}]]